[[{"header":{"parameterUnit":"m.s-1","parameterCategory":1,"la1":31.0,"la2":29.5877,"lo1":-88.7671,"lo2":-86.6584,"dy":0.0162,"dx":0.0185,"nx":115,"ny":88,"refTime":"2024-06-26T00:00:00:Z","depth":0,"parameterNumber":2,"parameterNumberName":"U-component_of_WINDS"},"data":[0.0,0.0,0.0,0.0,0.0,0.0,0.0,0.0,0.0,0.0,0.0,0.0,0.0,0.0,0.0,0.0,0.0,0.0,0.0,0.0,0.0,0.0,0.0,0.0,0.0,0.0,0.0,0.0,0.0,0.0,0.0,0.0,0.0,0.0,0.0,0.0,0.0,0.0,0.0,0.0,0.0,0.0,0.0,0.0,0.0,0.0,0.0,0.0,0.0,0.0,0.0,0.0,0.0,0.0,0.0,0.0,0.0,0.0,0.0,0.0,0.0,0.0,0.0,0.0,0.0,0.0,0.0,0.0,0.0,0.0,0.0,0.0,0.0,0.0,0.0,0.0,0.0,0.0,0.0,0.0,0.0,0.0,0.0,0.0,0.0,0.0,0.0,0.0,0.0,0.0,0.0,0.0,0.0,0.0,0.0,0.0,0.0,0.0,0.0,0.0,0.0,0.0,0.0,0.0,0.0,0.0,0.0,0.0,0.0,0.0,0.0,0.0,0.0,0.0,0.0,0.0,0.0,0.0,0.0,0.0,0.0,0.0,0.0,0.0,0.0,0.0,0.0,0.0,0.0,0.0,0.0,0.0,0.0,0.0,0.0,0.0,0.0,0.0,0.0,0.0,0.0,0.0,0.0,0.0,0.0,0.0,0.0,0.0,0.0,0.0,0.0,0.0,0.0,0.0,0.0,0.0,0.0,0.0,0.0,0.0,0.0,0.0,0.0,0.0,0.0,0.0,0.0,0.0,0.0,0.0,0.0,0.0,0.0,0.0,0.0,0.0,0.0,0.0,0.0,0.0,0.0,0.0,0.0,0.0,0.0,0.0,0.0,0.0,0.0,0.0,0.0,0.0,0.0,0.0,0.0,0.0,0.0,0.0,0.0,0.0,0.0,0.0,0.0,0.0,0.0,0.0,0.0,0.0,0.0,0.0,0.0,0.0,0.0,0.0,0.0,0.0,0.0,0.0,0.0,0.0,0.0,0.0,0.0,0.0,0.0,0.0,0.0,0.0,0.0,0.0,0.0,0.0,0.0,0.0,0.0,0.0,0.0,0.0,0.0,0.0,0.0,0.0,0.0,0.0,0.0,0.0,0.0,0.0,0.0,0.0,0.0,0.0,0.0,0.0,0.0,0.0,0.0,0.0,0.0,0.0,0.0,0.0,0.0,0.0,0.0,0.0,0.0,0.0,0.0,0.0,0.0,0.0,0.0,0.0,0.0,0.0,0.0,0.0,0.0,0.0,0.0,0.0,0.0,0.0,0.0,0.0,0.0,0.0,0.0,0.0,0.0,0.0,0.0,0.0,0.0,0.0,0.0,0.0,0.0,0.0,0.0,0.0,0.0,0.0,0.0,0.0,0.0,0.0,0.0,0.0,0.0,0.0,0.0,0.0,0.0,0.0,0.0,0.0,0.0,0.0,0.0,0.0,0.0,0.0,0.0,0.0,0.0,0.0,0.0,0.0,0.0,0.0,0.0,0.0,0.0,0.0,0.0,0.0,0.0,0.0,0.0,0.0,0.0,0.0,0.0,0.0,0.0,0.0,0.0,0.0,0.0,0.0,0.0,0.0,0.0,0.0,0.0,0.0,0.0,0.0,0.0,0.0,0.0,0.0,0.0,0.0,0.0,0.0,0.0,0.0,0.0,0.0,0.0,0.0,0.0,0.0,0.0,0.0,0.0,0.0,0.0,0.0,0.0,0.0,0.0,0.0,0.0,0.0,0.0,0.0,0.0,0.0,0.0,0.0,0.0,0.0,0.0,0.0,0.0,0.0,0.0,0.0,0.0,0.0,0.0,0.0,0.0,0.0,0.0,0.0,0.0,0.0,0.0,0.0,0.0,0.0,0.0,0.0,0.0,0.0,0.0,0.0,0.0,0.0,0.0,0.0,0.0,0.0,0.0,0.0,0.0,0.0,0.0,0.0,0.0,0.0,0.0,0.0,0.0,0.0,0.0,0.0,0.0,0.0,0.0,0.0,0.0,0.0,0.0,0.0,0.0,0.0,0.0,0.0,0.0,0.0,0.0,0.0,0.0,0.0,0.0,0.0,0.0,0.0,0.0,0.0,0.0,0.0,0.0,0.0,0.0,0.0,0.0,0.0,0.0,0.0,0.0,0.0,0.0,0.0,0.0,0.0,0.0,0.0,0.0,0.0,0.0,0.0,0.0,0.0,0.0,0.0,0.0,0.0,0.0,0.0,0.0,0.0,0.0,0.0,0.0,0.0,0.0,0.0,0.0,0.0,0.0,0.0,0.0,0.0,0.0,0.0,0.0,0.0,0.0,0.0,0.0,0.0,0.0,0.0,0.0,0.0,0.0,0.0,0.0,0.0,0.0,0.0,0.0,0.0,0.0,0.0,0.0,0.0,0.0,0.0,0.0,0.0,0.0,0.0,0.0,0.0,0.0,0.0,0.0,0.0,0.0,0.0,0.0,0.0,0.0,0.0,0.0,0.0,0.0,0.0,0.0,0.0,0.0,0.0,0.0,0.0,0.0,0.0,0.0,0.0,0.0,0.0,0.0,0.0,0.0,0.0,0.0,0.0,0.0,0.0,0.0,0.0,0.0,0.0,0.0,0.0,0.0,0.0,0.0,0.0,0.0,0.0,0.0,0.0,0.0,0.0,0.0,0.0,0.0,0.0,0.0,0.0,0.0,0.0,0.0,0.0,0.0,0.0,0.0,0.0,0.0,0.0,0.0,0.0,0.0,0.0,0.0,0.0,0.0,0.0,0.0,0.0,0.0,0.0,0.0,0.0,0.0,0.0,0.0,0.0,0.0,0.0,0.0,0.0,0.0,0.0,0.0,0.0,0.0,0.0,0.0,0.0,0.0,0.0,0.0,0.0,0.0,0.0,0.0,0.0,0.0,0.0,0.0,0.0,0.0,0.0,0.0,0.0,0.0,0.0,0.0,0.0,0.0,0.0,0.0,0.0,0.0,0.0,0.0,0.0,0.0,0.0,0.0,0.0,0.0,0.0,0.0,0.0,0.0,0.0,0.0,0.0,0.0,0.0,0.0,0.0,0.0,0.0,0.0,0.0,0.0,0.0,0.0,0.0,0.0,0.0,0.0,0.0,0.0,0.0,0.0,0.0,0.0,0.0,0.0,0.0,0.0,0.0,0.0,0.0,0.0,0.0,0.0,0.0,0.0,0.0,0.0,0.0,0.0,0.0,0.0,0.0,0.0,0.0,0.0,0.0,0.0,0.0,0.0,0.0,0.0,0.0,0.0,0.0,0.0,0.0,0.0,0.0,0.0,0.0,0.0,0.0,0.0,0.0,0.0,0.0,0.0,0.0,0.0,0.0,0.0,0.0,0.0,0.0,0.0,0.0,0.0,0.0,0.0,0.0,0.0,0.0,0.0,0.0,0.0,0.0,0.0,0.0,0.0,0.0,0.0,0.0,0.0,0.0,0.0,0.0,0.0,0.0,0.0,0.0,0.0,0.0,0.0,0.0,0.0,0.0,0.0,0.0,0.0,0.0,0.0,0.0,0.0,0.0,0.0,0.0,0.0,0.0,0.0,0.0,0.0,0.0,0.0,0.0,0.0,0.0,0.0,0.0,0.0,0.0,0.0,0.0,0.0,0.0,0.0,0.0,0.0,0.0,0.0,0.0,0.0,0.0,0.0,0.0,0.0,0.0,0.0,0.0,0.0,0.0,0.0,0.0,0.0,0.0,0.0,0.0,0.0,0.0,0.0,0.0,0.0,0.0,0.0,0.0,0.0,0.0,0.0,0.0,0.0,0.0,0.0,0.0,0.0,0.0,0.0,0.0,0.0,0.0,0.0,0.0,0.0,0.0,0.0,0.0,0.0,0.0,0.0,0.0,0.0,0.0,0.0,0.0,0.0,0.0,0.0,0.0,0.0,0.0,0.0,0.0,0.0,0.0,0.0,0.0,0.0,0.0,0.0,0.0,0.0,0.0,0.0,0.0,0.0,0.0,0.0,0.0,0.0,0.0,0.0,0.0,0.0,0.0,0.0,0.0,0.0,0.0,0.0,0.0,0.0,0.0,0.0,0.0,0.0,0.0,0.0,0.0,0.0,0.0,0.0,0.0,0.0,0.0,0.0,0.0,0.0,0.0,0.0,0.0,0.0,0.0,0.0,0.0,0.0,0.0,0.0,0.0,0.0,0.0,0.0,0.0,0.0,0.0,0.0,0.0,0.0,0.0,0.0,0.0,0.0,0.0,0.0,0.0,0.0,0.0,0.0,0.0,0.0,0.0,0.0,0.0,0.0,0.0,0.0,0.0,0.0,0.0,0.0,0.0,0.0,0.0,-1.1564,0.0,0.0,0.0,0.0,0.0,0.0,0.0,0.0,0.0,0.0,0.0,0.0,0.0,0.0,0.0,0.0,0.0,0.0,0.0,0.0,0.0,0.0,0.0,0.0,0.0,0.0,0.0,0.0,0.0,0.0,0.0,0.0,0.0,0.0,0.0,0.0,0.0,0.0,0.0,0.0,0.0,0.0,0.0,0.0,0.0,0.0,0.0,0.0,0.0,0.0,0.0,0.0,0.0,0.0,0.0,0.0,0.0,0.0,0.0,0.0,0.0,0.0,0.0,0.0,0.0,0.0,0.0,0.0,0.0,0.0,0.0,0.0,0.0,0.0,0.0,0.0,0.0,0.0,0.0,0.0,0.0,0.0,0.0,0.0,0.0,0.0,0.0,0.0,0.0,0.0,0.0,0.0,0.0,0.0,0.0,0.0,0.0,0.0,0.0,0.0,0.0,0.0,0.0,0.0,0.0,0.0,0.0,0.0,0.0,0.0,-1.1004,-1.1221,-1.1629,-1.173,-1.1496,0.0,0.0,0.0,0.0,0.0,0.0,0.0,0.0,0.0,0.0,0.0,0.0,0.0,0.0,0.0,0.0,0.0,0.0,0.0,0.0,0.0,0.0,0.0,0.0,0.0,0.0,0.0,0.0,0.0,0.0,0.0,0.0,0.0,0.0,0.0,0.0,0.0,0.0,0.0,0.0,0.0,0.0,0.0,0.0,0.0,0.0,0.0,0.0,0.0,0.0,0.0,0.0,0.0,0.0,0.0,0.0,0.0,0.0,0.0,0.0,0.0,0.0,0.0,0.0,0.0,0.0,0.0,0.0,0.0,0.0,0.0,0.0,0.0,0.0,0.0,0.0,0.0,0.0,0.0,0.0,0.0,0.0,0.0,0.0,0.0,0.0,0.0,0.0,0.0,0.0,0.0,0.0,0.0,0.0,0.0,0.0,0.0,0.0,0.0,0.0,0.0,0.0,0.0,0.0,0.0,0.0,0.0,0.0,0.0,0.0,0.0,0.0,-1.1749,-1.1836,-1.1389,0.0,0.0,0.0,0.0,0.0,0.0,0.0,0.0,0.0,0.0,0.0,0.0,0.0,0.0,0.0,0.0,0.0,0.0,0.0,0.0,0.0,0.0,0.0,0.0,0.0,0.0,0.0,0.0,0.0,0.0,0.0,0.0,0.0,0.0,0.0,0.0,0.0,0.0,0.0,0.0,0.0,0.0,0.0,0.0,0.0,0.0,0.0,0.0,0.0,0.0,0.0,0.0,0.0,0.0,0.0,0.0,0.0,0.0,0.0,0.0,0.0,0.0,0.0,0.0,0.0,0.0,0.0,0.0,0.0,0.0,0.0,0.0,0.0,0.0,0.0,0.0,0.0,0.0,0.0,0.0,0.0,0.0,0.0,0.0,0.0,0.0,0.0,0.0,0.0,0.0,0.0,0.0,0.0,0.0,0.0,0.0,0.0,0.0,0.0,0.0,0.0,0.0,0.0,0.0,0.0,0.0,0.0,0.0,0.0,0.0,-1.1041,-1.111,-1.1431,0.0,-1.0979,0.0,0.0,0.0,0.0,0.0,0.0,0.0,0.0,0.0,0.0,0.0,0.0,0.0,0.0,0.0,0.0,0.0,0.0,0.0,0.0,0.0,0.0,0.0,0.0,0.0,0.0,0.0,0.0,0.0,0.0,0.0,0.0,0.0,0.0,0.0,0.0,0.0,0.0,0.0,0.0,0.0,0.0,0.0,0.0,0.0,0.0,0.0,0.0,0.0,0.0,0.0,0.0,0.0,0.0,0.0,0.0,0.0,0.0,0.0,0.0,0.0,0.0,0.0,0.0,0.0,0.0,0.0,0.0,0.0,0.0,0.0,0.0,0.0,0.0,0.0,0.0,0.0,0.0,0.0,0.0,0.0,0.0,0.0,0.0,0.0,0.0,0.0,0.0,0.0,0.0,0.0,0.0,0.0,0.0,0.0,0.0,0.0,0.0,0.0,0.0,0.0,0.0,0.0,0.0,0.0,0.0,0.0,0.0,0.0,0.0,0.0,-1.1315,-1.1499,-1.1495,0.0,0.0,0.0,0.0,0.0,0.0,0.0,0.0,0.0,0.0,0.0,0.0,0.0,0.0,0.0,0.0,0.0,0.0,0.0,0.0,0.0,0.0,0.0,0.0,0.0,0.0,0.0,0.0,0.0,0.0,0.0,0.0,0.0,0.0,0.0,0.0,0.0,0.0,0.0,0.0,0.0,0.0,0.0,0.0,0.0,0.0,0.0,0.0,0.0,0.0,0.0,0.0,0.0,0.0,0.0,0.0,0.0,0.0,0.0,0.0,0.0,0.0,0.0,0.0,0.0,0.0,0.0,0.0,0.0,0.0,0.0,0.0,0.0,0.0,0.0,0.0,0.0,0.0,0.0,0.0,0.0,0.0,0.0,0.0,0.0,0.0,0.0,0.0,0.0,0.0,0.0,0.0,0.0,0.0,0.0,0.0,0.0,0.0,0.0,0.0,0.0,0.0,0.0,0.0,0.0,0.0,0.0,0.0,0.0,0.0,-1.0859,0.0,-1.1454,-1.1549,-1.1477,-1.1368,0.0,0.0,0.0,0.0,0.0,0.0,0.0,0.0,0.0,0.0,0.0,0.0,0.0,0.0,0.0,0.0,0.0,0.0,0.0,0.0,0.0,0.0,0.0,0.0,0.0,0.0,0.0,0.0,0.0,0.0,0.0,0.0,0.0,0.0,0.0,0.0,0.0,0.0,0.0,0.0,0.0,0.0,0.0,0.0,0.0,0.0,0.0,0.0,0.0,0.0,0.0,0.0,0.0,0.0,0.0,0.0,0.0,0.0,0.0,0.0,0.0,0.0,0.0,0.0,0.0,0.0,0.0,0.0,0.0,0.0,0.0,0.0,0.0,0.0,0.0,0.0,0.0,0.0,0.0,0.0,0.0,0.0,0.0,0.0,0.0,0.0,0.0,0.0,0.0,0.0,0.0,0.0,0.0,0.0,0.0,0.0,0.0,0.0,0.0,0.0,0.0,0.0,0.0,0.0,0.0,0.0,0.0,0.0,0.0,-1.0764,-1.115,-1.1318,-1.1451,-1.1228,0.0,0.0,0.0,0.0,0.0,0.0,0.0,0.0,0.0,0.0,0.0,0.0,0.0,0.0,0.0,0.0,0.0,0.0,0.0,0.0,0.0,0.0,0.0,0.0,0.0,0.0,0.0,0.0,0.0,0.0,0.0,0.0,0.0,0.0,0.0,0.0,0.0,0.0,0.0,0.0,0.0,0.0,0.0,0.0,0.0,0.0,0.0,0.0,0.0,0.0,0.0,0.0,0.0,0.0,0.0,0.0,0.0,0.0,0.0,0.0,0.0,0.0,0.0,0.0,0.0,0.0,0.0,0.0,0.0,0.0,0.0,0.0,0.0,0.0,0.0,0.0,0.0,0.0,0.0,0.0,0.0,0.0,0.0,0.0,0.0,0.0,0.0,0.0,0.0,0.0,0.0,0.0,0.0,0.0,0.0,0.0,0.0,0.0,0.0,0.0,0.0,0.0,0.0,0.0,0.0,0.0,0.0,0.0,0.0,-1.0353,-1.1054,-1.1448,-1.1502,-1.1341,-1.1143,0.0,0.0,0.0,0.0,0.0,0.0,0.0,0.0,0.0,0.0,0.0,0.0,0.0,0.0,0.0,0.0,0.0,0.0,0.0,0.0,0.0,0.0,0.0,0.0,0.0,0.0,0.0,0.0,0.0,0.0,0.0,0.0,0.0,0.0,0.0,0.0,0.0,0.0,0.0,0.0,0.0,0.0,0.0,0.0,0.0,0.0,0.0,0.0,0.0,0.0,0.0,0.0,0.0,0.0,0.0,0.0,0.0,0.0,0.0,0.0,0.0,0.0,0.0,0.0,0.0,0.0,0.0,0.0,0.0,0.0,0.0,0.0,0.0,0.0,0.0,0.0,0.0,0.0,0.0,0.0,0.0,0.0,0.0,0.0,0.0,0.0,0.0,0.0,0.0,0.0,0.0,0.0,0.0,0.0,0.0,0.0,0.0,0.0,0.0,0.0,0.0,0.0,0.0,0.0,0.0,0.0,0.0,0.0,0.0,-1.0643,0.0,-1.1391,0.0,-1.1158,-1.0926,0.0,0.0,0.0,0.0,0.0,0.0,0.0,0.0,0.0,0.0,0.0,0.0,0.0,0.0,0.0,0.0,0.0,0.0,0.0,0.0,0.0,0.0,0.0,0.0,0.0,0.0,0.0,0.0,0.0,0.0,0.0,0.0,0.0,0.0,0.0,0.0,0.0,0.0,0.0,0.0,0.0,0.0,0.0,0.0,0.0,0.0,0.0,0.0,0.0,0.0,0.0,0.0,0.0,0.0,0.0,0.0,0.0,0.0,0.0,0.0,0.0,0.0,0.0,0.0,0.0,0.0,0.0,0.0,0.0,0.0,0.0,0.0,0.0,0.0,0.0,0.0,0.0,0.0,0.0,0.0,0.0,0.0,0.0,0.0,0.0,0.0,0.0,0.0,0.0,0.0,0.0,0.0,0.0,0.0,0.0,0.0,0.0,0.0,0.0,0.0,0.0,0.0,0.0,0.0,0.0,0.0,0.0,0.0,-1.0251,-1.0883,-1.0941,-1.0984,-1.0926,-1.0941,-1.0682,0.0,0.0,0.0,0.0,0.0,0.0,0.0,0.0,0.0,0.0,0.0,0.0,0.0,0.0,0.0,0.0,0.0,0.0,0.0,0.0,0.0,0.0,0.0,0.0,0.0,0.0,0.0,0.0,0.0,0.0,0.0,0.0,0.0,0.0,0.0,0.0,0.0,0.0,0.0,0.0,0.0,0.0,0.0,0.0,0.0,0.0,0.0,0.0,0.0,0.0,0.0,0.0,0.0,0.0,0.0,0.0,0.0,0.0,0.0,0.0,0.0,0.0,0.0,0.0,0.0,0.0,0.0,0.0,0.0,0.0,0.0,0.0,0.0,0.0,0.0,0.0,0.0,0.0,0.0,0.0,0.0,0.0,0.0,0.0,0.0,0.0,0.0,0.0,0.0,0.0,0.0,0.0,0.0,0.0,0.0,0.0,0.0,0.0,0.0,0.0,0.0,0.0,0.0,0.0,0.0,0.0,0.0,0.0,0.0,-1.0903,-1.1423,-1.153,-1.1261,-1.1209,-1.0948,0.0,0.0,0.0,0.0,0.0,0.0,0.0,0.0,0.0,0.0,0.0,0.0,0.0,0.0,0.0,0.0,0.0,0.0,0.0,0.0,0.0,0.0,0.0,0.0,0.0,0.0,0.0,0.0,0.0,0.0,0.0,0.0,0.0,0.0,0.0,0.0,0.0,0.0,0.0,0.0,0.0,0.0,0.0,0.0,0.0,0.0,0.0,0.0,0.0,0.0,0.0,0.0,0.0,0.0,0.0,0.0,0.0,0.0,0.0,0.0,0.0,0.0,0.0,0.0,0.0,0.0,0.0,0.0,0.0,0.0,0.0,0.0,0.0,0.0,0.0,0.0,0.0,0.0,0.0,0.0,0.0,0.0,0.0,0.0,0.0,0.0,0.0,0.0,0.0,0.0,0.0,0.0,0.0,0.0,0.0,0.0,0.0,0.0,0.0,0.0,0.0,0.0,0.0,0.0,0.0,0.0,0.0,0.0,0.0,-1.1294,-1.1701,-1.179,-1.154,-1.1323,-1.0886,-1.0354,0.0,0.0,0.0,0.0,0.0,0.0,0.0,0.0,0.0,0.0,0.0,0.0,0.0,0.0,0.0,0.0,0.0,0.0,0.0,0.0,0.0,0.0,0.0,0.0,0.0,0.0,0.0,0.0,0.0,0.0,0.0,0.0,0.0,0.0,0.0,0.0,0.0,0.0,0.0,0.0,0.0,0.0,0.0,0.0,0.0,0.0,0.0,0.0,0.0,0.0,0.0,0.0,0.0,0.0,0.0,0.0,0.0,0.0,0.0,0.0,0.0,0.0,0.0,0.0,0.0,0.0,0.0,0.0,0.0,0.0,0.0,0.0,0.0,0.0,0.0,0.0,0.0,0.0,0.0,0.0,0.0,0.0,0.0,0.0,0.0,0.0,0.0,0.0,0.0,0.0,0.0,0.0,0.0,0.0,0.0,0.0,0.0,0.0,0.0,0.0,0.0,0.0,0.0,0.0,0.0,0.0,0.0,0.0,-1.1993,-1.1824,-1.1768,-1.1733,-1.1337,-1.0767,0.0,0.0,0.0,0.0,0.0,0.0,0.0,0.0,0.0,0.0,0.0,0.0,0.0,0.0,0.0,0.0,0.0,0.0,0.0,0.0,0.0,0.0,0.0,0.0,0.0,0.0,0.0,0.0,0.0,0.0,0.0,0.0,0.0,0.0,0.0,0.0,0.0,0.0,0.0,0.0,0.0,0.0,0.0,0.0,0.0,0.0,0.0,0.0,0.0,0.0,0.0,0.0,0.0,0.0,0.0,0.0,0.0,0.0,0.0,0.0,0.0,0.0,0.0,0.0,0.0,0.0,0.0,0.0,0.0,0.0,0.0,0.0,0.0,0.0,0.0,0.0,0.0,0.0,0.0,0.0,0.0,0.0,0.0,0.0,0.0,0.0,0.0,0.0,0.0,0.0,0.0,0.0,0.0,0.0,0.0,0.0,0.0,0.0,0.0,0.0,0.0,0.0,0.0,0.0,0.0,0.0,0.0,0.0,0.0,-1.2281,-1.2221,-1.2137,-1.1944,-1.1809,-1.1364,0.0,0.0,0.0,0.0,0.0,0.0,0.0,0.0,0.0,0.0,0.0,0.0,0.0,0.0,0.0,0.0,0.0,0.0,0.0,0.0,0.0,0.0,0.0,0.0,0.0,0.0,0.0,0.0,0.0,0.0,0.0,0.0,0.0,0.0,0.0,0.0,0.0,0.0,0.0,0.0,0.0,0.0,0.0,0.0,0.0,0.0,0.0,0.0,0.0,0.0,0.0,0.0,0.0,0.0,0.0,0.0,0.0,0.0,0.0,0.0,0.0,0.0,0.0,0.0,0.0,0.0,0.0,0.0,0.0,0.0,0.0,0.0,0.0,0.0,0.0,0.0,0.0,0.0,0.0,0.0,0.0,0.0,0.0,0.0,0.0,0.0,0.0,0.0,0.0,0.0,0.0,0.0,0.0,0.0,0.0,0.0,0.0,0.0,0.0,0.0,0.0,0.0,0.0,0.0,0.0,0.0,0.0,0.0,-1.2352,-1.2845,-1.2867,-1.278,-1.2494,-1.1947,-1.142,0.0,0.0,0.0,0.0,0.0,0.0,0.0,0.0,0.0,0.0,0.0,0.0,0.0,0.0,0.0,0.0,0.0,0.0,0.0,0.0,0.0,0.0,0.0,0.0,0.0,0.0,0.0,0.0,0.0,0.0,0.0,0.0,0.0,0.0,0.0,0.0,0.0,0.0,0.0,0.0,0.0,0.0,0.0,0.0,0.0,0.0,0.0,0.0,0.0,0.0,0.0,0.0,0.0,0.0,0.0,0.0,0.0,0.0,0.0,0.0,0.0,0.0,0.0,0.0,0.0,0.0,0.0,0.0,0.0,0.0,0.0,0.0,0.0,0.0,0.0,0.0,0.0,0.0,0.0,0.0,0.0,0.0,0.0,0.0,0.0,0.0,0.0,0.0,0.0,0.0,0.0,0.0,0.0,0.0,0.0,0.0,0.0,0.0,0.0,0.0,0.0,0.0,0.0,0.0,0.0,0.0,0.0,0.0,-1.2745,-1.3416,-1.347,-1.3373,-1.3136,-1.2088,-1.1303,0.0,0.0,0.0,0.0,0.0,0.0,0.0,0.0,0.0,0.0,0.0,0.0,0.0,0.0,0.0,0.0,0.0,0.0,0.0,0.0,0.0,0.0,0.0,0.0,0.0,0.0,0.0,0.0,0.0,0.0,0.0,0.0,0.0,0.0,0.0,0.0,0.0,0.0,0.0,0.0,0.0,0.0,0.0,0.0,0.0,0.0,0.0,0.0,0.0,0.0,0.0,0.0,0.0,0.0,0.0,0.0,0.0,0.0,0.0,0.0,0.0,0.0,0.0,0.0,0.0,0.0,0.0,0.0,0.0,0.0,0.0,0.0,0.0,0.0,0.0,0.0,0.0,0.0,0.0,0.0,0.0,0.0,0.0,0.0,0.0,0.0,0.0,0.0,0.0,0.0,0.0,0.0,0.0,0.0,0.0,0.0,0.0,0.0,0.0,0.0,0.0,0.0,0.0,0.0,0.0,0.0,0.0,0.0,-1.2889,-1.3179,-1.3373,-1.3356,-1.3201,-1.2541,-1.2013,0.0,0.0,0.0,0.0,0.0,0.0,0.0,0.0,0.0,0.0,0.0,0.0,0.0,0.0,0.0,0.0,0.0,0.0,0.0,0.0,0.0,0.0,0.0,0.0,0.0,0.0,0.0,0.0,0.0,0.0,0.0,0.0,0.0,0.0,0.0,0.0,0.0,0.0,0.0,0.0,0.0,0.0,0.0,0.0,0.0,0.0,0.0,0.0,-1.3414,0.0,0.0,0.0,0.0,0.0,0.0,0.0,0.0,0.0,0.0,0.0,0.0,0.0,0.0,0.0,0.0,0.0,0.0,0.0,0.0,0.0,0.0,0.0,0.0,0.0,0.0,0.0,0.0,0.0,0.0,0.0,0.0,0.0,0.0,0.0,0.0,0.0,0.0,0.0,0.0,0.0,0.0,0.0,0.0,0.0,0.0,0.0,0.0,0.0,0.0,0.0,0.0,0.0,0.0,0.0,0.0,0.0,0.0,0.0,-1.2957,-1.3392,-1.3425,-1.3456,-1.3674,-1.2791,-1.2221,0.0,0.0,0.0,0.0,0.0,0.0,0.0,0.0,0.0,0.0,0.0,0.0,0.0,0.0,0.0,0.0,0.0,0.0,0.0,0.0,0.0,0.0,0.0,0.0,0.0,0.0,0.0,0.0,0.0,0.0,0.0,0.0,0.0,0.0,0.0,0.0,0.0,0.0,0.0,0.0,0.0,0.0,0.0,0.0,0.0,0.0,0.0,0.0,0.0,0.0,0.0,0.0,0.0,0.0,0.0,0.0,0.0,0.0,0.0,0.0,0.0,0.0,0.0,0.0,0.0,0.0,0.0,0.0,0.0,0.0,0.0,0.0,0.0,0.0,0.0,0.0,0.0,0.0,0.0,0.0,0.0,0.0,0.0,0.0,0.0,0.0,0.0,0.0,0.0,0.0,0.0,0.0,0.0,0.0,0.0,0.0,0.0,0.0,0.0,0.0,0.0,0.0,0.0,0.0,0.0,0.0,0.0,-1.2636,-1.3111,-1.3557,-1.3403,-1.3567,-1.406,-1.2944,-1.1993,-1.1528,0.0,0.0,0.0,0.0,0.0,0.0,0.0,0.0,0.0,0.0,0.0,0.0,0.0,0.0,0.0,0.0,0.0,0.0,0.0,0.0,0.0,0.0,0.0,0.0,0.0,0.0,0.0,0.0,0.0,0.0,0.0,0.0,0.0,0.0,0.0,0.0,0.0,0.0,-1.0945,-1.1347,0.0,0.0,0.0,0.0,0.0,0.0,0.0,0.0,-1.4519,0.0,0.0,0.0,0.0,0.0,0.0,0.0,0.0,0.0,0.0,0.0,0.0,0.0,0.0,0.0,0.0,0.0,0.0,0.0,0.0,0.0,0.0,0.0,0.0,0.0,0.0,0.0,0.0,0.0,0.0,0.0,0.0,0.0,0.0,0.0,0.0,0.0,0.0,0.0,0.0,0.0,0.0,0.0,0.0,0.0,0.0,0.0,0.0,0.0,0.0,0.0,0.0,0.0,0.0,0.0,0.0,-1.1733,-1.2756,-1.3236,-1.3138,-1.3214,-1.3315,-1.3413,-1.2539,-1.1559,-1.029,0.0,0.0,0.0,0.0,0.0,0.0,0.0,0.0,0.0,0.0,0.0,0.0,0.0,0.0,0.0,0.0,0.0,0.0,0.0,0.0,0.0,0.0,0.0,0.0,0.0,0.0,0.0,0.0,0.0,0.0,0.0,0.0,0.0,0.0,0.0,0.0,0.0,0.0,0.0,-1.162,-1.1899,0.0,0.0,0.0,0.0,0.0,0.0,0.0,0.0,-1.5231,0.0,0.0,0.0,0.0,0.0,0.0,0.0,0.0,0.0,0.0,0.0,0.0,0.0,0.0,0.0,0.0,0.0,0.0,0.0,0.0,0.0,0.0,0.0,0.0,0.0,0.0,0.0,0.0,0.0,0.0,0.0,0.0,0.0,0.0,0.0,0.0,0.0,0.0,0.0,0.0,0.0,0.0,0.0,0.0,0.0,0.0,0.0,0.0,0.0,0.0,0.0,0.0,0.0,0.0,0.0,-1.2203,-1.2679,-1.2911,-1.2705,-1.2606,-1.2564,-1.2246,-1.1611,-1.0681,0.0,0.0,0.0,0.0,0.0,0.0,0.0,0.0,0.0,0.0,0.0,0.0,0.0,0.0,0.0,0.0,0.0,0.0,0.0,0.0,0.0,0.0,0.0,0.0,0.0,0.0,0.0,0.0,0.0,0.0,0.0,0.0,0.0,0.0,0.0,0.0,0.0,0.0,0.0,0.0,-1.2018,-1.2346,-1.2565,0.0,0.0,0.0,0.0,0.0,0.0,-1.5072,-1.5116,0.0,0.0,0.0,0.0,0.0,0.0,0.0,0.0,0.0,0.0,0.0,0.0,0.0,0.0,0.0,0.0,0.0,0.0,0.0,0.0,0.0,0.0,0.0,0.0,0.0,0.0,0.0,0.0,0.0,0.0,0.0,0.0,0.0,0.0,0.0,0.0,0.0,0.0,0.0,0.0,0.0,0.0,0.0,0.0,0.0,0.0,0.0,0.0,0.0,0.0,0.0,0.0,0.0,0.0,0.0,-1.2594,-1.2565,-1.2491,-1.2384,-1.2064,-1.1625,-1.1186,-1.065,-0.9848,0.0,0.0,0.0,0.0,0.0,0.0,0.0,0.0,0.0,0.0,0.0,0.0,0.0,0.0,0.0,0.0,0.0,0.0,0.0,0.0,0.0,0.0,0.0,0.0,0.0,0.0,0.0,0.0,0.0,0.0,0.0,0.0,0.0,0.0,0.0,0.0,0.0,0.0,0.0,0.0,0.0,-1.2757,-1.3249,-1.3435,0.0,0.0,0.0,0.0,-1.4634,-1.487,0.0,0.0,0.0,0.0,0.0,0.0,0.0,0.0,0.0,0.0,0.0,0.0,0.0,0.0,0.0,0.0,0.0,0.0,0.0,0.0,0.0,0.0,0.0,0.0,0.0,0.0,0.0,0.0,0.0,0.0,0.0,0.0,0.0,0.0,0.0,0.0,0.0,0.0,0.0,0.0,0.0,0.0,0.0,0.0,0.0,0.0,0.0,0.0,0.0,0.0,0.0,0.0,0.0,0.0,0.0,0.0,-1.2214,-1.2588,-1.2562,-1.2274,-1.1724,-1.1268,-1.0811,-1.0185,-0.9352,0.0,0.0,0.0,0.0,0.0,0.0,0.0,0.0,0.0,0.0,0.0,0.0,0.0,0.0,0.0,0.0,0.0,0.0,0.0,0.0,0.0,0.0,0.0,0.0,0.0,0.0,0.0,0.0,0.0,0.0,0.0,0.0,0.0,0.0,0.0,0.0,0.0,0.0,0.0,0.0,0.0,-1.2843,-1.344,-1.3799,-1.413,0.0,0.0,-1.511,-1.4904,-1.5074,0.0,0.0,0.0,0.0,0.0,0.0,0.0,0.0,0.0,0.0,0.0,0.0,0.0,0.0,0.0,0.0,0.0,0.0,0.0,0.0,0.0,0.0,0.0,0.0,0.0,0.0,0.0,0.0,0.0,0.0,0.0,0.0,0.0,0.0,0.0,0.0,0.0,0.0,0.0,0.0,0.0,0.0,0.0,0.0,0.0,0.0,0.0,0.0,0.0,0.0,0.0,0.0,0.0,0.0,0.0,-1.1612,-1.1977,-1.2159,-1.197,-1.1526,-1.0948,-1.0379,-0.9829,-0.9342,-0.8535,0.0,0.0,0.0,0.0,0.0,0.0,0.0,0.0,0.0,0.0,0.0,0.0,0.0,0.0,0.0,0.0,0.0,0.0,0.0,0.0,0.0,0.0,0.0,0.0,0.0,0.0,0.0,0.0,0.0,0.0,0.0,0.0,0.0,0.0,0.0,0.0,0.0,0.0,0.0,0.0,0.0,0.0,-1.4123,-1.4522,0.0,0.0,0.0,-1.5109,-1.4985,0.0,0.0,0.0,0.0,0.0,0.0,0.0,0.0,0.0,0.0,0.0,0.0,0.0,0.0,0.0,0.0,0.0,0.0,0.0,0.0,0.0,0.0,0.0,0.0,0.0,0.0,0.0,0.0,0.0,0.0,0.0,0.0,0.0,0.0,0.0,0.0,0.0,0.0,0.0,0.0,0.0,0.0,0.0,0.0,0.0,0.0,0.0,0.0,0.0,0.0,0.0,0.0,0.0,0.0,0.0,0.0,0.0,-1.1775,-1.1702,-1.1475,-1.0866,-1.0301,-0.9708,-0.9097,-0.8613,0.0,0.0,0.0,0.0,0.0,0.0,0.0,0.0,0.0,0.0,0.0,0.0,0.0,0.0,0.0,0.0,0.0,0.0,0.0,0.0,0.0,0.0,0.0,0.0,0.0,0.0,0.0,-0.8525,0.0,0.0,0.0,0.0,0.0,0.0,0.0,0.0,0.0,0.0,0.0,0.0,0.0,0.0,-1.422,-1.4835,-1.5137,-1.533,0.0,0.0,-1.5487,-1.5415,-1.5342,-1.5149,0.0,0.0,0.0,0.0,0.0,0.0,0.0,0.0,0.0,0.0,0.0,0.0,0.0,0.0,0.0,0.0,0.0,0.0,0.0,0.0,0.0,0.0,0.0,0.0,0.0,0.0,0.0,0.0,0.0,0.0,0.0,0.0,0.0,0.0,0.0,0.0,0.0,0.0,0.0,0.0,0.0,0.0,0.0,0.0,0.0,0.0,0.0,0.0,0.0,0.0,0.0,0.0,0.0,0.0,0.0,-1.1566,-1.1372,-1.1041,-1.0517,-0.9933,-0.9392,-0.8891,-0.8184,-0.7645,0.0,0.0,0.0,0.0,0.0,0.0,0.0,0.0,0.0,0.0,0.0,0.0,0.0,0.0,0.0,0.0,0.0,0.0,0.0,0.0,0.0,0.0,0.0,0.0,0.0,0.0,0.0,0.0,0.0,0.0,0.0,0.0,0.0,0.0,0.0,0.0,0.0,0.0,0.0,0.0,0.0,-1.4558,-1.5342,-1.5668,-1.5922,0.0,0.0,-1.6513,-1.6235,-1.5994,-1.5753,-1.5463,0.0,0.0,0.0,0.0,0.0,0.0,0.0,0.0,0.0,0.0,0.0,0.0,0.0,0.0,0.0,0.0,0.0,0.0,0.0,0.0,0.0,0.0,0.0,0.0,0.0,0.0,0.0,0.0,0.0,0.0,0.0,0.0,0.0,0.0,0.0,0.0,0.0,0.0,0.0,0.0,0.0,0.0,0.0,0.0,0.0,0.0,0.0,0.0,0.0,0.0,0.0,0.0,0.0,-1.0281,-1.0683,-1.0439,-1.015,-0.9598,-0.9086,-0.8708,-0.8455,-0.7974,-0.7444,0.0,0.0,0.0,0.0,0.0,0.0,0.0,0.0,0.0,0.0,0.0,0.0,0.0,0.0,0.0,0.0,0.0,0.0,0.0,0.0,0.0,0.0,0.0,0.0,0.0,0.0,0.0,0.0,-0.8928,-0.9175,-0.9376,0.0,0.0,0.0,0.0,0.0,0.0,0.0,0.0,0.0,0.0,-1.5209,-1.568,-1.6115,0.0,0.0,-1.6634,-1.667,-1.6549,-1.6453,-1.6296,-1.6018,-1.5688,0.0,0.0,0.0,0.0,0.0,0.0,0.0,0.0,0.0,0.0,0.0,0.0,0.0,0.0,0.0,0.0,0.0,0.0,0.0,0.0,0.0,0.0,0.0,0.0,0.0,0.0,0.0,0.0,0.0,0.0,0.0,0.0,0.0,0.0,0.0,0.0,0.0,0.0,0.0,0.0,0.0,0.0,0.0,0.0,0.0,0.0,0.0,0.0,0.0,0.0,0.0,0.0,-0.948,-0.9765,-0.968,-0.9347,-0.8883,-0.8616,-0.8238,-0.7993,-0.7633,-0.7132,0.0,0.0,0.0,0.0,0.0,0.0,0.0,0.0,0.0,0.0,0.0,0.0,0.0,0.0,0.0,0.0,0.0,0.0,0.0,0.0,0.0,0.0,0.0,0.0,0.0,0.0,0.0,0.0,-0.9283,-0.9474,-0.9582,0.0,0.0,0.0,0.0,0.0,0.0,0.0,0.0,0.0,0.0,-1.5779,-1.6308,-1.6694,-1.6996,-1.7153,-1.7177,-1.7177,-1.7177,-1.7105,-1.6984,-1.6678,0.0,0.0,0.0,0.0,0.0,0.0,0.0,0.0,0.0,0.0,0.0,0.0,0.0,0.0,0.0,0.0,0.0,0.0,0.0,0.0,0.0,0.0,0.0,0.0,0.0,0.0,0.0,0.0,0.0,0.0,-0.6364,0.0,0.0,0.0,0.0,0.0,0.0,0.0,0.0,0.0,0.0,0.0,0.0,0.0,0.0,0.0,0.0,0.0,0.0,0.0,0.0,0.0,0.0,-0.8797,-0.903,-0.911,-0.8897,-0.8534,-0.8545,-0.8116,-0.751,-0.7271,-0.6935,-0.627,0.0,0.0,0.0,0.0,0.0,0.0,0.0,0.0,0.0,0.0,0.0,0.0,0.0,0.0,0.0,0.0,0.0,0.0,0.0,0.0,0.0,0.0,0.0,0.0,0.0,0.0,-0.9512,-0.9793,-0.9915,0.0,0.0,0.0,0.0,0.0,0.0,0.0,0.0,0.0,0.0,-1.5612,-1.6227,-1.7322,-1.7455,-1.766,-1.8167,-1.8251,-1.8251,-1.8251,-1.8022,-1.7733,0.0,0.0,0.0,0.0,0.0,0.0,0.0,0.0,0.0,0.0,0.0,0.0,0.0,0.0,0.0,0.0,0.0,0.0,0.0,0.0,0.0,0.0,0.0,0.0,0.0,0.0,0.0,-0.7609,-0.7324,0.0,0.0,0.0,0.0,0.0,0.0,0.0,0.0,0.0,0.0,0.0,-0.7017,-0.6378,0.0,0.0,0.0,0.0,0.0,0.0,0.0,0.0,0.0,0.0,0.0,0.0,-0.7838,-0.8373,-0.8049,-0.7846,-0.7653,-0.7663,-0.7481,-0.7122,-0.7021,-0.6631,-0.5845,0.0,0.0,0.0,0.0,0.0,0.0,0.0,0.0,0.0,0.0,0.0,0.0,0.0,0.0,0.0,0.0,0.0,0.0,0.0,0.0,0.0,0.0,0.0,0.0,0.0,-0.9722,0.0,0.0,0.0,0.0,0.0,0.0,0.0,0.0,0.0,0.0,0.0,-1.4639,-1.5557,-1.6115,-1.6632,-1.7005,-1.7329,-1.7596,0.0,0.0,0.0,0.0,0.0,0.0,0.0,0.0,0.0,0.0,0.0,0.0,0.0,0.0,-1.2748,-1.2548,-1.2427,-1.2113,-1.1803,0.0,0.0,0.0,0.0,0.0,0.0,0.0,0.0,0.0,0.0,0.0,0.0,0.0,0.0,-0.7944,0.0,-0.7399,0.0,0.0,0.0,0.0,0.0,0.0,0.0,0.0,-0.7138,-0.6965,-0.6768,-0.6076,-0.571,0.0,-0.4613,-0.4647,0.0,0.0,0.0,0.0,0.0,0.0,0.0,0.0,-0.6647,-0.7291,-0.7142,-0.6869,-0.6868,-0.6873,-0.6841,-0.6646,-0.6367,-0.5852,-0.5234,-0.4837,-0.4418,0.0,0.0,0.0,0.0,0.0,0.0,0.0,0.0,0.0,0.0,0.0,0.0,0.0,0.0,0.0,0.0,0.0,0.0,0.0,0.0,0.0,0.0,0.0,-1.0055,0.0,0.0,0.0,0.0,0.0,0.0,0.0,0.0,0.0,-1.3004,-1.3891,-1.4708,-1.5654,-1.6286,-1.673,-1.7055,0.0,0.0,0.0,0.0,0.0,0.0,0.0,-1.8829,-1.8438,-1.8041,-1.7152,-1.5844,-1.4568,-1.3717,-1.3587,0.0,0.0,-1.275,-1.2557,-1.2307,-1.209,-1.2355,-1.2632,-1.2355,-1.2513,-1.2586,0.0,0.0,0.0,0.0,0.0,0.0,0.0,0.0,-0.8552,-0.8313,0.0,-0.7931,0.0,0.0,0.0,0.0,0.0,-0.6725,0.0,0.0,-0.6794,-0.6598,-0.6432,-0.6059,-0.5515,-0.4697,-0.4133,-0.3852,-0.373,-0.3795,0.0,0.0,0.0,0.0,0.0,0.0,-0.5384,-0.5926,-0.6098,-0.6321,-0.6321,-0.6325,-0.6189,-0.5781,-0.5175,-0.4831,-0.4613,-0.4231,-0.406,-0.4365,-0.419,0.0,0.0,0.0,0.0,0.0,0.0,0.0,0.0,0.0,0.0,0.0,0.0,0.0,0.0,0.0,0.0,0.0,0.0,0.0,0.0,-1.0503,0.0,0.0,0.0,0.0,0.0,0.0,0.0,0.0,0.0,0.0,-1.2918,-1.3725,-1.4626,-1.555,0.0,0.0,0.0,0.0,-1.7198,-1.7556,-1.7879,-1.8306,-1.8575,-1.8721,-1.8721,-1.8306,0.0,0.0,-1.531,-1.4362,-1.3821,-1.3538,-1.3254,-1.3046,-1.2624,-1.2568,-1.2535,-1.2293,-1.2559,-1.2862,-1.2792,-1.2808,-1.2872,-0.8978,0.0,0.0,0.0,0.0,-0.8752,-0.8557,-0.8469,-0.8553,-0.828,-0.7944,-0.7828,0.0,0.0,0.0,0.0,0.0,0.0,-0.7,-0.7107,-0.6788,-0.6444,-0.6337,-0.5284,-0.4616,-0.4333,-0.3395,-0.3112,-0.3213,-0.2864,-0.2515,-0.2292,0.0,0.0,0.0,0.0,-0.4671,-0.5328,-0.5294,-0.5345,-0.5615,-0.5669,-0.5644,-0.5398,-0.5052,-0.478,-0.4473,-0.4357,-0.4199,-0.3808,-0.4311,0.0,0.0,0.0,0.0,0.0,0.0,0.0,0.0,0.0,0.0,0.0,0.0,0.0,0.0,0.0,0.0,0.0,0.0,0.0,-1.0964,-1.092,-1.0922,0.0,0.0,0.0,0.0,0.0,0.0,0.0,0.0,0.0,-1.2316,-1.3358,-1.4295,0.0,0.0,-1.5711,-1.6037,-1.6089,-1.6442,-1.6927,-1.7378,0.0,0.0,-1.8724,-1.8866,-1.8439,-1.7438,-1.629,-1.5136,-1.4566,-1.4276,-1.4123,-1.3985,-1.379,-1.33,-1.2986,-1.2701,-1.2419,-1.2417,-1.2545,-1.2344,-1.2484,-1.2879,-0.9523,-0.931,-0.9171,-0.9029,-0.8862,-0.894,-0.8806,-0.8633,-0.8569,-0.8288,-0.7813,-0.7573,-0.7098,-0.6645,-0.607,0.0,0.0,0.0,-0.6689,-0.6614,-0.6266,-0.5877,-0.5604,-0.4649,-0.4103,-0.3691,-0.2984,-0.2702,-0.2704,-0.2278,-0.2099,-0.2154,0.0,0.0,-0.3608,-0.3512,-0.3699,-0.4454,-0.4357,-0.4376,-0.4786,-0.4937,-0.503,-0.4784,-0.474,-0.4496,-0.4438,-0.4375,-0.4344,-0.4369,-0.4736,-0.5265,0.0,0.0,0.0,0.0,0.0,0.0,0.0,0.0,0.0,0.0,0.0,-1.1433,0.0,0.0,0.0,0.0,-1.1798,-1.1746,-1.188,-1.1703,0.0,0.0,0.0,0.0,0.0,0.0,0.0,-1.101,-1.1034,-1.1205,-1.184,-1.2887,-1.3663,-1.4144,-1.4662,-1.5108,-1.5238,0.0,-1.5703,-1.6252,-1.6817,-1.7524,-1.7935,-1.8258,-1.8404,-1.8112,-1.694,-1.5919,-1.5328,-1.4728,-1.4432,-1.4416,-1.4351,-1.4131,-1.3699,-1.3405,-1.3003,-1.2612,-1.2528,-1.2474,-1.2403,-1.2632,-1.2856,-1.0074,-1.0025,-0.9584,-0.9329,-0.9209,-0.9193,-0.9128,-0.8884,-0.8594,-0.8163,-0.7864,-0.7355,-0.676,-0.6206,-0.6069,0.0,-0.5663,-0.5876,-0.5912,-0.5634,-0.5501,-0.5219,-0.451,-0.4366,-0.3801,-0.2817,-0.2811,-0.2527,-0.2248,-0.2245,-0.2248,-0.2249,-0.2168,-0.2289,-0.2619,-0.2621,-0.2776,-0.3229,-0.3233,-0.3373,-0.3932,-0.4292,-0.4373,-0.4316,-0.4196,-0.4206,-0.4462,-0.4504,-0.4725,-0.5418,-0.5493,-0.576,-0.6422,0.0,0.0,0.0,0.0,0.0,0.0,0.0,0.0,0.0,0.0,0.0,0.0,0.0,0.0,0.0,-1.2903,0.0,-1.2989,-1.2515,0.0,0.0,0.0,-1.1114,-1.1103,-1.0922,-1.0848,-1.1157,0.0,0.0,-1.1599,-1.2223,-1.2963,-1.3636,-1.4024,-1.4517,-1.4785,-1.4941,-1.5032,-1.5485,-1.6232,-1.6831,-1.7173,-1.7615,-1.7772,-1.732,-1.6407,-1.5694,-1.5545,-1.4943,-1.4481,-1.4497,-1.4481,-1.4332,-1.3893,-1.3721,-1.3496,-1.275,-1.2669,-1.2698,-1.2809,-1.2846,-1.3029,-1.0514,-1.0416,-1.0302,-1.0085,-0.9807,-0.9709,-0.9655,-0.9617,-0.9091,-0.8563,-0.8188,-0.7729,-0.7246,-0.6614,-0.6324,-0.618,-0.5897,-0.597,-0.5859,-0.572,-0.5182,-0.4909,-0.4609,-0.3829,-0.3225,-0.2929,-0.2589,-0.2422,-0.2279,-0.2256,-0.2268,-0.2308,-0.229,-0.2277,-0.227,-0.227,-0.2415,-0.2561,-0.2587,-0.302,-0.3985,-0.4313,-0.4527,-0.4783,-0.4657,-0.481,-0.4976,-0.5346,-0.5581,-0.5684,-0.6166,-0.6664,-0.7322,-0.7327,0.0,0.0,0.0,0.0,0.0,0.0,0.0,0.0,0.0,-1.3098,-1.38,0.0,-1.4038,0.0,-1.348,-1.3257,-1.3393,-1.2856,0.0,0.0,-1.1662,-1.1232,-1.1293,-1.1242,-1.107,-1.1087,-1.1246,-1.1563,-1.1932,-1.21,-1.2367,-1.2882,-1.3529,-1.4016,-1.4024,-1.4375,-1.4778,-1.5201,-1.5535,-1.5887,-1.6766,-1.7275,-1.7265,-1.6679,-1.6215,-1.5911,-1.5303,-1.499,-1.4838,-1.4838,-1.4541,-1.4236,-1.377,-1.3472,-1.3137,-1.2595,-1.2564,-1.2557,-1.2296,-1.2452,-1.2763,-1.0693,-1.0802,-1.0802,-1.0683,-1.0476,-1.0144,-0.997,-0.9916,-0.9244,-0.8697,-0.844,-0.7796,-0.7306,-0.6969,-0.667,-0.6223,-0.5635,-0.567,-0.554,-0.5095,-0.4678,-0.4391,-0.3937,-0.331,-0.2849,-0.2698,-0.2513,-0.235,-0.2349,-0.2333,-0.2341,-0.2372,-0.2077,-0.1927,-0.1777,-0.1767,-0.1909,-0.2054,-0.2499,-0.3225,-0.4073,-0.454,-0.4884,-0.5263,-0.5232,-0.5363,-0.554,-0.5886,-0.6241,-0.6381,-0.6803,-0.7117,-0.7691,-0.7926,-0.8415,0.0,0.0,0.0,0.0,0.0,0.0,0.0,0.0,0.0,0.0,0.0,-1.4339,-1.4229,-1.3992,-1.3901,-1.4103,-1.3508,-1.311,-1.2714,-1.2088,-1.1709,-1.149,-1.1516,-1.1409,-1.1205,-1.1295,-1.1547,-1.1841,-1.1868,-1.2038,-1.2546,-1.3166,-1.3597,-1.3687,-1.4018,-1.4557,-1.5101,-1.5269,-1.5607,-1.6492,-1.6662,-1.6662,-1.6357,-1.605,-1.5744,-1.5275,-1.5122,-1.4968,-1.4968,-1.4814,-1.4515,-1.3891,-1.3583,-1.312,-1.2635,-1.2525,-1.2422,-1.2257,-1.2409,-1.2712,-1.0631,-1.095,-1.095,-1.094,-1.0891,-1.0372,-1.0083,-0.9955,-0.9144,-0.8613,-0.8365,-0.7659,-0.7313,-0.7317,-0.669,-0.5926,-0.4864,-0.5167,-0.4864,-0.4107,-0.4107,-0.3651,-0.3045,-0.2888,-0.2733,-0.2429,-0.2425,-0.2424,-0.2272,-0.2424,-0.2425,-0.2429,-0.1974,-0.1681,-0.139,-0.153,-0.1672,-0.1821,-0.2999,-0.3875,-0.4168,-0.4939,-0.5412,-0.5758,-0.5945,-0.6039,-0.6198,-0.6424,-0.6785,-0.7286,-0.7266,-0.7525,-0.7899,-0.845,-0.9178,0.0,-1.0826,0.0,0.0,0.0,0.0,0.0,0.0,0.0,0.0,-1.4259,-1.44,-1.439,-1.458,-1.4749,-1.477,-1.4363,-1.3857,-1.33,-1.2804,-1.2357,-1.1804,-1.1803,-1.1797,-1.1502,-1.1528,-1.1598,-1.1747,-1.176,-1.1965,-1.2535,-1.3028,-1.3288,-1.3479,-1.3976,-1.4491,-1.4814,-1.5275,-1.5727,-1.605,-1.6203,-1.6212,-1.605,-1.5897,-1.5599,-1.5479,-1.5171,-1.5009,-1.5041,-1.5065,-1.4748,-1.3959,-1.3656,-1.3501,-1.2738,-1.2569,-1.2542,-1.2494,-1.2628,-1.2811,-1.018,-1.0194,-1.0194,-1.014,-0.9874,-0.9777,-0.9963,-0.9932,-0.894,-0.8054,-0.7389,-0.7152,-0.7279,-0.7437,-0.642,-0.5145,-0.4053,-0.4366,-0.4366,-0.3899,-0.343,-0.3274,-0.3116,-0.278,-0.2614,-0.2459,-0.2436,-0.2424,-0.2424,-0.2424,-0.2436,-0.2461,-0.2461,-0.2321,-0.2348,0.0,0.0,0.0,-0.3797,-0.4376,-0.4826,-0.5733,-0.6342,-0.6544,-0.6777,0.0,-0.7215,-0.7428,-0.7611,-0.7628,-0.7786,0.0,0.0,0.0,0.0,0.0,0.0,0.0,0.0,0.0,0.0,0.0,-1.3474,-1.4024,-1.4858,-1.5302,-1.5523,-1.5523,-1.5445,-1.5316,-1.5439,-1.4861,-1.4182,-1.3709,-1.3221,-1.2685,-1.2107,-1.2115,-1.2105,-1.1785,-1.1901,-1.203,-1.2146,-1.2198,-1.2357,-1.2847,-1.3186,-1.3483,-1.3605,-1.373,-1.406,-1.4515,-1.5154,-1.559,-1.5744,-1.5914,-1.6094,-1.5744,-1.5744,-1.5496,-1.531,-1.5187,-1.5252,-1.5358,-1.509,-1.4766,-1.4124,-1.3814,-1.3483,-1.3027,-1.2868,-1.28,-1.2556,-1.2811,-1.312,-0.9992,0.0,-1.003,-0.9969,0.0,-0.9642,-0.9389,-0.9279,-0.891,-0.8107,-0.7203,-0.696,-0.677,-0.6777,-0.5928,-0.4793,-0.3835,-0.3971,-0.3803,-0.3484,-0.3147,-0.2982,-0.2826,-0.2654,-0.2492,-0.2491,-0.2476,-0.2469,-0.2469,-0.2469,-0.2477,-0.2492,-0.2646,-0.281,-0.2826,-0.3613,-0.4075,-0.4204,-0.4458,-0.5024,-0.5748,-0.6385,-0.699,-0.7425,0.0,0.0,0.0,0.0,0.0,0.0,0.0,0.0,0.0,0.0,0.0,-1.1162,-1.1985,-1.2407,-1.2674,-1.3427,-1.3766,-1.3475,-1.4048,-1.4567,-1.509,-1.5517,-1.5682,-1.5654,-1.5663,-1.5653,-1.5542,-1.5113,-1.4583,-1.3833,-1.3435,-1.3013,-1.2416,-1.2259,-1.2096,-1.1754,-1.1842,-1.1918,-1.1987,-1.2154,-1.2475,-1.2963,-1.3116,-1.3276,-1.3422,-1.362,-1.414,-1.4618,-1.5088,-1.5549,-1.5557,-1.5713,-1.5861,-1.5557,-1.5557,-1.5433,-1.5358,-1.5374,-1.5415,-1.5496,-1.5353,-1.5034,-1.4556,-1.4229,-1.3749,-1.3429,-1.3116,-1.3082,-1.3068,-1.3197,-1.3512,-0.9757,-1.0035,-0.9835,-0.9779,-0.9514,-0.9061,-0.8661,-0.8105,0.0,0.0,0.0,-0.656,-0.6198,-0.6038,-0.5372,-0.4552,-0.3738,-0.3705,-0.3527,-0.3043,-0.3009,-0.2836,-0.2522,-0.2517,-0.2514,-0.2514,-0.2514,-0.2514,-0.2514,-0.2514,-0.2671,-0.2671,-0.314,-0.3454,-0.3766,-0.4395,-0.5025,-0.5495,-0.5438,-0.5835,-0.6827,-0.7194,-0.765,-0.8169,-0.8344,-0.8469,-0.8262,-0.8429,-0.8465,-0.8367,-0.8361,-0.8621,-0.9392,-0.9651,-1.0426,-1.1728,-1.237,-1.2702,-1.2971,-1.3643,-1.3983,-1.3773,-1.4692,-1.5124,-1.5009,-1.5321,-1.557,-1.5457,-1.5747,-1.5744,-1.5487,-1.5413,-1.4914,-1.4058,-1.3627,-1.3187,-1.2718,-1.237,-1.2026,-1.1838,-1.1702,-1.172,-1.1913,-1.2243,-1.2553,-1.2876,-1.3064,-1.3198,-1.3192,-1.3785,-1.4358,-1.4677,-1.5146,-1.5496,-1.5512,-1.5496,-1.5512,-1.5488,-1.5496,-1.5528,-1.5553,-1.5561,-1.5569,-1.5634,-1.561,-1.5457,-1.5136,-1.4662,-1.4318,-1.3828,-1.3514,-1.336,-1.3668,-1.3828,-1.3967,-0.9119,-0.9028,-0.8588,-0.8367,-0.8167,-0.7728,-0.7119,-0.6693,-0.6898,-0.6649,-0.5775,-0.5496,-0.5448,-0.5448,-0.4576,-0.3578,-0.2928,-0.3085,-0.3082,0.0,-0.2726,-0.2713,-0.2552,-0.2526,-0.2514,-0.2514,-0.2514,-0.2514,-0.2514,-0.2826,-0.2983,-0.314,-0.3768,-0.4709,-0.5802,-0.5962,-0.6587,-0.7677,-0.7041,-0.6995,-0.7838,-0.8347,-0.8642,-0.8569,-0.8886,-0.8906,-0.8767,-0.8883,-0.8867,-0.8856,-0.8851,-0.9125,-0.9942,-1.021,-1.09,-1.1718,-1.2694,-1.3118,-1.2846,-1.3576,-1.4026,-1.4339,-1.5452,-1.5804,-1.5017,-1.5416,-1.5766,-1.6077,-1.6058,-1.6095,-1.6021,-1.558,-1.5144,-1.4718,-1.3974,-1.3354,-1.3331,-1.2742,-1.234,-1.2306,-1.1999,-1.2049,-1.2465,-1.2656,-1.2814,-1.3164,-1.3295,-1.3494,-1.3931,-1.4084,-1.4411,-1.4875,-1.5194,-1.5512,-1.5553,-1.552,-1.5545,-1.5512,-1.5545,-1.5601,-1.5723,-1.574,-1.578,-1.5934,-1.5934,-1.5779,-1.5451,-1.5311,-1.4952,-1.4609,-1.4445,-1.4452,-1.4445,-1.4773,-1.5039,-0.8462,-0.8192,-0.7742,-0.7688,-0.7642,-0.6665,-0.6082,-0.5512,-0.543,-0.5356,-0.5125,-0.4736,-0.4535,-0.4343,-0.3821,-0.3314,-0.265,-0.2798,-0.2791,-0.2624,-0.2596,-0.2582,-0.2579,-0.2553,-0.2538,-0.2538,-0.2522,-0.2671,-0.2826,-0.2982,-0.3297,-0.3768,-0.4865,-0.5962,-0.69,-0.7213,-0.7833,-0.8774,-0.7989,-0.7946,-0.8621,-0.8824,-0.8989,-0.9118,-0.9147,-0.9171,-0.9057,-0.9052,-0.9019,-0.8954,-0.8948,-0.9226,-1.0058,-1.0197,-1.0744,-1.1579,-1.23,-1.2818,-1.3091,-1.3697,-1.4305,-1.477,-1.5172,-1.5266,-1.4948,-1.5727,-1.6259,-1.6062,-1.622,-1.6169,-1.5759,-1.5557,-1.5375,-1.461,-1.4072,-1.3706,-1.336,-1.2747,-1.2482,-1.2604,-1.2465,-1.2332,-1.2727,-1.2899,-1.3072,-1.3403,-1.3569,-1.4066,-1.4728,-1.4758,-1.4985,-1.5147,-1.5472,-1.5804,-1.5796,-1.5804,-1.5804,-1.5804,-1.5804,-1.5837,-1.591,-1.5918,-1.5951,-1.6024,-1.6048,-1.5883,-1.5719,-1.5546,-1.5381,-1.5216,-1.4878,-1.4878,-1.5051,-1.5381,-1.5655,-0.7963,-0.7336,-0.7077,-0.7,-0.6556,-0.5766,-0.5201,-0.4659,-0.4269,-0.4205,-0.4297,-0.4109,-0.3741,-0.3367,-0.3365,-0.3029,-0.2688,-0.2668,-0.2657,-0.2654,-0.2626,-0.2612,-0.2609,-0.2582,-0.2566,-0.2557,-0.2693,-0.2834,-0.314,-0.3454,-0.4081,-0.5022,-0.6118,-0.7053,-0.7838,-0.8306,-0.8774,-0.9397,-0.8929,-0.8876,-0.9381,-0.945,-0.9489,-0.9639,-0.9686,-0.9435,-0.9177,-0.9171,-0.9128,-0.9041,-0.903,-0.9462,-1.0193,-1.0333,-1.0773,-1.1664,-1.2158,-1.2583,-1.3321,-1.4024,-1.4646,-1.5092,-1.5119,-1.5068,-1.506,-1.5887,-1.6328,-1.601,-1.6054,-1.588,-1.5376,-1.5293,-1.5216,-1.4418,-1.4121,-1.3872,-1.3363,-1.2893,-1.2604,-1.2714,-1.2733,-1.2727,-1.2899,-1.3231,-1.3403,-1.3569,-1.4066,-1.4728,-1.5216,-1.5381,-1.5546,-1.5546,-1.5883,-1.6024,-1.6048,-1.6032,-1.6032,-1.6048,-1.6032,-1.6016,-1.6196,-1.6205,-1.6205,-1.6205,-1.6205,-1.604,-1.6048,-1.5719,-1.5546,-1.5546,-1.5216,-1.5216,-1.5381,-1.5875,-1.6205,-0.7423,-0.6838,-0.6395,-0.5562,-0.4737,-0.4506,-0.4128,-0.3768,-0.3585,-0.3365,-0.3127,-0.3267,-0.3233,-0.2864,-0.2861,-0.2692,-0.2692,-0.269,-0.2687,-0.2683,-0.2657,-0.2642,-0.2641,-0.2612,-0.2585,-0.2724,-0.2875,-0.3174,-0.3301,-0.4395,-0.5645,-0.7056,-0.7369,-0.7994,-0.909,-0.9241,-0.9553,-0.9864,-0.9864,-0.996,-1.0304,-1.0433,-1.0312,-1.0369,-1.0498,-1.0134,-0.9435,-0.9574,-0.9712,-0.9275,-0.9562,-1.0041,-1.0578,-1.104,-1.139,-1.1952,-1.2444,-1.2911,-1.3667,-1.4271,-1.4826,-1.5286,-1.5759,-1.5718,-1.5412,-1.57,-1.5949,-1.5819,-1.5499,-1.5425,-1.5455,-1.4844,-1.4441,-1.443,-1.3803,-1.354,-1.3665,-1.3217,-1.2886,-1.3224,-1.2899,-1.2899,-1.3231,-1.3403,-1.3569,-1.4066,-1.4721,-1.5216,-1.5381,-1.5711,-1.5883,-1.5883,-1.6048,-1.6048,-1.6048,-1.6048,-1.6048,-1.6048,-1.6048,-1.6205,-1.6369,-1.6534,-1.6689,-1.6698,-1.6698,-1.6534,-1.6213,-1.5883,-1.604,-1.5875,-1.5875,-1.5883,-1.604,-1.6369,-1.6534,-0.6479,-0.5903,-0.528,-0.464,-0.4011,-0.3966,-0.359,-0.3231,-0.3231,-0.3027,-0.281,-0.2952,-0.2908,-0.2692,-0.2692,-0.2692,-0.2692,-0.2692,-0.2692,-0.2691,-0.2679,-0.2673,-0.2671,-0.2642,-0.2785,-0.2937,-0.3241,-0.3691,-0.4443,-0.5824,-0.69,-0.7525,-0.815,-0.8929,-0.9397,-0.9713,-0.9864,-1.0019,-1.0019,-1.0302,-1.0868,-1.0638,-1.055,-1.0601,-1.0673,-1.0613,-0.9968,-1.011,-1.011,-0.9962,-1.011,-1.0429,-1.1076,-1.1379,-1.1547,-1.206,-1.2742,-1.3288,-1.3687,-1.4517,-1.4862,-1.4862,-1.5025,-1.513,-1.468,-1.4822,-1.4805,-1.4731,-1.4828,-1.4995,-1.4838,-1.4378,-1.3958,-1.3767,-1.3308,-1.2999,-1.3224,-1.2899,-1.2899,-1.3231,-1.3238,-1.3238,-1.3403,-1.3569,-1.4066,-1.439,-1.5051,-1.5546,-1.5719,-1.5883,-1.6048,-1.6048,-1.6048,-1.6213,-1.6369,-1.6213,-1.6213,-1.6369,-1.6369,-1.6534,-1.6698,-1.7026,-1.7191,-1.7199,-1.7035,-1.7035,-1.6871,-1.6534,-1.6369,-1.6369,-1.6369,-1.6542,-1.6706,-1.7035,-1.7191,-0.5337,-0.4761,-0.4338,-0.3905,-0.3475,-0.344,-0.324,-0.2874,-0.2874,-0.2678,-0.2474,-0.2454,-0.2589,-0.2709,-0.2528,-0.2355,-0.2355,-0.2355,-0.2524,-0.2692,-0.2692,-0.2692,-0.269,-0.2837,-0.2987,-0.3306,-0.3774,-0.454,-0.5593,-0.681,-0.7706,-0.8002,-0.8929,-0.9397,-0.9553,-0.9864,-1.0019,-1.0019,-1.0019,-1.033,-1.0934,-1.0703,-1.0638,-1.106,-1.1126,-1.0908,-1.0577,-1.0421,-1.0266,-1.0266,-1.0416,-1.0733,-1.1521,-1.1671,-1.1841,-1.2333,-1.3036,-1.3457,-1.3737,-1.4353,-1.453,-1.4129,-1.4235,-1.4005,-1.3598,-1.3728,-1.3535,-1.3139,-1.3591,-1.3774,-1.403,-1.3561,-1.3124,-1.3058,-1.2567,-1.2401,-1.2567,-1.2567,-1.2733,-1.3065,-1.2906,-1.3238,-1.3403,-1.3901,-1.439,-1.4886,-1.5216,-1.5711,-1.5883,-1.6048,-1.6048,-1.6048,-1.6048,-1.6213,-1.6534,-1.6369,-1.6369,-1.6698,-1.6862,-1.6698,-1.7026,-1.7355,-1.7519,-1.7519,-1.7519,-1.7527,-1.7199,-1.7026,-1.6862,-1.6862,-1.7026,-1.7026,-1.7355,-1.7682,-1.8019,-0.4385,-0.381,-0.3208,-0.3175,-0.2957,-0.2928,-0.29,-0.2874,-0.2874,-0.2322,-0.1593,-0.1589,-0.192,-0.2564,-0.1862,-0.1346,-0.1346,-0.1682,-0.2187,-0.2692,-0.2692,-0.2692,-0.2692,-0.3195,-0.3345,-0.3481,-0.4468,-0.5721,-0.6886,-0.7501,-0.8085,-0.8788,-0.9256,-0.9558,-0.9864,-1.0019,-1.0019,-1.0019,-1.0019,-1.0175,-1.0641,-1.063,-1.1195,-1.2026,-1.1835,-1.1466,-1.1214,-1.0577,-1.0272,-1.0272,-1.0733,-1.1083,-1.165,-1.198,-1.2491,-1.2916,-1.3098,-1.3267,-1.3583,-1.3752,-1.3656,-1.3476,-1.3376,-1.3116,-1.2455,-1.2592,-1.2351,-1.1376,-1.1635,-1.2032,-1.237,-1.2032,-1.1712,-1.2063,-1.1736,-1.157,-1.2069,-1.2069,-1.2069,-1.2235,-1.2235,-1.2733,-1.3397,-1.4225,-1.4721,-1.5216,-1.5711,-1.5883,-1.6048,-1.6048,-1.6048,-1.6048,-1.6048,-1.6205,-1.6534,-1.6369,-1.6377,-1.7035,-1.7191,-1.7026,-1.7519,-1.801,-1.801,-1.8001,-1.801,-1.801,-1.7527,-1.7363,-1.7527,-1.7527,-1.7519,-1.7682,-1.8174,-1.85,-1.8837,-0.3815,-0.3431,-0.302,-0.2988,-0.296,-0.2931,-0.2539,-0.1976,-0.2694,-0.2689,-0.232,-0.1596,-0.1928,-0.2593,-0.2394,-0.1525,-0.0674,-0.1178,-0.185,-0.2692,-0.2692,-0.2692,-0.2692,-0.3197,-0.3528,-0.3848,-0.4848,-0.6136,-0.751,-0.8258,-0.8819,-0.9371,-0.9667,-0.9944,-1.0036,-1.0019,-1.0019,-1.0019,-1.0019,-1.0175,-1.0486,-1.0641,-1.0928,-1.1361,-1.1503,-1.117,-1.0508,-1.0503,-1.0503,-1.0508,-1.0968,-1.1293,-1.1798,-1.2273,-1.2447,-1.2649,-1.2965,-1.312,-1.2979,-1.3219,-1.3141,-1.2574,-1.2755,-1.254,-1.2125,-1.191,-1.1499,-1.1009,-1.0704,-1.0565,-1.0232,-1.0398,-1.057,-1.0737,-1.0404,-1.0404,-1.0737,-1.107,-1.1237,-1.157,-1.2069,-1.2899,-1.3569,-1.439,-1.4878,-1.5381,-1.5711,-1.5883,-1.6048,-1.6048,-1.6048,-1.6048,-1.6048,-1.6205,-1.7035,-1.6542,-1.6377,-1.7191,-1.7519,-1.7519,-1.7846,-1.8337,-1.8337,-1.8664,-1.8664,-1.8827,-1.85,-1.85,-1.851,-1.85,-1.85,-1.8664,-1.9153,-1.9316,-1.9652,-0.3434,-0.305,-0.3031,-0.2811,-0.2591,-0.2758,-0.2547,-0.1978,-0.1976,-0.1976,-0.1793,-0.1247,-0.1236,-0.1747,-0.1903,-0.154,-0.0846,-0.118,-0.185,-0.2692,-0.2692,-0.2692,-0.3029,-0.3365,-0.387,-0.4542,-0.5717,-0.7016,-0.8094,-0.9006,-0.9406,-0.9626,-1.0067,-1.0166,-1.0085,-1.0041,-1.0019,-1.0019,-1.0019,-1.0175,-1.033,-1.0486,-1.0641,-1.0802,-1.0952,-1.0796,-1.0325,-1.048,-1.0796,-1.0952,-1.1262,-1.1727,-1.2037,-1.2347,-1.2501,-1.2656,-1.2811,-1.2838,-1.2576,-1.2828,-1.245,-1.1752,-1.1751,-1.171,-1.11,-1.0688,-1.0393,-0.9903,-0.9402,-0.8901,-0.8395,-0.8566,-0.9068,-0.9402,-0.9235,-0.9235,-0.9569,-1.007,-1.057,-1.1237,-1.1902,-1.2899,-1.3735,-1.4383,-1.4878,-1.5381,-1.5711,-1.6048,-1.6048,-1.6048,-1.6048,-1.6048,-1.6048,-1.6377,-1.6871,-1.6542,-1.6871,-1.7527,-1.7527,-1.7691,-1.8019,-1.851,-1.8837,-1.9153,-1.9479,-1.9642,-1.9642,-1.9642,-1.9642,-1.9642,-1.9479,-1.9479,-1.9967,-2.0292,-2.0627,-0.3052,-0.3052,-0.3052,-0.2639,-0.1854,-0.2406,-0.2928,-0.234,-0.0898,-0.0,-0.0,-0.0,-0.0,-0.0,-0.0523,-0.1036,-0.2049,-0.169,-0.185,-0.2692,-0.2692,-0.3029,-0.3365,-0.387,-0.4542,-0.5549,-0.7227,-0.8186,-0.8605,-0.9409,-0.9846,-0.9895,-1.0121,-1.0237,-1.0204,-1.0101,-1.003,-1.003,-1.003,-1.0019,-1.0019,-1.0019,-1.033,-1.0802,-1.0641,-1.0641,-1.0802,-1.0641,-1.0952,-1.1727,-1.1882,-1.2037,-1.2347,-1.2501,-1.2656,-1.2811,-1.2663,-1.2583,-1.2541,-1.2272,-1.1616,-1.0801,-1.0552,-1.0288,-0.9702,-0.9059,-0.8729,-0.8227,-0.7729,-0.7227,-0.6895,-0.6727,-0.7227,-0.7897,-0.8064,-0.8227,-0.8729,-0.9068,-0.9736,-1.0737,-1.157,-1.2401,-1.3231,-1.4225,-1.4878,-1.5381,-1.5711,-1.6048,-1.6048,-1.6048,-1.6048,-1.6048,-1.6048,-1.6377,-1.6542,-1.6706,-1.7527,-1.8019,-1.7691,-1.7527,-1.8183,-1.8673,-1.9,-1.9316,-1.9805,-2.013,-2.0292,-2.0292,-2.013,-2.013,-2.013,-2.0292,-2.0617,-2.1114,-2.1438,-0.3052,-0.3052,-0.3052,-0.3018,-0.2412,-0.1482,-0.0915,-0.0,-0.0,-0.0,-0.0,-0.0,-0.0,-0.0,-0.1223,-0.1729,-0.171,-0.203,-0.2356,-0.2692,-0.2692,-0.3029,-0.3533,-0.4206,-0.5211,-0.6724,-0.7729,-0.8549,-0.9193,-0.9682,-1.0128,-1.0351,-1.0465,-1.0405,-1.0324,-1.021,-1.0144,-1.0139,-1.0057,-1.0019,-1.0019,-1.0019,-1.018,-1.0175,-1.0175,-1.033,-1.0641,-1.0952,-1.1262,-1.1572,-1.1727,-1.2037,-1.2347,-1.2192,-1.2192,-1.2205,-1.1979,-1.1572,-1.1318,-1.1154,-1.079,-1.0066,-0.9637,-0.9188,-0.8892,-0.8232,-0.7558,-0.7223,-0.6721,-0.6221,-0.5549,-0.5382,-0.5885,-0.7059,-0.7059,-0.7394,-0.7897,-0.8733,-0.9903,-1.0904,-1.1736,-1.2401,-1.3231,-1.4225,-1.4878,-1.5216,-1.5711,-1.5883,-1.6048,-1.6048,-1.6048,-1.6048,-1.6048,-1.6213,-1.6706,-1.6706,-1.7026,-1.7691,-1.7691,-1.7691,-1.8183,-1.8673,-1.9,-1.9479,-2.013,-2.0455,-2.0779,-2.0779,-2.0779,-2.0941,-2.0952,-2.1276,-2.1438,-2.1761,-2.2084,-0.2671,-0.3052,-0.3052,-0.2647,-0.1863,-0.0557,-0.0,-0.0,-0.0,-0.0,-0.0,-0.0,-0.0,-0.0,-0.1934,-0.2435,-0.1892,-0.2552,-0.2872,-0.2862,-0.3029,-0.3197,-0.3701,-0.4878,-0.6221,-0.7562,-0.8232,-0.8901,-0.9569,-1.0065,-1.0367,-1.0634,-1.0579,-1.052,-1.0443,-1.0335,-1.0269,-1.0259,-1.0199,-1.0134,-1.0101,-1.009,-1.0068,-1.018,-1.0175,-1.0486,-1.0796,-1.1107,-1.1262,-1.1262,-1.1572,-1.1727,-1.2037,-1.1772,-1.1648,-1.1679,-1.1464,-1.1083,-1.0661,-1.0465,-0.9922,-0.9302,-0.8694,-0.8223,-0.7725,-0.7059,-0.6556,-0.605,-0.5547,-0.5043,-0.4542,-0.471,-0.5046,-0.5885,-0.6056,-0.656,-0.7394,-0.8571,-0.9741,-1.0737,-1.157,-1.2401,-1.3065,-1.3894,-1.4548,-1.5051,-1.5546,-1.5875,-1.5883,-1.6048,-1.6056,-1.6056,-1.6048,-1.6377,-1.6862,-1.6862,-1.6534,-1.7026,-1.7527,-1.7691,-1.8174,-1.851,-1.8837,-1.9652,-2.0292,-2.0627,-2.0952,-2.1114,-2.1114,-2.1438,-2.1599,-2.1761,-2.1761,-2.2395,-2.2728,-0.2098,-0.2862,-0.2862,-0.1707,-0.0,-0.0,-0.0,-0.0,-0.0,-0.0,-0.0,-0.0,-0.0,-0.0,-0.1951,-0.2807,-0.2781,-0.2748,-0.3056,-0.3205,-0.3365,-0.3701,-0.4372,-0.5885,-0.7059,-0.8064,-0.8901,-0.9402,-0.9736,-1.0404,-1.0737,-1.071,-1.0628,-1.0574,-1.0547,-1.0454,-1.0394,-1.0394,-1.0378,-1.0307,-1.0221,-1.0215,-1.0313,-1.0514,-1.0508,-1.0658,-1.0952,-1.1125,-1.128,-1.1268,-1.1274,-1.1448,-1.1305,-1.1403,-1.1318,-1.1324,-1.1124,-1.0751,-1.052,-0.9907,-0.9297,-0.8373,-0.7885,-0.7558,-0.6389,-0.5717,-0.5214,-0.471,-0.4374,-0.4036,-0.4036,-0.4206,-0.4544,-0.4883,-0.5558,-0.6224,-0.7227,-0.8575,-0.9598,-1.0268,-1.1254,-1.2266,-1.2798,-1.3631,-1.4297,-1.4788,-1.5301,-1.5648,-1.598,-1.617,-1.6105,-1.6121,-1.6178,-1.6527,-1.6901,-1.6734,-1.6576,-1.7067,-1.7365,-1.7634,-1.8046,-1.8519,-1.8837,-1.9652,-2.0303,-2.079,-2.1114,-2.1114,-2.1276,-2.1438,-2.1599,-2.1761,-2.2245,-2.2728,-2.3038,-0.1908,-0.0763,-0.0763,-0.0569,-0.0,-0.0,-0.0,-0.0,-0.0,-0.0898,-0.1796,-0.2156,-0.1257,-0.0359,-0.1954,-0.2812,-0.2784,-0.2754,-0.2891,-0.337,-0.3701,-0.4539,-0.5547,-0.6724,-0.7729,-0.8566,-0.9072,-0.9569,-0.9898,-1.0398,-1.0737,-1.0737,-1.0704,-1.0683,-1.0672,-1.0568,-1.052,-1.0498,-1.0427,-1.0384,-1.0351,-1.034,-1.028,-1.0329,-1.0313,-1.0269,-1.0358,-1.042,-1.0733,-1.128,-1.1366,-1.1415,-1.1264,-1.1225,-1.1136,-1.0993,-1.0605,-1.0193,-0.9907,-0.9146,-0.8536,-0.8056,-0.6892,-0.6053,-0.5552,-0.4878,-0.4206,-0.387,-0.3533,-0.3365,-0.3197,-0.3535,-0.4221,-0.5264,-0.5924,-0.657,-0.7417,-0.8631,-0.9695,-1.0202,-1.1447,-1.2331,-1.2677,-1.3526,-1.4549,-1.4887,-1.5394,-1.5892,-1.6029,-1.6205,-1.6181,-1.6414,-1.6462,-1.6784,-1.6784,-1.6623,-1.6623,-1.6969,-1.7414,-1.7478,-1.8018,-1.8702,-1.901,-1.9479,-1.9978,-2.0465,-2.079,-2.0952,-2.1114,-2.1276,-2.1599,-2.1922,-2.2406,-2.2889,-2.3199,-0.1145,-0.0,-0.0,-0.0,-0.0,-0.0,-0.0,-0.0,-0.0904,-0.1796,-0.2694,-0.2874,-0.2335,-0.1436,-0.232,-0.2831,-0.28,-0.2945,-0.3255,-0.3899,-0.4719,-0.5549,-0.6389,-0.7059,-0.7897,-0.8901,-0.924,-0.9736,-1.007,-1.057,-1.057,-1.0232,-1.0404,-1.0404,-1.0065,-1.018,-1.0133,-1.0293,-1.0235,-1.0351,-1.0465,-1.046,-1.0389,-1.0302,-1.028,-1.0237,-1.0193,-1.0242,-1.0538,-1.078,-1.1001,-1.0918,-1.093,-1.0873,-1.0779,-1.0784,-1.0235,-0.9808,-0.9316,-0.8536,-0.7893,-0.7223,-0.6053,-0.5382,-0.4878,-0.4206,-0.3533,-0.3197,-0.3197,-0.3197,-0.32,-0.3548,-0.4427,-0.5319,-0.6331,-0.6989,-0.7499,-0.874,-0.9621,-1.0325,-1.139,-1.2466,-1.2472,-1.3673,-1.4536,-1.4871,-1.5183,-1.5531,-1.5872,-1.6073,-1.6089,-1.6283,-1.6446,-1.6576,-1.673,-1.6568,-1.6584,-1.6941,-1.7281,-1.7349,-1.79,-1.8707,-1.897,-1.9279,-1.9865,-2.015,-2.0323,-2.0648,-2.079,-2.1114,-2.1599,-2.1922,-2.2245,-2.2728,-2.3199,-0.0,-0.0,-0.0,-0.0,-0.0,-0.0,-0.0,-0.0,-0.1993,-0.2694,-0.2874,-0.2874,-0.2874,-0.2874,-0.287,-0.2856,-0.3001,-0.3491,-0.3793,-0.4602,-0.5743,-0.6727,-0.6727,-0.7227,-0.8064,-0.9068,-0.924,-0.9908,-1.0409,-1.057,-1.0065,-0.9731,-0.9903,-0.9736,-0.9569,-0.9564,-0.9569,-0.9893,-1.0044,-1.0159,-1.0426,-1.041,-1.0514,-1.0416,-1.0367,-1.0367,-1.0362,-1.0384,-1.0351,-1.0248,-1.0346,-1.0556,-1.0416,-1.0509,-1.0568,-1.042,-1.0164,-0.9555,-0.8725,-0.8223,-0.7394,-0.6389,-0.5717,-0.5046,-0.4374,-0.387,-0.3365,-0.3197,-0.3197,-0.3537,-0.3887,-0.4427,-0.5153,-0.5885,-0.6589,-0.7118,-0.7999,-0.9039,-0.973,-0.9908,-1.1463,-1.2336,-1.2853,-1.3713,-1.4593,-1.488,-1.5204,-1.5384,-1.5557,-1.5737,-1.5902,-1.5878,-1.6027,-1.6152,-1.6323,-1.6502,-1.6518,-1.6714,-1.7082,-1.7383,-1.7843,-1.837,-1.8903,-1.9317,-1.9454,-1.9522,-1.9732,-2.0048,-2.0354,-2.079,-2.1114,-2.1438,-2.1922,-2.2395,-2.2717,-0.0,-0.0,-0.0,-0.0,-0.0,-0.0,-0.0926,-0.2219,-0.2718,-0.2874,-0.2874,-0.2874,-0.2874,-0.2874,-0.2872,-0.3213,-0.3887,-0.402,-0.4306,-0.524,-0.6566,-0.7227,-0.7394,-0.7729,-0.8232,-0.8738,-0.8905,-0.9579,-1.0252,-1.0075,-0.9574,-0.9402,-0.9402,-0.9569,-0.9407,-0.924,-0.9407,-0.9574,-0.9574,-0.9726,-1.0206,-1.019,-1.0303,-1.0525,-1.0443,-1.04,-1.0405,-1.0471,-1.0503,-1.0498,-1.0503,-1.052,-1.0541,-1.0628,-1.0511,-1.0195,-0.9878,-0.9235,-0.8399,-0.7562,-0.6724,-0.6221,-0.5382,-0.471,-0.4542,-0.4036,-0.3868,-0.37,-0.3868,-0.4223,-0.4937,-0.5332,-0.5885,-0.6772,-0.7299,-0.7841,-0.8769,-0.9486,-1.0,-1.0899,-1.2009,-1.296,-1.3312,-1.3813,-1.452,-1.471,-1.5053,-1.5242,-1.5403,-1.5381,-1.5533,-1.5488,-1.567,-1.5821,-1.6167,-1.6341,-1.6341,-1.6341,-1.6703,-1.705,-1.7526,-1.7957,-1.8479,-1.8744,-1.8876,-1.908,-1.9085,-1.9522,-1.9841,-2.0079,-2.0475,-2.0973,-2.147,-2.1945,-2.2497,-0.0,-0.0,-0.0,-0.0,-0.0,-0.0933,-0.2032,-0.2753,-0.2896,-0.2874,-0.2874,-0.2874,-0.2874,-0.2872,-0.2872,-0.3398,-0.4083,-0.4551,-0.5343,-0.6284,-0.7084,-0.7562,-0.7729,-0.806,-0.8232,-0.8571,-0.8738,-0.9244,-0.9746,-0.9579,-0.924,-0.8901,-0.8901,-0.8901,-0.8901,-0.8733,-0.8901,-0.9072,-0.9072,-0.924,-0.9741,-1.007,-1.0221,-1.0485,-1.0579,-1.0552,-1.0568,-1.0606,-1.0639,-1.0639,-1.0639,-1.0639,-1.0645,-1.0699,-1.0565,-1.0404,-0.9736,-0.9068,-0.8399,-0.7394,-0.656,-0.6053,-0.5214,-0.4878,-0.4542,-0.4204,-0.4204,-0.4376,-0.4562,-0.5104,-0.6016,-0.6394,-0.6945,-0.7468,-0.7988,-0.8722,-0.932,-0.9698,-1.0249,-1.0993,-1.2113,-1.2851,-1.3407,-1.3938,-1.4292,-1.459,-1.4942,-1.5125,-1.478,-1.4766,-1.5132,-1.5118,-1.5308,-1.5491,-1.5843,-1.6011,-1.5996,-1.5981,-1.6148,-1.6498,-1.6824,-1.7438,-1.7854,-1.8119,-1.8381,-1.8425,-1.8457,-1.8894,-1.9151,-1.9376,-1.9791,-2.0416,-2.0916,-2.147,-2.2069,-0.0,-0.0,-0.0,-0.0,-0.0,-0.2047,-0.2765,-0.2919,-0.2887,-0.2874,-0.2874,-0.2874,-0.3052,-0.305,-0.323,-0.3587,-0.4448,-0.5441,-0.6553,-0.717,-0.7428,-0.7733,-0.8064,-0.806,-0.8232,-0.8571,-0.8403,-0.8738,-0.9072,-0.9072,-0.8399,-0.8064,-0.8232,-0.8064,-0.7897,-0.7897,-0.8064,-0.8403,-0.8403,-0.8738,-0.924,-0.9574,-1.0065,-1.0388,-1.071,-1.0704,-1.0699,-1.0715,-1.0726,-1.0737,-1.0737,-1.0737,-1.0737,-1.0737,-1.0737,-1.057,-0.9903,-0.9235,-0.8399,-0.7562,-0.6724,-0.6221,-0.5549,-0.5046,-0.5046,-0.4888,-0.4895,-0.5251,-0.5617,-0.6179,-0.6921,-0.7284,-0.7623,-0.796,-0.865,-0.9221,-0.9816,-1.0024,-1.0409,-1.1239,-1.2325,-1.323,-1.3584,-1.4122,-1.4299,-1.4476,-1.4646,-1.4822,-1.4476,-1.4299,-1.4646,-1.4822,-1.4822,-1.5175,-1.5528,-1.5528,-1.5528,-1.5528,-1.5704,-1.5873,-1.6225,-1.6514,-1.7115,-1.775,-1.8009,-1.7904,-1.7987,-1.8086,-1.8493,-1.869,-1.9142,-1.9805,-2.0487,-2.1168,-2.1616,-0.0,-0.0,-0.0,-0.0,-0.0,-0.2046,-0.2946,-0.2917,-0.2886,-0.2874,-0.2874,-0.3231,-0.359,-0.3588,-0.3947,-0.5003,-0.6204,-0.6996,-0.7259,-0.7522,-0.7776,-0.8064,-0.8064,-0.8064,-0.7897,-0.7729,-0.7562,-0.7897,-0.8068,-0.7566,-0.723,-0.7059,-0.7063,-0.7063,-0.7063,-0.6895,-0.723,-0.7729,-0.7729,-0.8064,-0.8571,-0.9072,-0.9574,-1.0237,-1.057,-1.0737,-1.0737,-1.0737,-1.0737,-1.0737,-1.0737,-1.0737,-1.0737,-1.0737,-1.057,-1.0237,-0.9908,-0.9235,-0.8399,-0.806,-0.7394,-0.6895,-0.6392,-0.6224,-0.6237,-0.6271,-0.629,-0.6486,-0.6863,-0.7421,-0.7882,-0.8105,-0.8452,-0.859,-0.8906,-0.9459,-1.0579,-1.0977,-1.1406,-1.2119,-1.304,-1.3591,-1.3768,-1.4122,-1.4299,-1.4299,-1.4476,-1.4646,-1.4476,-1.4299,-1.4476,-1.4476,-1.4476,-1.4646,-1.4999,-1.5175,-1.5175,-1.5175,-1.5175,-1.5175,-1.5528,-1.5704,-1.6187,-1.6816,-1.7488,-1.7619,-1.7535,-1.7605,-1.7673,-1.7891,-1.8539,-1.9184,-1.9884,-2.0574,-2.094,-0.0,-0.0,-0.0,-0.0565,-0.1492,-0.1846,-0.2375,-0.2897,-0.2881,-0.3053,-0.3231,-0.3588,-0.3947,-0.4126,-0.4303,-0.5541,-0.7456,-0.7698,-0.7799,-0.7905,-0.7965,-0.7897,-0.7729,-0.7729,-0.7394,-0.7059,-0.6892,-0.7059,-0.723,-0.7063,-0.6392,-0.6221,-0.6392,-0.6727,-0.6727,-0.6727,-0.6895,-0.7059,-0.7227,-0.7562,-0.8064,-0.8571,-0.9407,-1.007,-1.0404,-1.0737,-1.0737,-1.0737,-1.0737,-1.0737,-1.0737,-1.0737,-1.0737,-1.0737,-1.057,-1.007,-0.9741,-0.924,-0.8399,-0.8064,-0.7394,-0.7059,-0.6895,-0.6748,-0.6947,-0.6986,-0.7362,-0.7738,-0.8232,-0.859,-0.8548,-0.8924,-0.9408,-0.9507,-0.9647,-1.0233,-1.1207,-1.1595,-1.2277,-1.2997,-1.3394,-1.3591,-1.3768,-1.3945,-1.4299,-1.4299,-1.4299,-1.4299,-1.4299,-1.4299,-1.4299,-1.4299,-1.4299,-1.4476,-1.4646,-1.4646,-1.4822,-1.4822,-1.4822,-1.4822,-1.4999,-1.5175,-1.5528,-1.6202,-1.6553,-1.7055,-1.6998,-1.6877,-1.6976,-1.7237,-1.7673,-1.8139,-1.9231,-1.9968,-2.0327,-0.0,-0.0,-0.0,-0.1121,-0.2585,-0.2014,-0.2177,-0.2878,-0.2875,-0.3231,-0.3588,-0.3768,-0.4126,-0.4662,-0.5199,-0.6273,-0.8413,-0.8082,-0.8015,-0.7952,-0.8005,-0.7757,-0.7398,-0.7227,-0.7059,-0.6556,-0.6389,-0.6389,-0.6727,-0.6392,-0.6053,-0.5885,-0.6224,-0.6392,-0.6392,-0.6224,-0.6392,-0.6727,-0.7063,-0.723,-0.7729,-0.8733,-0.9574,-0.9903,-1.0404,-1.0737,-1.0737,-1.0737,-1.0737,-1.0737,-1.0737,-1.0737,-1.0737,-1.057,-1.0404,-1.007,-0.9407,-0.9072,-0.8571,-0.8232,-0.7729,-0.7562,-0.7245,-0.7109,-0.7131,-0.7495,-0.7882,-0.8624,-0.9112,-0.938,-0.9352,-0.9695,-0.9998,-1.0278,-1.0425,-1.0986,-1.1863,-1.2503,-1.2954,-1.3455,-1.3722,-1.3768,-1.3945,-1.4122,-1.4299,-1.4299,-1.4299,-1.4299,-1.4299,-1.4299,-1.4299,-1.4299,-1.4299,-1.4299,-1.4476,-1.4476,-1.4476,-1.4476,-1.4476,-1.4476,-1.4646,-1.4822,-1.5175,-1.5528,-1.5873,-1.6026,-1.5988,-1.614,-1.6427,-1.6522,-1.6583,-1.7098,-1.8233,-1.9149,-2.0029,-0.0,-0.0,-0.0,-0.1116,-0.2745,-0.2738,-0.272,-0.2876,-0.2874,-0.3231,-0.3768,-0.4128,-0.4487,-0.5201,-0.6276,-0.7352,-0.8219,-0.8321,-0.788,-0.7807,-0.754,-0.7285,-0.6902,-0.6727,-0.6556,-0.6221,-0.6053,-0.6392,-0.6392,-0.5888,-0.5552,-0.5552,-0.5552,-0.5552,-0.572,-0.572,-0.572,-0.6221,-0.656,-0.7227,-0.8064,-0.8901,-0.9407,-0.9736,-1.0237,-1.0737,-1.0737,-1.0737,-1.0737,-1.0737,-1.0737,-1.0737,-1.0737,-1.0404,-1.0242,-1.0075,-0.9908,-0.9574,-0.8905,-0.8579,-0.8248,-0.8097,-0.7961,-0.7965,-0.8142,-0.8166,-0.8548,-0.9233,-0.9559,-0.969,-0.979,-1.01,-1.0247,-1.0581,-1.0742,-1.1699,-1.2557,-1.2822,-1.3288,-1.3793,-1.3899,-1.4108,-1.4299,-1.4299,-1.4299,-1.4299,-1.4299,-1.4299,-1.4299,-1.4299,-1.4299,-1.4299,-1.4299,-1.4299,-1.4299,-1.4299,-1.4299,-1.4299,-1.4299,-1.4299,-1.4476,-1.4469,-1.4646,-1.4822,-1.4992,-1.5168,-1.5147,-1.5315,-1.5667,-1.5798,-1.6056,-1.6451,-1.7238,-1.8305,-1.9315,-0.0,-0.0,-0.1115,-0.184,-0.2006,-0.272,-0.2887,-0.2876,-0.2874,-0.3233,-0.3949,-0.4128,-0.4664,-0.5557,-0.6454,-0.717,-0.7695,-0.7806,-0.7545,-0.7295,-0.7045,-0.6799,-0.6405,-0.6389,-0.6053,-0.5885,-0.5717,-0.5717,-0.572,-0.572,-0.5384,-0.5384,-0.5384,-0.5384,-0.5384,-0.5384,-0.572,-0.6221,-0.6724,-0.7562,-0.8399,-0.9068,-0.9574,-0.9736,-1.0404,-1.057,-1.0737,-1.0737,-1.0737,-1.0737,-1.0737,-1.0737,-1.0737,-1.057,-1.0409,-1.0075,-1.0136,-0.98,-0.9254,-0.8955,-0.8804,-0.8475,-0.834,-0.8348,-0.8831,-0.9183,-0.9385,-0.9904,-1.0008,-1.0121,-1.0252,-1.0576,-1.0904,-1.107,-1.1237,-1.2011,-1.2834,-1.2943,-1.3402,-1.3914,-1.4245,-1.4272,-1.4299,-1.4299,-1.4299,-1.4299,-1.4299,-1.4299,-1.4299,-1.4299,-1.4299,-1.4299,-1.4299,-1.4299,-1.4299,-1.4299,-1.4299,-1.4299,-1.4299,-1.4299,-1.4299,-1.4299,-1.4299,-1.3938,-1.3938,-1.4115,-1.4292,-1.4639,-1.5154,-1.5337,-1.5344,-1.6049,-1.6761,-1.7279,-1.8139,-0.0185,-0.0932,-0.2387,-0.2368,-0.1816,-0.2523,-0.2875,-0.2874,-0.3053,-0.3592,-0.4128,-0.4487,-0.5022,-0.5736,-0.6273,-0.6633,-0.6809,-0.6935,-0.6858,-0.6779,-0.6712,-0.6303,-0.6078,-0.5885,-0.572,-0.5384,-0.5552,-0.5552,-0.5384,-0.5384,-0.5384,-0.5384,-0.5384,-0.5384,-0.5384,-0.5552,-0.5885,-0.6556,-0.7059,-0.7733,-0.8571,-0.9072,-0.9574,-1.007,-1.0404,-1.0737,-1.0737,-1.0737,-1.0737,-1.0737,-1.0737,-1.0737,-1.0737,-1.0737,-1.0597,-1.0456,-1.053,-1.0387,-0.9869,-0.9559,-0.9233,-0.9049,-0.8853,-0.884,-0.9385,-0.9889,-1.0028,-1.0018,-1.0299,-1.0419,-1.057,-1.107,-1.1403,-1.1736,-1.2069,-1.2495,-1.2933,-1.3239,-1.3555,-1.3894,-1.4204,-1.4278,-1.4299,-1.4122,-1.4122,-1.4122,-1.4122,-1.4122,-1.4122,-1.4122,-1.4299,-1.4299,-1.4299,-1.4299,-1.4299,-1.4299,-1.4299,-1.4122,-1.4122,-1.3945,-1.3768,-1.3591,-1.3591,-1.3236,-1.3053,-1.3053,-1.3407,-1.3938,-1.4646,-1.4646,-1.4815,-1.5521,-1.6225,-1.6761,-1.7288,-0.1096,-0.2741,-0.292,-0.2902,-0.2699,-0.2875,-0.2874,-0.2874,-0.3411,-0.3769,-0.4487,-0.5204,-0.5559,-0.5736,-0.6094,-0.6276,-0.5912,-0.6806,-0.6542,-0.6463,-0.624,-0.5822,-0.5589,-0.5384,-0.5384,-0.5384,-0.5384,-0.5384,-0.5384,-0.5552,-0.5384,-0.5384,-0.5552,-0.5384,-0.5552,-0.5885,-0.6389,-0.7059,-0.7394,-0.7897,-0.8738,-0.924,-0.9741,-1.007,-1.0404,-1.0737,-1.0737,-1.0737,-1.0737,-1.0737,-1.0737,-1.0737,-1.0737,-1.0759,-1.0634,-1.0699,-1.0774,-1.0816,-1.0506,-1.0169,-0.964,-0.9569,-0.9502,-0.9314,-0.9526,-0.9459,-0.9761,-1.0106,-1.0414,-1.0576,-1.0904,-1.1403,-1.1736,-1.1902,-1.2241,-1.2624,-1.3082,-1.3579,-1.3727,-1.4055,-1.417,-1.4265,-1.3945,-1.3768,-1.3768,-1.3768,-1.3591,-1.3768,-1.3945,-1.3945,-1.4122,-1.4122,-1.4122,-1.4122,-1.4122,-1.4122,-1.3945,-1.3768,-1.3591,-1.3413,-1.3236,-1.3059,-1.2881,-1.2875,-1.2698,-1.252,-1.252,-1.323,-1.3761,-1.3938,-1.4292,-1.4992,-1.5697,-1.6401,-1.6936,-0.1084,-0.2891,-0.2891,-0.2885,-0.2874,-0.2874,-0.2874,-0.3053,-0.3411,-0.4126,-0.4843,-0.5383,-0.5739,-0.5739,-0.5918,-0.5918,-0.5739,-0.5739,-0.5662,-0.5422,-0.5202,-0.4803,-0.4743,-0.4878,-0.5046,-0.5046,-0.5216,-0.5384,-0.5384,-0.5549,-0.5885,-0.5885,-0.5885,-0.5885,-0.6053,-0.6556,-0.7059,-0.7394,-0.7897,-0.8566,-0.9072,-0.9574,-1.0075,-1.0404,-1.057,-1.0737,-1.0737,-1.0737,-1.0737,-1.0737,-1.0737,-1.0742,-1.0759,-1.0802,-1.0867,-1.0944,-1.1036,-1.1101,-1.1096,-1.0579,-1.0017,-0.9588,-0.969,-0.983,-0.9825,-1.0095,-1.0242,-1.0404,-1.0404,-1.0737,-1.0904,-1.1237,-1.157,-1.1902,-1.2253,-1.2778,-1.3036,-1.3363,-1.3666,-1.3787,-1.3961,-1.4108,-1.3768,-1.3413,-1.3413,-1.3591,-1.3413,-1.3236,-1.3413,-1.3591,-1.3591,-1.3768,-1.3768,-1.3591,-1.3591,-1.3591,-1.3413,-1.3236,-1.323,-1.2875,-1.2698,-1.252,-1.252,-1.2343,-1.2343,-1.2165,-1.2165,-1.2698,-1.3053,-1.3407,-1.3761,-1.4292,-1.5168,-1.6049,-1.6585,-0.1617,-0.2874,-0.2874,-0.2874,-0.2874,-0.2874,-0.2874,-0.3053,-0.359,-0.4305,-0.5201,-0.5559,-0.5741,-0.5741,-0.5741,-0.5741,-0.5559,-0.5373,-0.513,-0.4903,-0.4509,-0.4115,-0.4233,-0.4372,-0.471,-0.4878,-0.5216,-0.5384,-0.5384,-0.5885,-0.6053,-0.6053,-0.6389,-0.6389,-0.6556,-0.7059,-0.7729,-0.7897,-0.8399,-0.9072,-0.9574,-0.9908,-1.0242,-1.057,-1.0737,-1.0737,-1.0737,-1.0737,-1.0737,-1.0737,-1.0742,-1.0759,-1.0808,-1.0873,-1.0949,-1.1047,-1.1123,-1.1188,-1.0988,-1.0725,-1.033,-1.0078,-1.0187,-1.0309,-1.043,-1.057,-1.057,-1.0737,-1.0737,-1.0737,-1.0904,-1.1237,-1.157,-1.1902,-1.2235,-1.2599,-1.265,-1.2939,-1.3226,-1.335,-1.3526,-1.3879,-1.3407,-1.3053,-1.2875,-1.2875,-1.2875,-1.2875,-1.3059,-1.3236,-1.3053,-1.3059,-1.3053,-1.3053,-1.2875,-1.3059,-1.3059,-1.2698,-1.2698,-1.252,-1.2343,-1.2165,-1.1988,-1.1988,-1.181,-1.1632,-1.1988,-1.252,-1.2698,-1.2875,-1.3584,-1.4469,-1.4992,-1.5873,-1.6225,-0.2874,-0.2874,-0.2874,-0.2874,-0.2874,-0.2874,-0.2874,-0.3053,-0.3949,-0.4845,-0.5559,-0.5741,-0.5741,-0.5741,-0.5741,-0.5741,-0.5562,-0.5196,-0.4965,-0.4714,-0.4344,-0.4115,-0.4064,-0.4372,-0.4542,-0.4878,-0.5216,-0.5384,-0.5552,-0.6053,-0.6221,-0.6556,-0.6892,-0.7227,-0.6895,-0.7562,-0.8232,-0.8738,-0.9072,-0.9569,-0.9903,-1.007,-1.0404,-1.057,-1.0737,-1.0737,-1.0737,-1.0737,-1.0737,-1.0737,-1.0759,-1.0808,-1.0884,-1.0938,-1.1047,-1.1215,-1.1156,-1.1172,-1.1226,-1.1036,-1.0758,-1.072,-1.0651,-1.0592,-1.0576,-1.0737,-1.0737,-1.0737,-1.0737,-1.0904,-1.107,-1.1403,-1.157,-1.1736,-1.1902,-1.2081,-1.2297,-1.2764,-1.2898,-1.3006,-1.3127,-1.3254,-1.282,-1.252,-1.2343,-1.2165,-1.2165,-1.2343,-1.2698,-1.2698,-1.252,-1.252,-1.252,-1.252,-1.252,-1.2698,-1.2698,-1.2343,-1.2165,-1.2165,-1.1988,-1.181,-1.1632,-1.1632,-1.1632,-1.1632,-1.181,-1.2165,-1.2698,-1.323,-1.4115,-1.4815,-1.5168,-1.5521,-1.6049,-0.2874,-0.2874,-0.2874,-0.2874,-0.2874,-0.2874,-0.3053,-0.359,-0.4305,-0.5201,-0.5562,-0.5741,-0.5741,-0.5741,-0.5736,-0.5736,-0.5557,-0.5199,-0.4965,-0.4353,-0.3997,-0.343,-0.3555,-0.4036,-0.4372,-0.4539,-0.4878,-0.5552,-0.5885,-0.6221,-0.6724,-0.7059,-0.7729,-0.8068,-0.8068,-0.8403,-0.8738,-0.924,-0.9569,-0.9903,-1.007,-1.0404,-1.057,-1.0737,-1.0737,-1.0737,-1.0737,-1.0737,-1.0742,-1.0759,-1.0797,-1.0878,-1.0965,-1.1025,-1.1177,-1.1264,-1.121,-1.1145,-1.1058,-1.0884,-1.0808,-1.0786,-1.077,-1.0737,-1.0737,-1.0737,-1.0737,-1.0737,-1.0737,-1.0904,-1.0904,-1.0904,-1.107,-1.107,-1.1237,-1.157,-1.1795,-1.2307,-1.2631,-1.2706,-1.2811,-1.2753,-1.2497,-1.2165,-1.1988,-1.181,-1.181,-1.181,-1.1988,-1.1988,-1.181,-1.181,-1.181,-1.1988,-1.1988,-1.2165,-1.2165,-1.1988,-1.181,-1.1632,-1.1632,-1.1455,-1.1455,-1.1455,-1.1455,-1.1632,-1.1988,-1.252,-1.3053,-1.3761,-1.4469,-1.4815,-1.5168,-1.5521,-1.5873,-0.2874,-0.2874,-0.2874,-0.3053,-0.3053,-0.3233,-0.3411,-0.4126,-0.4843,-0.5559,-0.5918,-0.6099,-0.6082,-0.5892,-0.5887,-0.5689,-0.5681,-0.5145,-0.4932,-0.4327,-0.3977,-0.3587,-0.3549,-0.3868,-0.4372,-0.4539,-0.5046,-0.5552,-0.6053,-0.656,-0.7063,-0.7733,-0.8403,-0.8738,-0.9072,-0.924,-0.9407,-0.9741,-1.007,-1.0237,-1.0404,-1.057,-1.0737,-1.0737,-1.0737,-1.0737,-1.0737,-1.0742,-1.0759,-1.0802,-1.0873,-1.0965,-1.1058,-1.1161,-1.127,-1.127,-1.1166,-1.1058,-1.0884,-1.0808,-1.0753,-1.0742,-1.0737,-1.0737,-1.0737,-1.0737,-1.0737,-1.0737,-1.0737,-1.0737,-1.0737,-1.0737,-1.0737,-1.0904,-1.0915,-1.1248,-1.1333,-1.1845,-1.2134,-1.2211,-1.2301,-1.2067,-1.1982,-1.181,-1.1632,-1.1632,-1.1455,-1.1455,-1.1455,-1.1455,-1.1455,-1.1455,-1.1455,-1.1632,-1.1632,-1.1632,-1.1632,-1.1455,-1.1455,-1.1277,-1.1455,-1.1455,-1.1455,-1.1455,-1.1455,-1.1632,-1.2165,-1.2698,-1.3407,-1.3938,-1.4469,-1.4822,-1.4999,-1.5521,-1.6049,-0.2871,-0.2871,-0.2871,-0.3225,-0.3583,-0.3755,-0.4295,-0.5015,-0.5552,-0.6085,-0.6442,-0.6968,-0.658,-0.6007,-0.6177,-0.615,-0.5763,-0.5232,-0.5021,-0.4638,-0.4289,-0.4074,-0.4052,-0.4372,-0.4542,-0.4878,-0.5216,-0.5888,-0.6221,-0.6895,-0.7733,-0.8403,-0.8738,-0.924,-0.9736,-0.9903,-1.007,-1.0242,-1.0404,-1.057,-1.057,-1.0737,-1.0737,-1.0737,-1.0737,-1.0737,-1.0737,-1.0737,-1.0802,-1.0867,-1.0927,-1.1069,-1.1183,-1.1264,-1.127,-1.1199,-1.1031,-1.0905,-1.0791,-1.0742,-1.0742,-1.0737,-1.0737,-1.0737,-1.0737,-1.0737,-1.0737,-1.0737,-1.0737,-1.0737,-1.0737,-1.0737,-1.0737,-1.0748,-1.0759,-1.0975,-1.1058,-1.1169,-1.1446,-1.153,-1.1614,-1.1533,-1.1433,-1.1277,-1.1099,-1.1099,-1.0921,-1.1099,-1.1099,-1.1277,-1.1277,-1.1099,-1.1099,-1.1277,-1.1277,-1.1099,-1.1099,-1.0921,-1.1099,-1.1099,-1.1277,-1.1277,-1.1277,-1.1277,-1.1455,-1.181,-1.2343,-1.3053,-1.3938,-1.4469,-1.4992,-1.5344,-1.5697,-1.6049,-1.6577,-0.3005,-0.3336,-0.3336,-0.351,-0.4034,-0.4735,-0.5107,-0.5491,-0.6159,-0.666,-0.6835,-0.6835,-0.7006,-0.6809,-0.6805,-0.6615,-0.6255,-0.5897,-0.5693,-0.5317,-0.4949,-0.4409,-0.4387,-0.4542,-0.471,-0.5046,-0.5549,-0.6056,-0.6727,-0.7398,-0.8068,-0.8738,-0.924,-0.9741,-1.007,-1.0404,-1.0404,-1.057,-1.057,-1.0737,-1.0737,-1.0737,-1.0737,-1.0737,-1.0737,-1.0737,-1.0737,-1.0737,-1.0802,-1.0905,-1.1003,-1.1134,-1.1243,-1.1264,-1.1237,-1.1031,-1.0938,-1.0873,-1.0764,-1.0737,-1.0737,-1.0737,-1.0737,-1.0737,-1.0737,-1.0737,-1.0737,-1.0737,-1.0737,-1.0737,-1.0748,-1.0753,-1.0759,-1.0775,-1.0813,-1.0736,-1.0816,-1.0735,-1.0835,-1.0904,-1.0978,-1.0848,-1.0738,-1.0565,-1.0565,-1.0387,-1.0387,-1.0565,-1.0565,-1.0743,-1.0921,-1.0743,-1.0743,-1.0743,-1.0565,-1.0387,-1.0387,-1.0387,-1.0565,-1.0743,-1.0743,-1.0743,-1.0921,-1.1099,-1.1632,-1.2165,-1.2698,-1.3407,-1.4285,-1.4992,-1.5521,-1.6049,-1.6401,-1.6753,-1.7279,-0.3325,-0.3653,-0.3653,-0.4173,-0.4862,-0.5879,-0.624,-0.6441,-0.6952,-0.7122,-0.7122,-0.7472,-0.745,-0.7597,-0.7249,-0.7231,-0.7199,-0.6676,-0.6142,-0.5951,-0.5608,-0.558,-0.5222,-0.5214,-0.5549,-0.5717,-0.6053,-0.6556,-0.723,-0.8068,-0.8738,-0.9072,-0.9741,-1.0075,-1.0404,-1.057,-1.0737,-1.0737,-1.0737,-1.0737,-1.0737,-1.0737,-1.0737,-1.0737,-1.0737,-1.0737,-1.0737,-1.0737,-1.0819,-1.0954,-1.1079,-1.1156,-1.1215,-1.1188,-1.1107,-1.0933,-1.0862,-1.0813,-1.0748,-1.0737,-1.0737,-1.0737,-1.0737,-1.0737,-1.0737,-1.0737,-1.0737,-1.0737,-1.0737,-1.0737,-1.0759,-1.0775,-1.0797,-1.0813,-1.0742,-1.0667,-1.0584,-1.0498,-1.0394,-1.0283,-1.0328,-1.0189,-1.003,-1.003,-1.003,-1.0209,-1.003,-1.003,-1.003,-1.0209,-1.0387,-1.0387,-1.0209,-1.0209,-1.003,-0.9852,-1.003,-1.003,-1.0209,-1.0209,-1.0209,-1.0565,-1.0921,-1.1455,-1.181,-1.252,-1.323,-1.3755,-1.4462,-1.5344,-1.6049,-1.6753,-1.7112,-1.7288,-1.7814,-0.3818,-0.4158,-0.4333,-0.4843,-0.571,-0.6853,-0.734,-0.7518,-0.7582,-0.7623,-0.7788,-0.8133,-0.8256,-0.8029,-0.7851,-0.7819,-0.7623,-0.7271,-0.6933,-0.6731,-0.6408,-0.6398,-0.6395,-0.6727,-0.6392,-0.656,-0.6895,-0.7063,-0.7562,-0.8403,-0.9072,-0.9407,-0.9908,-1.0404,-1.057,-1.0737,-1.0737,-1.0737,-1.0737,-1.0737,-1.0737,-1.0737,-1.0737,-1.0737,-1.0737,-1.0737,-1.0737,-1.0775,-1.0846,-1.1003,-1.1112,-1.1156,-1.1145,-1.1069,-1.096,-1.0878,-1.0802,-1.077,-1.0909,-1.0904,-1.0904,-1.0904,-1.0737,-1.0904,-1.0904,-1.0737,-1.0737,-1.0737,-1.0737,-1.0775,-1.0797,-1.084,-1.0873,-1.0768,-1.0693,-1.0772,-1.0667,-1.0224,-0.9759,-0.9805,-0.9646,-0.9496,-0.9496,-0.9496,-0.9496,-0.9674,-0.9674,-0.9496,-0.9496,-0.9674,-0.9674,-0.9674,-0.9674,-0.95,-0.95,-0.95,-0.9678,-0.9852,-0.9852,-0.9852,-1.003,-1.0387,-1.1099,-1.1632,-1.2165,-1.3046,-1.3755,-1.4285,-1.4992,-1.6049,-1.6753,-1.7463,-1.7814,-1.7989,-1.8514,-0.4442,-0.5089,-0.5764,-0.644,-0.6944,-0.7263,-0.7592,-0.7929,-0.829,-0.848,-0.8471,-0.8471,-0.8463,-0.8277,-0.8614,-0.8592,-0.8244,-0.8068,-0.7562,-0.723,-0.7063,-0.6895,-0.6727,-0.6895,-0.6727,-0.6895,-0.7063,-0.7733,-0.8403,-0.8905,-0.9407,-0.9903,-1.0237,-1.057,-1.0737,-1.0737,-1.0737,-1.0737,-1.0737,-1.0737,-1.0737,-1.0737,-1.0737,-1.0737,-1.0737,-1.0737,-1.0737,-1.0742,-1.0824,-1.0944,-1.1052,-1.1112,-1.1134,-1.0992,-1.0878,-1.0797,-1.0759,-1.0909,-1.107,-1.1237,-1.1237,-1.1403,-1.1403,-1.1237,-1.107,-1.0904,-1.0737,-1.0742,-1.0759,-1.0808,-1.0862,-1.0916,-1.0971,-1.0897,-1.0641,-1.0698,-1.058,-0.9935,-0.9286,-0.9126,-0.896,-0.8964,-0.8964,-0.8964,-0.8964,-0.8964,-0.8964,-0.8786,-0.8964,-0.8964,-0.9143,-0.9143,-0.8964,-0.8964,-0.8964,-0.9143,-0.9322,-0.9143,-0.9143,-0.9322,-0.9678,-1.0387,-1.1099,-1.181,-1.252,-1.3407,-1.4108,-1.4999,-1.5704,-1.6761,-1.7288,-1.7989,-1.8514,-1.8689,-1.9214,-0.5412,-0.6056,-0.6727,-0.7227,-0.7394,-0.7562,-0.7897,-0.8064,-0.8566,-0.8738,-0.9072,-0.8905,-0.8901,-0.8729,-0.9235,-0.9574,-0.9072,-0.8738,-0.8403,-0.8068,-0.7729,-0.7562,-0.7394,-0.7394,-0.7394,-0.7394,-0.7733,-0.8403,-0.8905,-0.9407,-0.9908,-1.0237,-1.057,-1.0737,-1.0737,-1.0737,-1.0737,-1.0737,-1.0737,-1.0737,-1.0737,-1.0737,-1.0737,-1.0737,-1.0737,-1.0737,-1.0737,-1.0742,-1.0813,-1.0889,-1.0982,-1.1058,-1.1041,-1.0933,-1.0813,-1.0764,-1.0737,-1.0904,-1.1237,-1.157,-1.1736,-1.1902,-1.1908,-1.1742,-1.1426,-1.1098,-1.1003,-1.1009,-1.084,-1.0878,-1.0992,-1.1063,-1.1112,-1.102,-1.058,-1.0121,-0.9787,-0.9282,-0.8952,-0.8778,-0.8786,-0.8786,-0.8786,-0.8786,-0.8786,-0.8786,-0.8607,-0.8607,-0.8607,-0.8607,-0.8607,-0.8607,-0.8607,-0.8607,-0.8786,-0.8786,-0.8786,-0.8607,-0.8607,-0.9143,-0.9674,-1.0565,-1.1277,-1.2165,-1.2875,-1.3584,-1.4469,-1.5175,-1.6233,-1.7112,-1.7814,-1.8339,-1.8864,-1.9388,-1.9563,-0.6392,-0.6895,-0.7227,-0.7562,-0.7562,-0.7897,-0.806,-0.8227,-0.8571,-0.9072,-0.9407,-0.9574,-0.9574,-0.9574,-0.9574,-1.008,-1.0252,-0.9574,-0.924,-0.8905,-0.8738,-0.8399,-0.8232,-0.8227,-0.8232,-0.8399,-0.8566,-0.8901,-0.9402,-0.9741,-1.0075,-1.0237,-1.0404,-1.0737,-1.0737,-1.0737,-1.0737,-1.0737,-1.0737,-1.0737,-1.0737,-1.0737,-1.0737,-1.0737,-1.0737,-1.0737,-1.0737,-1.0753,-1.0808,-1.0857,-1.0916,-1.0982,-1.0992,-1.0905,-1.0813,-1.0753,-1.0737,-1.0904,-1.1237,-1.157,-1.1736,-1.2069,-1.2081,-1.1939,-1.1634,-1.1524,-1.1255,-1.113,-1.096,-1.0992,-1.1112,-1.1183,-1.1237,-1.1122,-1.05,-0.9665,-0.9134,-0.8603,-0.8607,-0.8607,-0.8607,-0.8607,-0.8607,-0.8607,-0.8607,-0.8607,-0.8607,-0.8607,-0.8607,-0.8607,-0.8607,-0.8607,-0.8607,-0.8607,-0.8607,-0.8607,-0.8607,-0.8607,-0.8607,-0.9143,-0.9852,-1.0743,-1.1632,-1.252,-1.323,-1.3761,-1.4646,-1.5528,-1.6585,-1.7471,-1.7989,-1.8514,-1.9039,-1.9388,-1.9737,-0.6892,-0.7227,-0.7729,-0.7897,-0.7897,-0.806,-0.806,-0.8232,-0.8901,-0.9407,-0.9569,-1.0237,-1.0404,-1.0404,-1.0404,-1.0576,-1.0581,-1.0075,-0.9741,-0.9407,-0.924,-0.924,-0.9068,-0.8901,-0.9072,-0.924,-0.9235,-0.9402,-0.9736,-1.0075,-1.0237,-1.057,-1.057,-1.0737,-1.0737,-1.0737,-1.0737,-1.0737,-1.0737,-1.0737,-1.0737,-1.0737,-1.0737,-1.0737,-1.0737,-1.0737,-1.0737,-1.0737,-1.0748,-1.0791,-1.0862,-1.0927,-1.0933,-1.0905,-1.0829,-1.0748,-1.0737,-1.0904,-1.1237,-1.1593,-1.1933,-1.2278,-1.2483,-1.2408,-1.2113,-1.168,-1.1584,-1.1318,-1.115,-1.1145,-1.1221,-1.1248,-1.1297,-1.1015,-1.056,-0.9674,-0.896,-0.8786,-0.8607,-0.8607,-0.8607,-0.8607,-0.8607,-0.8607,-0.8607,-0.8607,-0.8607,-0.8607,-0.8607,-0.8607,-0.8607,-0.8607,-0.8607,-0.8607,-0.8607,-0.8607,-0.8607,-0.8607,-0.8786,-0.9322,-1.003,-1.0921,-1.181,-1.252,-1.3053,-1.3584,-1.4646,-1.5528,-1.6409,-1.7288,-1.7989,-1.8689,-1.9039,-1.9388,-1.9388]},{"header":{"parameterUnit":"m.s-1","parameterCategory":1,"la1":31.0,"la2":29.5877,"lo1":-88.7671,"lo2":-86.6584,"dy":0.0162,"dx":0.0185,"nx":115,"ny":88,"refTime":"2024-06-26T00:00:00:Z","depth":0,"parameterNumber":3,"parameterNumberName":"V-component_of_WINDS"},"data":[0.0,0.0,0.0,0.0,0.0,0.0,0.0,0.0,0.0,0.0,0.0,0.0,0.0,0.0,0.0,0.0,0.0,0.0,0.0,0.0,0.0,0.0,0.0,0.0,0.0,0.0,0.0,0.0,0.0,0.0,0.0,0.0,0.0,0.0,0.0,0.0,0.0,0.0,0.0,0.0,0.0,0.0,0.0,0.0,0.0,0.0,0.0,0.0,0.0,0.0,0.0,0.0,0.0,0.0,0.0,0.0,0.0,0.0,0.0,0.0,0.0,0.0,0.0,0.0,0.0,0.0,0.0,0.0,0.0,0.0,0.0,0.0,0.0,0.0,0.0,0.0,0.0,0.0,0.0,0.0,0.0,0.0,0.0,0.0,0.0,0.0,0.0,0.0,0.0,0.0,0.0,0.0,0.0,0.0,0.0,0.0,0.0,0.0,0.0,0.0,0.0,0.0,0.0,0.0,0.0,0.0,0.0,0.0,0.0,0.0,0.0,0.0,0.0,0.0,0.0,0.0,0.0,0.0,0.0,0.0,0.0,0.0,0.0,0.0,0.0,0.0,0.0,0.0,0.0,0.0,0.0,0.0,0.0,0.0,0.0,0.0,0.0,0.0,0.0,0.0,0.0,0.0,0.0,0.0,0.0,0.0,0.0,0.0,0.0,0.0,0.0,0.0,0.0,0.0,0.0,0.0,0.0,0.0,0.0,0.0,0.0,0.0,0.0,0.0,0.0,0.0,0.0,0.0,0.0,0.0,0.0,0.0,0.0,0.0,0.0,0.0,0.0,0.0,0.0,0.0,0.0,0.0,0.0,0.0,0.0,0.0,0.0,0.0,0.0,0.0,0.0,0.0,0.0,0.0,0.0,0.0,0.0,0.0,0.0,0.0,0.0,0.0,0.0,0.0,0.0,0.0,0.0,0.0,0.0,0.0,0.0,0.0,0.0,0.0,0.0,0.0,0.0,0.0,0.0,0.0,0.0,0.0,0.0,0.0,0.0,0.0,0.0,0.0,0.0,0.0,0.0,0.0,0.0,0.0,0.0,0.0,0.0,0.0,0.0,0.0,0.0,0.0,0.0,0.0,0.0,0.0,0.0,0.0,0.0,0.0,0.0,0.0,0.0,0.0,0.0,0.0,0.0,0.0,0.0,0.0,0.0,0.0,0.0,0.0,0.0,0.0,0.0,0.0,0.0,0.0,0.0,0.0,0.0,0.0,0.0,0.0,0.0,0.0,0.0,0.0,0.0,0.0,0.0,0.0,0.0,0.0,0.0,0.0,0.0,0.0,0.0,0.0,0.0,0.0,0.0,0.0,0.0,0.0,0.0,0.0,0.0,0.0,0.0,0.0,0.0,0.0,0.0,0.0,0.0,0.0,0.0,0.0,0.0,0.0,0.0,0.0,0.0,0.0,0.0,0.0,0.0,0.0,0.0,0.0,0.0,0.0,0.0,0.0,0.0,0.0,0.0,0.0,0.0,0.0,0.0,0.0,0.0,0.0,0.0,0.0,0.0,0.0,0.0,0.0,0.0,0.0,0.0,0.0,0.0,0.0,0.0,0.0,0.0,0.0,0.0,0.0,0.0,0.0,0.0,0.0,0.0,0.0,0.0,0.0,0.0,0.0,0.0,0.0,0.0,0.0,0.0,0.0,0.0,0.0,0.0,0.0,0.0,0.0,0.0,0.0,0.0,0.0,0.0,0.0,0.0,0.0,0.0,0.0,0.0,0.0,0.0,0.0,0.0,0.0,0.0,0.0,0.0,0.0,0.0,0.0,0.0,0.0,0.0,0.0,0.0,0.0,0.0,0.0,0.0,0.0,0.0,0.0,0.0,0.0,0.0,0.0,0.0,0.0,0.0,0.0,0.0,0.0,0.0,0.0,0.0,0.0,0.0,0.0,0.0,0.0,0.0,0.0,0.0,0.0,0.0,0.0,0.0,0.0,0.0,0.0,0.0,0.0,0.0,0.0,0.0,0.0,0.0,0.0,0.0,0.0,0.0,0.0,0.0,0.0,0.0,0.0,0.0,0.0,0.0,0.0,0.0,0.0,0.0,0.0,0.0,0.0,0.0,0.0,0.0,0.0,0.0,0.0,0.0,0.0,0.0,0.0,0.0,0.0,0.0,0.0,0.0,0.0,0.0,0.0,0.0,0.0,0.0,0.0,0.0,0.0,0.0,0.0,0.0,0.0,0.0,0.0,0.0,0.0,0.0,0.0,0.0,0.0,0.0,0.0,0.0,0.0,0.0,0.0,0.0,0.0,0.0,0.0,0.0,0.0,0.0,0.0,0.0,0.0,0.0,0.0,0.0,0.0,0.0,0.0,0.0,0.0,0.0,0.0,0.0,0.0,0.0,0.0,0.0,0.0,0.0,0.0,0.0,0.0,0.0,0.0,0.0,0.0,0.0,0.0,0.0,0.0,0.0,0.0,0.0,0.0,0.0,0.0,0.0,0.0,0.0,0.0,0.0,0.0,0.0,0.0,0.0,0.0,0.0,0.0,0.0,0.0,0.0,0.0,0.0,0.0,0.0,0.0,0.0,0.0,0.0,0.0,0.0,0.0,0.0,0.0,0.0,0.0,0.0,0.0,0.0,0.0,0.0,0.0,0.0,0.0,0.0,0.0,0.0,0.0,0.0,0.0,0.0,0.0,0.0,0.0,0.0,0.0,0.0,0.0,0.0,0.0,0.0,0.0,0.0,0.0,0.0,0.0,0.0,0.0,0.0,0.0,0.0,0.0,0.0,0.0,0.0,0.0,0.0,0.0,0.0,0.0,0.0,0.0,0.0,0.0,0.0,0.0,0.0,0.0,0.0,0.0,0.0,0.0,0.0,0.0,0.0,0.0,0.0,0.0,0.0,0.0,0.0,0.0,0.0,0.0,0.0,0.0,0.0,0.0,0.0,0.0,0.0,0.0,0.0,0.0,0.0,0.0,0.0,0.0,0.0,0.0,0.0,0.0,0.0,0.0,0.0,0.0,0.0,0.0,0.0,0.0,0.0,0.0,0.0,0.0,0.0,0.0,0.0,0.0,0.0,0.0,0.0,0.0,0.0,0.0,0.0,0.0,0.0,0.0,0.0,0.0,0.0,0.0,0.0,0.0,0.0,0.0,0.0,0.0,0.0,0.0,0.0,0.0,0.0,0.0,0.0,0.0,0.0,0.0,0.0,0.0,0.0,0.0,0.0,0.0,0.0,0.0,0.0,0.0,0.0,0.0,0.0,0.0,0.0,0.0,0.0,0.0,0.0,0.0,0.0,0.0,0.0,0.0,0.0,0.0,0.0,0.0,0.0,0.0,0.0,0.0,0.0,0.0,0.0,0.0,0.0,0.0,0.0,0.0,0.0,0.0,0.0,0.0,0.0,0.0,0.0,0.0,0.0,0.0,0.0,0.0,0.0,0.0,0.0,0.0,0.0,0.0,0.0,0.0,0.0,0.0,0.0,0.0,0.0,0.0,0.0,0.0,0.0,0.0,0.0,0.0,0.0,0.0,0.0,0.0,0.0,0.0,0.0,0.0,0.0,0.0,0.0,0.0,0.0,0.0,0.0,0.0,0.0,0.0,0.0,0.0,0.0,0.0,0.0,0.0,0.0,0.0,0.0,0.0,0.0,0.0,0.0,0.0,0.0,0.0,0.0,0.0,0.0,0.0,0.0,0.0,0.0,0.0,0.0,0.0,0.0,0.0,0.0,0.0,0.0,0.0,0.0,0.0,0.0,0.0,0.0,0.0,0.0,0.0,0.0,0.0,0.0,0.0,0.0,0.0,0.0,0.0,0.0,0.0,0.0,0.0,0.0,0.0,0.0,0.0,0.0,0.0,0.0,0.0,0.0,0.0,0.0,0.0,0.0,0.0,0.0,0.0,0.0,0.0,0.0,0.0,0.0,0.0,0.0,0.0,0.0,0.0,0.0,0.0,0.0,0.0,0.0,0.0,0.0,0.0,0.0,0.0,0.0,0.0,0.0,0.0,0.0,0.0,0.0,0.0,0.0,0.0,0.0,0.0,0.0,0.0,0.0,0.0,0.0,0.0,0.0,0.0,0.0,0.0,0.0,0.0,0.0,0.0,0.0,0.0,0.0,0.0,0.0,0.0,0.0,0.0,0.0,0.0,0.0,0.0,0.0,0.0,0.0,0.0,0.0,0.0,0.0,0.0,0.0,0.0,0.0,0.0,0.0,0.0,0.0,0.0,0.0,0.0,0.0,0.0,0.0,0.0,0.0,0.0,0.0,0.0,0.0,0.0,0.0,0.0,0.0,0.0,0.0,0.0,0.0,0.0,-1.6984,0.0,0.0,0.0,0.0,0.0,0.0,0.0,0.0,0.0,0.0,0.0,0.0,0.0,0.0,0.0,0.0,0.0,0.0,0.0,0.0,0.0,0.0,0.0,0.0,0.0,0.0,0.0,0.0,0.0,0.0,0.0,0.0,0.0,0.0,0.0,0.0,0.0,0.0,0.0,0.0,0.0,0.0,0.0,0.0,0.0,0.0,0.0,0.0,0.0,0.0,0.0,0.0,0.0,0.0,0.0,0.0,0.0,0.0,0.0,0.0,0.0,0.0,0.0,0.0,0.0,0.0,0.0,0.0,0.0,0.0,0.0,0.0,0.0,0.0,0.0,0.0,0.0,0.0,0.0,0.0,0.0,0.0,0.0,0.0,0.0,0.0,0.0,0.0,0.0,0.0,0.0,0.0,0.0,0.0,0.0,0.0,0.0,0.0,0.0,0.0,0.0,0.0,0.0,0.0,0.0,0.0,0.0,0.0,0.0,0.0,-1.8133,-1.8046,-1.8343,-1.8325,-1.7872,0.0,0.0,0.0,0.0,0.0,0.0,0.0,0.0,0.0,0.0,0.0,0.0,0.0,0.0,0.0,0.0,0.0,0.0,0.0,0.0,0.0,0.0,0.0,0.0,0.0,0.0,0.0,0.0,0.0,0.0,0.0,0.0,0.0,0.0,0.0,0.0,0.0,0.0,0.0,0.0,0.0,0.0,0.0,0.0,0.0,0.0,0.0,0.0,0.0,0.0,0.0,0.0,0.0,0.0,0.0,0.0,0.0,0.0,0.0,0.0,0.0,0.0,0.0,0.0,0.0,0.0,0.0,0.0,0.0,0.0,0.0,0.0,0.0,0.0,0.0,0.0,0.0,0.0,0.0,0.0,0.0,0.0,0.0,0.0,0.0,0.0,0.0,0.0,0.0,0.0,0.0,0.0,0.0,0.0,0.0,0.0,0.0,0.0,0.0,0.0,0.0,0.0,0.0,0.0,0.0,0.0,0.0,0.0,0.0,0.0,0.0,0.0,-1.9554,-1.941,-1.8676,0.0,0.0,0.0,0.0,0.0,0.0,0.0,0.0,0.0,0.0,0.0,0.0,0.0,0.0,0.0,0.0,0.0,0.0,0.0,0.0,0.0,0.0,0.0,0.0,0.0,0.0,0.0,0.0,0.0,0.0,0.0,0.0,0.0,0.0,0.0,0.0,0.0,0.0,0.0,0.0,0.0,0.0,0.0,0.0,0.0,0.0,0.0,0.0,0.0,0.0,0.0,0.0,0.0,0.0,0.0,0.0,0.0,0.0,0.0,0.0,0.0,0.0,0.0,0.0,0.0,0.0,0.0,0.0,0.0,0.0,0.0,0.0,0.0,0.0,0.0,0.0,0.0,0.0,0.0,0.0,0.0,0.0,0.0,0.0,0.0,0.0,0.0,0.0,0.0,0.0,0.0,0.0,0.0,0.0,0.0,0.0,0.0,0.0,0.0,0.0,0.0,0.0,0.0,0.0,0.0,0.0,0.0,0.0,0.0,0.0,-2.023,-2.0147,-2.0102,0.0,-1.892,0.0,0.0,0.0,0.0,0.0,0.0,0.0,0.0,0.0,0.0,0.0,0.0,0.0,0.0,0.0,0.0,0.0,0.0,0.0,0.0,0.0,0.0,0.0,0.0,0.0,0.0,0.0,0.0,0.0,0.0,0.0,0.0,0.0,0.0,0.0,0.0,0.0,0.0,0.0,0.0,0.0,0.0,0.0,0.0,0.0,0.0,0.0,0.0,0.0,0.0,0.0,0.0,0.0,0.0,0.0,0.0,0.0,0.0,0.0,0.0,0.0,0.0,0.0,0.0,0.0,0.0,0.0,0.0,0.0,0.0,0.0,0.0,0.0,0.0,0.0,0.0,0.0,0.0,0.0,0.0,0.0,0.0,0.0,0.0,0.0,0.0,0.0,0.0,0.0,0.0,0.0,0.0,0.0,0.0,0.0,0.0,0.0,0.0,0.0,0.0,0.0,0.0,0.0,0.0,0.0,0.0,0.0,0.0,0.0,0.0,0.0,-2.1059,-2.0959,-2.0738,0.0,0.0,0.0,0.0,0.0,0.0,0.0,0.0,0.0,0.0,0.0,0.0,0.0,0.0,0.0,0.0,0.0,0.0,0.0,0.0,0.0,0.0,0.0,0.0,0.0,0.0,0.0,0.0,0.0,0.0,0.0,0.0,0.0,0.0,0.0,0.0,0.0,0.0,0.0,0.0,0.0,0.0,0.0,0.0,0.0,0.0,0.0,0.0,0.0,0.0,0.0,0.0,0.0,0.0,0.0,0.0,0.0,0.0,0.0,0.0,0.0,0.0,0.0,0.0,0.0,0.0,0.0,0.0,0.0,0.0,0.0,0.0,0.0,0.0,0.0,0.0,0.0,0.0,0.0,0.0,0.0,0.0,0.0,0.0,0.0,0.0,0.0,0.0,0.0,0.0,0.0,0.0,0.0,0.0,0.0,0.0,0.0,0.0,0.0,0.0,0.0,0.0,0.0,0.0,0.0,0.0,0.0,0.0,0.0,0.0,-2.1779,0.0,-2.2002,-2.1952,-2.1814,-2.1606,0.0,0.0,0.0,0.0,0.0,0.0,0.0,0.0,0.0,0.0,0.0,0.0,0.0,0.0,0.0,0.0,0.0,0.0,0.0,0.0,0.0,0.0,0.0,0.0,0.0,0.0,0.0,0.0,0.0,0.0,0.0,0.0,0.0,0.0,0.0,0.0,0.0,0.0,0.0,0.0,0.0,0.0,0.0,0.0,0.0,0.0,0.0,0.0,0.0,0.0,0.0,0.0,0.0,0.0,0.0,0.0,0.0,0.0,0.0,0.0,0.0,0.0,0.0,0.0,0.0,0.0,0.0,0.0,0.0,0.0,0.0,0.0,0.0,0.0,0.0,0.0,0.0,0.0,0.0,0.0,0.0,0.0,0.0,0.0,0.0,0.0,0.0,0.0,0.0,0.0,0.0,0.0,0.0,0.0,0.0,0.0,0.0,0.0,0.0,0.0,0.0,0.0,0.0,0.0,0.0,0.0,0.0,0.0,0.0,-2.2823,-2.3116,-2.3077,-2.2968,-2.2643,0.0,0.0,0.0,0.0,0.0,0.0,0.0,0.0,0.0,0.0,0.0,0.0,0.0,0.0,0.0,0.0,0.0,0.0,0.0,0.0,0.0,0.0,0.0,0.0,0.0,0.0,0.0,0.0,0.0,0.0,0.0,0.0,0.0,0.0,0.0,0.0,0.0,0.0,0.0,0.0,0.0,0.0,0.0,0.0,0.0,0.0,0.0,0.0,0.0,0.0,0.0,0.0,0.0,0.0,0.0,0.0,0.0,0.0,0.0,0.0,0.0,0.0,0.0,0.0,0.0,0.0,0.0,0.0,0.0,0.0,0.0,0.0,0.0,0.0,0.0,0.0,0.0,0.0,0.0,0.0,0.0,0.0,0.0,0.0,0.0,0.0,0.0,0.0,0.0,0.0,0.0,0.0,0.0,0.0,0.0,0.0,0.0,0.0,0.0,0.0,0.0,0.0,0.0,0.0,0.0,0.0,0.0,0.0,0.0,-2.3952,-2.4539,-2.4832,-2.4807,-2.4322,-2.3897,0.0,0.0,0.0,0.0,0.0,0.0,0.0,0.0,0.0,0.0,0.0,0.0,0.0,0.0,0.0,0.0,0.0,0.0,0.0,0.0,0.0,0.0,0.0,0.0,0.0,0.0,0.0,0.0,0.0,0.0,0.0,0.0,0.0,0.0,0.0,0.0,0.0,0.0,0.0,0.0,0.0,0.0,0.0,0.0,0.0,0.0,0.0,0.0,0.0,0.0,0.0,0.0,0.0,0.0,0.0,0.0,0.0,0.0,0.0,0.0,0.0,0.0,0.0,0.0,0.0,0.0,0.0,0.0,0.0,0.0,0.0,0.0,0.0,0.0,0.0,0.0,0.0,0.0,0.0,0.0,0.0,0.0,0.0,0.0,0.0,0.0,0.0,0.0,0.0,0.0,0.0,0.0,0.0,0.0,0.0,0.0,0.0,0.0,0.0,0.0,0.0,0.0,0.0,0.0,0.0,0.0,0.0,0.0,0.0,-2.5695,0.0,-2.6355,0.0,-2.5817,-2.5279,0.0,0.0,0.0,0.0,0.0,0.0,0.0,0.0,0.0,0.0,0.0,0.0,0.0,0.0,0.0,0.0,0.0,0.0,0.0,0.0,0.0,0.0,0.0,0.0,0.0,0.0,0.0,0.0,0.0,0.0,0.0,0.0,0.0,0.0,0.0,0.0,0.0,0.0,0.0,0.0,0.0,0.0,0.0,0.0,0.0,0.0,0.0,0.0,0.0,0.0,0.0,0.0,0.0,0.0,0.0,0.0,0.0,0.0,0.0,0.0,0.0,0.0,0.0,0.0,0.0,0.0,0.0,0.0,0.0,0.0,0.0,0.0,0.0,0.0,0.0,0.0,0.0,0.0,0.0,0.0,0.0,0.0,0.0,0.0,0.0,0.0,0.0,0.0,0.0,0.0,0.0,0.0,0.0,0.0,0.0,0.0,0.0,0.0,0.0,0.0,0.0,0.0,0.0,0.0,0.0,0.0,0.0,0.0,-2.6023,-2.7453,-2.7598,-2.7707,-2.7562,-2.7598,-2.6776,0.0,0.0,0.0,0.0,0.0,0.0,0.0,0.0,0.0,0.0,0.0,0.0,0.0,0.0,0.0,0.0,0.0,0.0,0.0,0.0,0.0,0.0,0.0,0.0,0.0,0.0,0.0,0.0,0.0,0.0,0.0,0.0,0.0,0.0,0.0,0.0,0.0,0.0,0.0,0.0,0.0,0.0,0.0,0.0,0.0,0.0,0.0,0.0,0.0,0.0,0.0,0.0,0.0,0.0,0.0,0.0,0.0,0.0,0.0,0.0,0.0,0.0,0.0,0.0,0.0,0.0,0.0,0.0,0.0,0.0,0.0,0.0,0.0,0.0,0.0,0.0,0.0,0.0,0.0,0.0,0.0,0.0,0.0,0.0,0.0,0.0,0.0,0.0,0.0,0.0,0.0,0.0,0.0,0.0,0.0,0.0,0.0,0.0,0.0,0.0,0.0,0.0,0.0,0.0,0.0,0.0,0.0,0.0,0.0,-3.0368,-3.1384,-3.1678,-3.1152,-3.0589,-2.9478,0.0,0.0,0.0,0.0,0.0,0.0,0.0,0.0,0.0,0.0,0.0,0.0,0.0,0.0,0.0,0.0,0.0,0.0,0.0,0.0,0.0,0.0,0.0,0.0,0.0,0.0,0.0,0.0,0.0,0.0,0.0,0.0,0.0,0.0,0.0,0.0,0.0,0.0,0.0,0.0,0.0,0.0,0.0,0.0,0.0,0.0,0.0,0.0,0.0,0.0,0.0,0.0,0.0,0.0,0.0,0.0,0.0,0.0,0.0,0.0,0.0,0.0,0.0,0.0,0.0,0.0,0.0,0.0,0.0,0.0,0.0,0.0,0.0,0.0,0.0,0.0,0.0,0.0,0.0,0.0,0.0,0.0,0.0,0.0,0.0,0.0,0.0,0.0,0.0,0.0,0.0,0.0,0.0,0.0,0.0,0.0,0.0,0.0,0.0,0.0,0.0,0.0,0.0,0.0,0.0,0.0,0.0,0.0,0.0,-3.5021,-3.4969,-3.4733,-3.424,-3.3118,-3.1616,-2.965,0.0,0.0,0.0,0.0,0.0,0.0,0.0,0.0,0.0,0.0,0.0,0.0,0.0,0.0,0.0,0.0,0.0,0.0,0.0,0.0,0.0,0.0,0.0,0.0,0.0,0.0,0.0,0.0,0.0,0.0,0.0,0.0,0.0,0.0,0.0,0.0,0.0,0.0,0.0,0.0,0.0,0.0,0.0,0.0,0.0,0.0,0.0,0.0,0.0,0.0,0.0,0.0,0.0,0.0,0.0,0.0,0.0,0.0,0.0,0.0,0.0,0.0,0.0,0.0,0.0,0.0,0.0,0.0,0.0,0.0,0.0,0.0,0.0,0.0,0.0,0.0,0.0,0.0,0.0,0.0,0.0,0.0,0.0,0.0,0.0,0.0,0.0,0.0,0.0,0.0,0.0,0.0,0.0,0.0,0.0,0.0,0.0,0.0,0.0,0.0,0.0,0.0,0.0,0.0,0.0,0.0,0.0,0.0,-4.0813,-3.8376,-3.7043,-3.6931,-3.5417,-3.3385,0.0,0.0,0.0,0.0,0.0,0.0,0.0,0.0,0.0,0.0,0.0,0.0,0.0,0.0,0.0,0.0,0.0,0.0,0.0,0.0,0.0,0.0,0.0,0.0,0.0,0.0,0.0,0.0,0.0,0.0,0.0,0.0,0.0,0.0,0.0,0.0,0.0,0.0,0.0,0.0,0.0,0.0,0.0,0.0,0.0,0.0,0.0,0.0,0.0,0.0,0.0,0.0,0.0,0.0,0.0,0.0,0.0,0.0,0.0,0.0,0.0,0.0,0.0,0.0,0.0,0.0,0.0,0.0,0.0,0.0,0.0,0.0,0.0,0.0,0.0,0.0,0.0,0.0,0.0,0.0,0.0,0.0,0.0,0.0,0.0,0.0,0.0,0.0,0.0,0.0,0.0,0.0,0.0,0.0,0.0,0.0,0.0,0.0,0.0,0.0,0.0,0.0,0.0,0.0,0.0,0.0,0.0,0.0,0.0,-4.2479,-4.1927,-4.0974,-3.9687,-3.8626,-3.6883,0.0,0.0,0.0,0.0,0.0,0.0,0.0,0.0,0.0,0.0,0.0,0.0,0.0,0.0,0.0,0.0,0.0,0.0,0.0,0.0,0.0,0.0,0.0,0.0,0.0,0.0,0.0,0.0,0.0,0.0,0.0,0.0,0.0,0.0,0.0,0.0,0.0,0.0,0.0,0.0,0.0,0.0,0.0,0.0,0.0,0.0,0.0,0.0,0.0,0.0,0.0,0.0,0.0,0.0,0.0,0.0,0.0,0.0,0.0,0.0,0.0,0.0,0.0,0.0,0.0,0.0,0.0,0.0,0.0,0.0,0.0,0.0,0.0,0.0,0.0,0.0,0.0,0.0,0.0,0.0,0.0,0.0,0.0,0.0,0.0,0.0,0.0,0.0,0.0,0.0,0.0,0.0,0.0,0.0,0.0,0.0,0.0,0.0,0.0,0.0,0.0,0.0,0.0,0.0,0.0,0.0,0.0,0.0,-4.2377,-4.4796,-4.4871,-4.4205,-4.2865,-4.099,-3.8865,0.0,0.0,0.0,0.0,0.0,0.0,0.0,0.0,0.0,0.0,0.0,0.0,0.0,0.0,0.0,0.0,0.0,0.0,0.0,0.0,0.0,0.0,0.0,0.0,0.0,0.0,0.0,0.0,0.0,0.0,0.0,0.0,0.0,0.0,0.0,0.0,0.0,0.0,0.0,0.0,0.0,0.0,0.0,0.0,0.0,0.0,0.0,0.0,0.0,0.0,0.0,0.0,0.0,0.0,0.0,0.0,0.0,0.0,0.0,0.0,0.0,0.0,0.0,0.0,0.0,0.0,0.0,0.0,0.0,0.0,0.0,0.0,0.0,0.0,0.0,0.0,0.0,0.0,0.0,0.0,0.0,0.0,0.0,0.0,0.0,0.0,0.0,0.0,0.0,0.0,0.0,0.0,0.0,0.0,0.0,0.0,0.0,0.0,0.0,0.0,0.0,0.0,0.0,0.0,0.0,0.0,0.0,0.0,-4.3727,-4.6786,-4.6974,-4.6636,-4.581,-4.2859,-4.0077,0.0,0.0,0.0,0.0,0.0,0.0,0.0,0.0,0.0,0.0,0.0,0.0,0.0,0.0,0.0,0.0,0.0,0.0,0.0,0.0,0.0,0.0,0.0,0.0,0.0,0.0,0.0,0.0,0.0,0.0,0.0,0.0,0.0,0.0,0.0,0.0,0.0,0.0,0.0,0.0,0.0,0.0,0.0,0.0,0.0,0.0,0.0,0.0,0.0,0.0,0.0,0.0,0.0,0.0,0.0,0.0,0.0,0.0,0.0,0.0,0.0,0.0,0.0,0.0,0.0,0.0,0.0,0.0,0.0,0.0,0.0,0.0,0.0,0.0,0.0,0.0,0.0,0.0,0.0,0.0,0.0,0.0,0.0,0.0,0.0,0.0,0.0,0.0,0.0,0.0,0.0,0.0,0.0,0.0,0.0,0.0,0.0,0.0,0.0,0.0,0.0,0.0,0.0,0.0,0.0,0.0,0.0,0.0,-4.458,-4.596,-4.6636,-4.6966,-4.6807,-4.4842,-4.2596,0.0,0.0,0.0,0.0,0.0,0.0,0.0,0.0,0.0,0.0,0.0,0.0,0.0,0.0,0.0,0.0,0.0,0.0,0.0,0.0,0.0,0.0,0.0,0.0,0.0,0.0,0.0,0.0,0.0,0.0,0.0,0.0,0.0,0.0,0.0,0.0,0.0,0.0,0.0,0.0,0.0,0.0,0.0,0.0,0.0,0.0,0.0,0.0,-2.7052,0.0,0.0,0.0,0.0,0.0,0.0,0.0,0.0,0.0,0.0,0.0,0.0,0.0,0.0,0.0,0.0,0.0,0.0,0.0,0.0,0.0,0.0,0.0,0.0,0.0,0.0,0.0,0.0,0.0,0.0,0.0,0.0,0.0,0.0,0.0,0.0,0.0,0.0,0.0,0.0,0.0,0.0,0.0,0.0,0.0,0.0,0.0,0.0,0.0,0.0,0.0,0.0,0.0,0.0,0.0,0.0,0.0,0.0,0.0,-4.5942,-4.7484,-4.8002,-4.8115,-4.7687,-4.6516,-4.4444,0.0,0.0,0.0,0.0,0.0,0.0,0.0,0.0,0.0,0.0,0.0,0.0,0.0,0.0,0.0,0.0,0.0,0.0,0.0,0.0,0.0,0.0,0.0,0.0,0.0,0.0,0.0,0.0,0.0,0.0,0.0,0.0,0.0,0.0,0.0,0.0,0.0,0.0,0.0,0.0,0.0,0.0,0.0,0.0,0.0,0.0,0.0,0.0,0.0,0.0,0.0,0.0,0.0,0.0,0.0,0.0,0.0,0.0,0.0,0.0,0.0,0.0,0.0,0.0,0.0,0.0,0.0,0.0,0.0,0.0,0.0,0.0,0.0,0.0,0.0,0.0,0.0,0.0,0.0,0.0,0.0,0.0,0.0,0.0,0.0,0.0,0.0,0.0,0.0,0.0,0.0,0.0,0.0,0.0,0.0,0.0,0.0,0.0,0.0,0.0,0.0,0.0,0.0,0.0,0.0,0.0,0.0,-4.518,-4.7278,-4.9303,-4.9588,-4.934,-4.8633,-4.7891,-4.5961,-4.2649,0.0,0.0,0.0,0.0,0.0,0.0,0.0,0.0,0.0,0.0,0.0,0.0,0.0,0.0,0.0,0.0,0.0,0.0,0.0,0.0,0.0,0.0,0.0,0.0,0.0,0.0,0.0,0.0,0.0,0.0,0.0,0.0,0.0,0.0,0.0,0.0,0.0,0.0,-2.6754,-2.8991,0.0,0.0,0.0,0.0,0.0,0.0,0.0,0.0,-3.1675,0.0,0.0,0.0,0.0,0.0,0.0,0.0,0.0,0.0,0.0,0.0,0.0,0.0,0.0,0.0,0.0,0.0,0.0,0.0,0.0,0.0,0.0,0.0,0.0,0.0,0.0,0.0,0.0,0.0,0.0,0.0,0.0,0.0,0.0,0.0,0.0,0.0,0.0,0.0,0.0,0.0,0.0,0.0,0.0,0.0,0.0,0.0,0.0,0.0,0.0,0.0,0.0,0.0,0.0,0.0,0.0,-4.2309,-4.5998,-4.8135,-4.8607,-4.9315,-4.9692,-4.9625,-4.8926,-4.7239,-4.457,0.0,0.0,0.0,0.0,0.0,0.0,0.0,0.0,0.0,0.0,0.0,0.0,0.0,0.0,0.0,0.0,0.0,0.0,0.0,0.0,0.0,0.0,0.0,0.0,0.0,0.0,0.0,0.0,0.0,0.0,0.0,0.0,0.0,0.0,0.0,0.0,0.0,0.0,0.0,-3.2144,-3.3372,0.0,0.0,0.0,0.0,0.0,0.0,0.0,0.0,-3.4011,0.0,0.0,0.0,0.0,0.0,0.0,0.0,0.0,0.0,0.0,0.0,0.0,0.0,0.0,0.0,0.0,0.0,0.0,0.0,0.0,0.0,0.0,0.0,0.0,0.0,0.0,0.0,0.0,0.0,0.0,0.0,0.0,0.0,0.0,0.0,0.0,0.0,0.0,0.0,0.0,0.0,0.0,0.0,0.0,0.0,0.0,0.0,0.0,0.0,0.0,0.0,0.0,0.0,0.0,0.0,-4.4003,-4.6506,-4.8183,-4.9126,-4.9635,-4.9928,-5.0047,-4.8834,-4.7205,0.0,0.0,0.0,0.0,0.0,0.0,0.0,0.0,0.0,0.0,0.0,0.0,0.0,0.0,0.0,0.0,0.0,0.0,0.0,0.0,0.0,0.0,0.0,0.0,0.0,0.0,0.0,0.0,0.0,0.0,0.0,0.0,0.0,0.0,0.0,0.0,0.0,0.0,0.0,0.0,-3.4903,-3.6112,-3.6491,0.0,0.0,0.0,0.0,0.0,0.0,-3.7305,-3.6949,0.0,0.0,0.0,0.0,0.0,0.0,0.0,0.0,0.0,0.0,0.0,0.0,0.0,0.0,0.0,0.0,0.0,0.0,0.0,0.0,0.0,0.0,0.0,0.0,0.0,0.0,0.0,0.0,0.0,0.0,0.0,0.0,0.0,0.0,0.0,0.0,0.0,0.0,0.0,0.0,0.0,0.0,0.0,0.0,0.0,0.0,0.0,0.0,0.0,0.0,0.0,0.0,0.0,0.0,0.0,-4.58,-4.7305,-4.8737,-5.0134,-5.0252,-5.0355,-5.0455,-4.9052,-4.7346,0.0,0.0,0.0,0.0,0.0,0.0,0.0,0.0,0.0,0.0,0.0,0.0,0.0,0.0,0.0,0.0,0.0,0.0,0.0,0.0,0.0,0.0,0.0,0.0,0.0,0.0,0.0,0.0,0.0,0.0,0.0,0.0,0.0,0.0,0.0,0.0,0.0,0.0,0.0,0.0,0.0,-3.8405,-3.9312,-3.9579,0.0,0.0,0.0,0.0,-3.9401,-3.9772,0.0,0.0,0.0,0.0,0.0,0.0,0.0,0.0,0.0,0.0,0.0,0.0,0.0,0.0,0.0,0.0,0.0,0.0,0.0,0.0,0.0,0.0,0.0,0.0,0.0,0.0,0.0,0.0,0.0,0.0,0.0,0.0,0.0,0.0,0.0,0.0,0.0,0.0,0.0,0.0,0.0,0.0,0.0,0.0,0.0,0.0,0.0,0.0,0.0,0.0,0.0,0.0,0.0,0.0,0.0,0.0,-4.5984,-4.9116,-5.0854,-5.1125,-5.1294,-5.1356,-5.1415,-5.0626,-4.868,0.0,0.0,0.0,0.0,0.0,0.0,0.0,0.0,0.0,0.0,0.0,0.0,0.0,0.0,0.0,0.0,0.0,0.0,0.0,0.0,0.0,0.0,0.0,0.0,0.0,0.0,0.0,0.0,0.0,0.0,0.0,0.0,0.0,0.0,0.0,0.0,0.0,0.0,0.0,0.0,0.0,-3.9528,-4.1059,-4.1846,-4.223,0.0,0.0,-4.2967,-4.2087,-4.1985,0.0,0.0,0.0,0.0,0.0,0.0,0.0,0.0,0.0,0.0,0.0,0.0,0.0,0.0,0.0,0.0,0.0,0.0,0.0,0.0,0.0,0.0,0.0,0.0,0.0,0.0,0.0,0.0,0.0,0.0,0.0,0.0,0.0,0.0,0.0,0.0,0.0,0.0,0.0,0.0,0.0,0.0,0.0,0.0,0.0,0.0,0.0,0.0,0.0,0.0,0.0,0.0,0.0,0.0,0.0,-4.3718,-4.6732,-4.9224,-5.0836,-5.1459,-5.2064,-5.2181,-5.177,-5.1027,-4.9028,0.0,0.0,0.0,0.0,0.0,0.0,0.0,0.0,0.0,0.0,0.0,0.0,0.0,0.0,0.0,0.0,0.0,0.0,0.0,0.0,0.0,0.0,0.0,0.0,0.0,0.0,0.0,0.0,0.0,0.0,0.0,0.0,0.0,0.0,0.0,0.0,0.0,0.0,0.0,0.0,0.0,0.0,-4.3466,-4.4363,0.0,0.0,0.0,-4.5156,-4.4786,0.0,0.0,0.0,0.0,0.0,0.0,0.0,0.0,0.0,0.0,0.0,0.0,0.0,0.0,0.0,0.0,0.0,0.0,0.0,0.0,0.0,0.0,0.0,0.0,0.0,0.0,0.0,0.0,0.0,0.0,0.0,0.0,0.0,0.0,0.0,0.0,0.0,0.0,0.0,0.0,0.0,0.0,0.0,0.0,0.0,0.0,0.0,0.0,0.0,0.0,0.0,0.0,0.0,0.0,0.0,0.0,0.0,-4.7669,-4.9695,-5.1231,-5.2241,-5.2992,-5.3025,-5.2261,-5.1472,0.0,0.0,0.0,0.0,0.0,0.0,0.0,0.0,0.0,0.0,0.0,0.0,0.0,0.0,0.0,0.0,0.0,0.0,0.0,0.0,0.0,0.0,0.0,0.0,0.0,0.0,0.0,-2.2502,0.0,0.0,0.0,0.0,0.0,0.0,0.0,0.0,0.0,0.0,0.0,0.0,0.0,0.0,-4.3763,-4.5658,-4.6587,-4.7181,0.0,0.0,-4.7664,-4.7441,-4.7218,-4.6624,0.0,0.0,0.0,0.0,0.0,0.0,0.0,0.0,0.0,0.0,0.0,0.0,0.0,0.0,0.0,0.0,0.0,0.0,0.0,0.0,0.0,0.0,0.0,0.0,0.0,0.0,0.0,0.0,0.0,0.0,0.0,0.0,0.0,0.0,0.0,0.0,0.0,0.0,0.0,0.0,0.0,0.0,0.0,0.0,0.0,0.0,0.0,0.0,0.0,0.0,0.0,0.0,0.0,0.0,0.0,-4.8644,-5.1294,-5.3082,-5.4104,-5.4254,-5.3954,-5.3128,-5.2412,-5.04,0.0,0.0,0.0,0.0,0.0,0.0,0.0,0.0,0.0,0.0,0.0,0.0,0.0,0.0,0.0,0.0,0.0,0.0,0.0,0.0,0.0,0.0,0.0,0.0,0.0,0.0,0.0,0.0,0.0,0.0,0.0,0.0,0.0,0.0,0.0,0.0,0.0,0.0,0.0,0.0,0.0,-4.4804,-4.7218,-4.8221,-4.9002,0.0,0.0,-5.0822,-4.9968,-4.9224,-4.8481,-4.759,0.0,0.0,0.0,0.0,0.0,0.0,0.0,0.0,0.0,0.0,0.0,0.0,0.0,0.0,0.0,0.0,0.0,0.0,0.0,0.0,0.0,0.0,0.0,0.0,0.0,0.0,0.0,0.0,0.0,0.0,0.0,0.0,0.0,0.0,0.0,0.0,0.0,0.0,0.0,0.0,0.0,0.0,0.0,0.0,0.0,0.0,0.0,0.0,0.0,0.0,0.0,0.0,0.0,-4.6374,-4.9725,-5.189,-5.3459,-5.4434,-5.5036,-5.4979,-5.4148,-5.3353,-5.1338,0.0,0.0,0.0,0.0,0.0,0.0,0.0,0.0,0.0,0.0,0.0,0.0,0.0,0.0,0.0,0.0,0.0,0.0,0.0,0.0,0.0,0.0,0.0,0.0,0.0,0.0,0.0,0.0,-2.6876,-2.8029,-2.9072,0.0,0.0,0.0,0.0,0.0,0.0,0.0,0.0,0.0,0.0,-4.681,-4.8259,-4.9596,0.0,0.0,-5.1193,-5.1305,-5.0933,-5.0636,-5.0153,-4.9299,-4.7927,0.0,0.0,0.0,0.0,0.0,0.0,0.0,0.0,0.0,0.0,0.0,0.0,0.0,0.0,0.0,0.0,0.0,0.0,0.0,0.0,0.0,0.0,0.0,0.0,0.0,0.0,0.0,0.0,0.0,0.0,0.0,0.0,0.0,0.0,0.0,0.0,0.0,0.0,0.0,0.0,0.0,0.0,0.0,0.0,0.0,0.0,0.0,0.0,0.0,0.0,0.0,0.0,-4.766,-5.0828,-5.2871,-5.4398,-5.5307,-5.5981,-5.5959,-5.5127,-5.431,-5.2407,0.0,0.0,0.0,0.0,0.0,0.0,0.0,0.0,0.0,0.0,0.0,0.0,0.0,0.0,0.0,0.0,0.0,0.0,0.0,0.0,0.0,0.0,0.0,0.0,0.0,0.0,0.0,0.0,-2.8569,-2.982,-3.1341,0.0,0.0,0.0,0.0,0.0,0.0,0.0,0.0,0.0,0.0,-4.8925,-5.019,-5.1379,-5.2308,-5.2791,-5.2865,-5.2865,-5.2865,-5.2642,-5.2271,-5.1713,0.0,0.0,0.0,0.0,0.0,0.0,0.0,0.0,0.0,0.0,0.0,0.0,0.0,0.0,0.0,0.0,0.0,0.0,0.0,0.0,0.0,0.0,0.0,0.0,0.0,0.0,0.0,0.0,0.0,0.0,-3.6559,0.0,0.0,0.0,0.0,0.0,0.0,0.0,0.0,0.0,0.0,0.0,0.0,0.0,0.0,0.0,0.0,0.0,0.0,0.0,0.0,0.0,0.0,-4.926,-5.1876,-5.4438,-5.6175,-5.71,-5.7177,-5.6845,-5.6101,-5.5226,-5.3576,-5.1062,0.0,0.0,0.0,0.0,0.0,0.0,0.0,0.0,0.0,0.0,0.0,0.0,0.0,0.0,0.0,0.0,0.0,0.0,0.0,0.0,0.0,0.0,0.0,0.0,0.0,0.0,-2.9275,-3.0825,-3.2179,0.0,0.0,0.0,0.0,0.0,0.0,0.0,0.0,0.0,0.0,-4.9142,-5.1078,-5.3311,-5.372,-5.4351,-5.5912,-5.6172,-5.6172,-5.6172,-5.5466,-5.4984,0.0,0.0,0.0,0.0,0.0,0.0,0.0,0.0,0.0,0.0,0.0,0.0,0.0,0.0,0.0,0.0,0.0,0.0,0.0,0.0,0.0,0.0,0.0,0.0,0.0,0.0,0.0,-4.4867,-4.436,0.0,0.0,0.0,0.0,0.0,0.0,0.0,0.0,0.0,0.0,0.0,-4.915,-4.9276,0.0,0.0,0.0,0.0,0.0,0.0,0.0,0.0,0.0,0.0,0.0,0.0,-5.0924,-5.4398,-5.5513,-5.6725,-5.8131,-5.8209,-5.7799,-5.6978,-5.6164,-5.4008,-5.0326,0.0,0.0,0.0,0.0,0.0,0.0,0.0,0.0,0.0,0.0,0.0,0.0,0.0,0.0,0.0,0.0,0.0,0.0,0.0,0.0,0.0,0.0,0.0,0.0,0.0,-2.9699,0.0,0.0,0.0,0.0,0.0,0.0,0.0,0.0,0.0,0.0,0.0,-4.8258,-5.0101,-5.23,-5.398,-5.4764,-5.5809,-5.6667,0.0,0.0,0.0,0.0,0.0,0.0,0.0,0.0,0.0,0.0,0.0,0.0,0.0,0.0,-5.113,-4.8521,-4.7624,-4.7261,-4.734,0.0,0.0,0.0,0.0,0.0,0.0,0.0,0.0,0.0,0.0,0.0,0.0,0.0,0.0,-5.0156,0.0,-4.8778,0.0,0.0,0.0,0.0,0.0,0.0,0.0,0.0,-5.2446,-5.2903,-5.3204,-5.3327,-5.321,0.0,-5.2728,-5.0568,0.0,0.0,0.0,0.0,0.0,0.0,0.0,0.0,-5.318,-5.6327,-5.7133,-5.8032,-5.9134,-5.9172,-5.8901,-5.8333,-5.6989,-5.4531,-5.0864,-4.8038,-4.5881,0.0,0.0,0.0,0.0,0.0,0.0,0.0,0.0,0.0,0.0,0.0,0.0,0.0,0.0,0.0,0.0,0.0,0.0,0.0,0.0,0.0,0.0,0.0,-3.2381,0.0,0.0,0.0,0.0,0.0,0.0,0.0,0.0,0.0,-4.6497,-4.8844,-5.1292,-5.2847,-5.4982,-5.648,-5.6669,0.0,0.0,0.0,0.0,0.0,0.0,0.0,-5.9719,-5.9841,-5.9472,-5.9328,-5.965,-5.9533,-5.9414,-5.9443,0.0,0.0,-5.3622,-5.2303,-5.176,-5.1851,-5.2471,-5.3128,-5.3514,-5.4199,-5.5064,0.0,0.0,0.0,0.0,0.0,0.0,0.0,0.0,-5.4766,-5.4803,0.0,-5.3872,0.0,0.0,0.0,0.0,0.0,-5.38,0.0,0.0,-5.635,-5.6805,-5.7571,-5.7651,-5.7274,-5.6524,-5.7312,-5.6862,-5.5069,-5.107,0.0,0.0,0.0,0.0,0.0,0.0,-5.5913,-5.7586,-5.9257,-6.0137,-6.0137,-6.0176,-6.0151,-6.0035,-5.7698,-5.5219,-5.2728,-5.0918,-4.8855,-4.6397,-4.453,0.0,0.0,0.0,0.0,0.0,0.0,0.0,0.0,0.0,0.0,0.0,0.0,0.0,0.0,0.0,0.0,0.0,0.0,0.0,0.0,-3.4899,0.0,0.0,0.0,0.0,0.0,0.0,0.0,0.0,0.0,0.0,-5.0402,-5.213,-5.4113,-5.5601,0.0,0.0,0.0,0.0,-6.098,-6.1732,-6.1842,-6.1799,-6.1718,-6.1715,-6.1715,-6.1799,0.0,0.0,-6.2568,-6.2833,-6.2994,-6.3015,-6.2357,-6.0724,-5.7537,-5.611,-5.5396,-5.545,-5.6071,-5.6844,-5.77,-5.8377,-5.9283,-6.0983,0.0,0.0,0.0,0.0,-5.7699,-5.8123,-5.8412,-5.8992,-5.8913,-5.8368,-5.7517,0.0,0.0,0.0,0.0,0.0,0.0,-5.8056,-5.8948,-5.9575,-6.0046,-6.0293,-6.0394,-6.0331,-6.0078,-5.9786,-5.9372,-5.8858,-5.7037,-5.4864,-5.2489,0.0,0.0,0.0,0.0,-5.7741,-5.941,-6.0511,-6.1095,-6.111,-6.1693,-6.1421,-6.0188,-5.7748,-5.6046,-5.5288,-5.2436,-5.0529,-4.9776,-4.6912,0.0,0.0,0.0,0.0,0.0,0.0,0.0,0.0,0.0,0.0,0.0,0.0,0.0,0.0,0.0,0.0,0.0,0.0,0.0,-3.6718,-3.8399,-4.0061,0.0,0.0,0.0,0.0,0.0,0.0,0.0,0.0,0.0,-5.7325,-5.7291,-5.787,0.0,0.0,-6.13,-6.1458,-6.2211,-6.3007,-6.3728,-6.4294,0.0,0.0,-6.5298,-6.5257,-6.5379,-6.5653,-6.5947,-6.6222,-6.6389,-6.6452,-6.6445,-6.5796,-6.4879,-6.3944,-6.1096,-5.912,-5.906,-5.9699,-6.0311,-6.0671,-6.136,-6.1917,-6.6706,-6.4211,-6.2297,-6.1331,-6.1119,-6.166,-6.1679,-6.1427,-6.1949,-6.1908,-6.1419,-6.0583,-5.9972,-5.9474,-5.8985,0.0,0.0,0.0,-6.108,-6.1638,-6.2224,-6.2458,-6.2483,-6.2562,-6.26,-6.2586,-6.2116,-6.1894,-6.1933,-6.1403,-6.0119,-5.8046,0.0,0.0,-5.8991,-5.9545,-6.0473,-6.1754,-6.2309,-6.2581,-6.2551,-6.2736,-6.218,-6.0788,-5.8597,-5.7128,-5.6388,-5.4081,-5.2281,-5.122,-4.9186,-4.7129,0.0,0.0,0.0,0.0,0.0,0.0,0.0,0.0,0.0,0.0,0.0,-3.682,0.0,0.0,0.0,0.0,-3.8588,-3.9338,-4.1091,-4.2561,0.0,0.0,0.0,0.0,0.0,0.0,0.0,-5.7311,-5.8818,-6.0455,-6.2362,-6.1955,-6.1629,-6.1881,-6.2883,-6.3541,-6.347,0.0,-6.5407,-6.5796,-6.6218,-6.656,-6.6935,-6.697,-6.693,-6.7009,-6.7315,-6.7604,-6.774,-6.7833,-6.7897,-6.7821,-6.7515,-6.7202,-6.7331,-6.5159,-6.3207,-6.2689,-6.2985,-6.3433,-6.3806,-6.4238,-6.4632,-7.1678,-7.133,-6.8197,-6.6379,-6.5528,-6.5412,-6.4948,-6.4232,-6.4193,-6.417,-6.405,-6.3324,-6.2998,-6.3015,-6.3029,0.0,-6.3145,-6.3949,-6.4338,-6.4402,-6.4492,-6.4516,-6.4491,-6.4462,-6.4458,-6.4509,-6.4392,-6.4325,-6.4375,-6.4297,-6.4375,-6.4414,-6.2071,-6.1676,-6.3149,-6.3188,-6.3572,-6.4294,-6.4372,-6.4365,-6.4294,-6.337,-6.2542,-6.1724,-6.001,-5.8325,-5.67,-5.5677,-5.4012,-5.1552,-5.119,-4.9588,-4.6433,0.0,0.0,0.0,0.0,0.0,0.0,0.0,0.0,0.0,0.0,0.0,0.0,0.0,0.0,0.0,-4.3559,0.0,-4.6055,-4.7116,0.0,0.0,0.0,-5.4025,-5.582,-5.7527,-5.9249,-6.094,0.0,0.0,-6.5782,-6.5947,-6.5168,-6.3473,-6.4589,-6.548,-6.534,-6.6706,-6.7807,-6.7745,-6.761,-6.7504,-6.7619,-6.7505,-6.7504,-6.7581,-6.7688,-6.7977,-6.8011,-6.8106,-6.8126,-6.8203,-6.8126,-6.8158,-6.8288,-6.8204,-6.785,-6.6364,-6.5942,-6.6096,-6.6671,-6.6863,-6.7027,-7.4811,-7.4115,-7.3303,-7.1756,-6.9783,-6.9087,-6.87,-6.8429,-6.791,-6.7309,-6.6687,-6.6545,-6.6167,-6.5683,-6.5673,-6.5686,-6.5752,-6.6569,-6.6971,-6.7061,-6.7732,-6.8065,-6.8047,-6.743,-6.7149,-6.7084,-6.5887,-6.5267,-6.5273,-6.4609,-6.496,-6.6092,-6.5585,-6.5194,-6.4999,-6.4999,-6.5072,-6.5184,-6.5847,-6.5868,-6.5152,-6.3682,-6.2767,-6.2512,-6.0877,-5.9454,-5.8343,-5.6819,-5.5423,-5.4077,-5.2097,-5.0618,-4.9737,-4.7603,0.0,0.0,0.0,0.0,0.0,0.0,0.0,0.0,0.0,-4.3867,-4.5492,0.0,-4.6644,0.0,-4.7012,-4.7805,-4.955,-5.0619,0.0,0.0,-5.6066,-5.7785,-6.02,-6.1401,-6.2781,-6.4523,-6.5447,-6.6423,-6.7667,-6.7756,-6.7549,-6.7055,-6.7246,-6.7386,-6.7424,-6.763,-6.8062,-6.8569,-6.8655,-6.8815,-6.9169,-6.9285,-6.9247,-6.9471,-6.9541,-6.9611,-6.9747,-6.9775,-6.9807,-6.9807,-6.991,-6.9973,-7.0026,-7.0124,-7.0028,-6.9651,-6.8625,-6.7752,-6.7999,-6.801,-6.8032,-7.7311,-7.6862,-7.6862,-7.6011,-7.4541,-7.2181,-7.0943,-7.0556,-7.0214,-6.9576,-6.8741,-6.8424,-6.8086,-6.7728,-6.7719,-6.7722,-6.7813,-6.8241,-6.8487,-6.8561,-6.906,-6.9314,-6.9341,-6.8905,-6.8691,-6.8658,-6.7727,-6.7303,-6.7264,-6.6795,-6.7029,-6.7927,-6.7976,-6.7941,-6.7867,-6.7477,-6.7277,-6.7234,-6.7336,-6.7149,-6.6594,-6.4919,-6.3837,-6.3336,-6.134,-5.9799,-5.888,-5.7198,-5.5863,-5.4943,-5.3475,-5.2291,-5.146,-5.004,-4.897,0.0,0.0,0.0,0.0,0.0,0.0,0.0,0.0,0.0,0.0,0.0,-5.0422,-5.0454,-5.0885,-5.1881,-5.3565,-5.4684,-5.6226,-5.8557,-6.0085,-6.1672,-6.354,-6.4487,-6.5538,-6.6959,-6.7499,-6.809,-6.8912,-6.9066,-6.9155,-6.9382,-6.9347,-6.9144,-6.8808,-6.8901,-6.9228,-6.9551,-6.9594,-6.968,-7.0038,-7.0077,-7.0077,-7.0149,-7.022,-7.0289,-7.0353,-7.0386,-7.0419,-7.0419,-7.0451,-7.0554,-7.0639,-7.0699,-7.0787,-7.0755,-7.014,-6.9563,-6.9513,-6.9487,-6.9432,-7.9409,-7.9168,-7.9168,-7.9091,-7.8742,-7.4989,-7.29,-7.1971,-7.1881,-7.1436,-7.0678,-6.9933,-6.9578,-6.9616,-6.9483,-6.9474,-6.9557,-6.9535,-6.9557,-6.9644,-6.9644,-6.967,-6.9738,-6.9627,-6.9556,-6.9567,-6.945,-6.9411,-6.9416,-6.9411,-6.945,-6.9567,-6.9581,-7.0019,-7.0806,-7.01,-6.9667,-6.9546,-6.8684,-6.8249,-6.8154,-6.6457,-6.5127,-6.4195,-6.1746,-5.997,-5.8972,-5.7494,-5.6272,-5.5343,-5.5188,-5.4404,-5.285,-5.2607,-5.2049,0.0,-5.0932,0.0,0.0,0.0,0.0,0.0,0.0,0.0,0.0,-5.3685,-5.4214,-5.4176,-5.4893,-5.6021,-5.7629,-5.8698,-6.0023,-6.1908,-6.3646,-6.5087,-6.6103,-6.6936,-6.777,-6.8732,-6.8886,-6.931,-7.0196,-7.0273,-7.0555,-7.1091,-7.1161,-7.0834,-7.0162,-7.0264,-7.0439,-7.0451,-7.0353,-7.0213,-7.022,-7.0185,-7.0223,-7.022,-7.0255,-7.0362,-7.0548,-7.0615,-7.061,-7.0763,-7.0877,-7.0904,-7.0984,-7.1083,-7.1112,-7.1332,-7.1283,-7.1129,-7.086,-7.0717,-7.0843,-8.1436,-8.0135,-8.0135,-7.9709,-7.8994,-7.8219,-7.6975,-7.5443,-7.415,-7.3544,-7.3379,-7.2617,-7.2291,-7.2274,-7.1587,-7.1338,-7.1369,-7.139,-7.139,-7.1417,-7.1402,-7.1409,-7.1377,-7.0766,-7.0459,-7.0426,-6.9762,-6.9411,-6.9411,-6.9411,-6.9762,-7.0465,-7.0465,-7.0899,-7.1719,0.0,0.0,0.0,-6.9545,-6.908,-6.9011,-6.7217,-6.5867,-6.4984,-6.3153,0.0,-5.984,-5.942,-5.8806,-5.7937,-5.7207,0.0,0.0,0.0,0.0,0.0,0.0,0.0,0.0,0.0,0.0,0.0,-5.7786,-5.7856,-5.6436,-5.7612,-5.8442,-5.8442,-5.8665,-5.9223,-6.024,-6.131,-6.2673,-6.4496,-6.5714,-6.6814,-6.7795,-6.8706,-6.954,-7.0427,-7.112,-7.1891,-7.2584,-7.2893,-7.2866,-7.286,-7.2919,-7.2745,-7.2524,-7.1466,-7.0685,-7.0554,-7.0539,-7.0324,-7.0289,-7.0331,-7.0411,-7.0289,-7.0289,-7.0625,-7.1264,-7.145,-7.1756,-7.2253,-7.2549,-7.2576,-7.2663,-7.2763,-7.2745,-7.2947,-7.2976,-7.2591,-7.1206,-7.0843,-7.0787,-8.2876,0.0,-8.1691,-8.1187,0.0,-7.9968,-7.9329,-7.8398,-7.6711,-7.5543,-7.481,-7.397,-7.3674,-7.3752,-7.3276,-7.3124,-7.3181,-7.2743,-7.2557,-7.2533,-7.208,-7.1891,-7.1937,-7.1513,-7.1363,-7.1324,-7.0894,-7.0699,-7.0699,-7.0699,-7.0933,-7.1363,-7.1318,-7.1507,-7.1937,-7.194,-7.1759,-7.1282,-7.0367,-6.9663,-6.9176,-6.7864,-6.6508,-6.5164,0.0,0.0,0.0,0.0,0.0,0.0,0.0,0.0,0.0,0.0,0.0,-5.6764,-5.6996,-5.7145,-5.7167,-5.8158,-5.9041,-5.9549,-6.1462,-6.1863,-5.9966,-6.0543,-6.1186,-6.1637,-6.1675,-6.2201,-6.3517,-6.4182,-6.5105,-6.6506,-6.7544,-6.8541,-6.9525,-7.0425,-7.1325,-7.2174,-7.2714,-7.3176,-7.36,-7.3613,-7.3559,-7.3514,-7.3447,-7.3418,-7.3313,-7.2601,-7.1904,-7.1848,-7.1751,-7.1613,-7.1651,-7.1617,-7.1544,-7.1651,-7.1651,-7.1837,-7.2253,-7.2329,-7.252,-7.2902,-7.3012,-7.3079,-7.3176,-7.32,-7.3292,-7.3351,-7.3447,-7.3255,-7.2265,-7.2083,-7.2025,-8.4005,-8.3225,-8.3092,-8.2626,-8.191,-8.1097,-8.0708,-8.0491,0.0,0.0,0.0,-7.4987,-7.4587,-7.4639,-7.4494,-7.4431,-7.4437,-7.3774,-7.3431,-7.3374,-7.2555,-7.2171,-7.2221,-7.2065,-7.1987,-7.1987,-7.1987,-7.1987,-7.1987,-7.1987,-7.1982,-7.1982,-7.1924,-7.1909,-7.1854,-7.1858,-7.1856,-7.1821,-7.1081,-7.0227,-6.9313,-6.8451,-6.7144,-6.5351,-6.4462,-6.3264,-6.1715,-6.0943,-6.0228,-5.9532,-5.9493,-5.9456,-5.93,-5.9258,-5.9127,-5.8962,-5.9469,-5.9759,-5.9741,-6.0912,-6.1797,-6.2124,-6.428,-6.4862,-6.3123,-6.3209,-6.363,-6.4381,-6.4351,-6.4955,-6.6421,-6.6759,-6.7273,-6.8334,-6.9298,-7.0297,-7.1217,-7.1992,-7.2842,-7.3704,-7.3884,-7.3999,-7.4166,-7.4152,-7.4021,-7.3966,-7.4091,-7.3909,-7.387,-7.3484,-7.3016,-7.2952,-7.2816,-7.2902,-7.2979,-7.2902,-7.2979,-7.2864,-7.2902,-7.3055,-7.317,-7.3208,-7.3246,-7.3552,-7.3437,-7.3509,-7.3576,-7.3712,-7.366,-7.3714,-7.3812,-7.388,-7.3744,-7.3714,-7.3568,-8.4981,-8.4126,-8.3465,-8.3095,-8.2919,-8.2137,-8.1369,-8.0543,-7.8839,-7.7959,-7.7715,-7.6208,-7.5546,-7.5546,-7.4821,-7.4484,-7.4513,-7.4389,-7.4311,0.0,-7.3465,-7.3114,-7.308,-7.2339,-7.1987,-7.1987,-7.1987,-7.1987,-7.1987,-7.1937,-7.193,-7.1924,-7.1893,-7.1838,-7.1719,-7.1745,-7.169,-7.1542,-7.149,-7.1023,-7.0149,-6.9225,-6.7929,-6.6205,-6.5296,-6.4387,-6.3381,-6.3207,-6.3091,-6.3013,-6.2975,-6.2935,-6.2772,-6.269,-6.2613,-6.2465,-6.2393,-6.2386,-6.2442,-6.2527,-6.3268,-6.4679,-6.6269,-6.6467,-6.5047,-6.6117,-6.6958,-6.6964,-6.6888,-6.704,-6.7379,-6.8164,-6.9022,-6.9993,-7.1061,-7.2054,-7.2813,-7.3196,-7.374,-7.4538,-7.4706,-7.5015,-7.5501,-7.5628,-7.5562,-7.562,-7.5399,-7.5562,-7.5165,-7.4183,-7.3284,-7.3111,-7.3046,-7.2979,-7.317,-7.3017,-7.3132,-7.2979,-7.3132,-7.3399,-7.3972,-7.4049,-7.424,-7.4966,-7.4966,-7.5038,-7.5107,-7.5255,-7.5168,-7.5156,-7.5187,-7.5226,-7.5187,-7.5124,-7.4752,-8.5912,-8.5075,-8.4254,-8.3671,-8.3165,-8.2387,-8.1844,-8.1376,-8.0168,-7.9076,-7.8191,-7.7433,-7.6897,-7.6478,-7.6076,-7.5904,-7.5891,-7.5417,-7.5222,-7.5149,-7.433,-7.3939,-7.3861,-7.3119,-7.269,-7.269,-7.2221,-7.1982,-7.1937,-7.1891,-7.1916,-7.1893,-7.1827,-7.1745,-7.1661,-7.163,-7.1525,-7.1455,-7.1508,-7.112,-7.0215,-6.9363,-6.8278,-6.6999,-6.6128,-6.5257,-6.4445,-6.4406,-6.4174,-6.371,-6.3671,-6.3631,-6.3505,-6.3483,-6.3353,-6.3245,-6.4024,-6.4441,-6.4346,-6.5138,-6.5887,-6.6624,-6.7736,-6.8155,-6.7425,-6.7448,-6.7724,-6.8212,-6.8215,-6.8669,-6.9645,-7.0171,-7.0811,-7.181,-7.2395,-7.3061,-7.388,-7.4186,-7.4588,-7.532,-7.5501,-7.5721,-7.6052,-7.6062,-7.6072,-7.6015,-7.5985,-7.5895,-7.5769,-7.5047,-7.4484,-7.4451,-7.4384,-7.4354,-7.4316,-7.4354,-7.4354,-7.4354,-7.4354,-7.4507,-7.4851,-7.4889,-7.5042,-7.5386,-7.5501,-7.5535,-7.557,-7.5566,-7.5599,-7.5633,-7.566,-7.566,-7.5666,-7.5599,-7.5264,-8.6666,-8.6016,-8.5175,-8.4241,-8.3297,-8.2455,-8.2101,-8.2055,-8.1451,-8.0241,-7.8711,-7.8408,-7.7879,-7.7114,-7.7075,-7.7089,-7.6984,-7.6399,-7.6086,-7.6008,-7.5188,-7.4798,-7.472,-7.3939,-7.3471,-7.3236,-7.2567,-7.2132,-7.1924,-7.1909,-7.1876,-7.1817,-7.1732,-7.1606,-7.1564,-7.1511,-7.1455,-7.1376,-7.1436,-7.101,-7.0078,-6.9438,-6.8605,-6.7518,-6.6801,-6.6088,-6.5296,-6.5257,-6.4948,-6.4329,-6.4251,-6.4268,-6.4354,-6.4332,-6.4378,-6.4501,-6.5601,-6.6277,-6.6212,-6.7424,-6.8171,-6.8074,-6.8908,-6.9399,-6.936,-6.8815,-6.8671,-6.9348,-6.9538,-7.0179,-7.157,-7.1947,-7.2363,-7.3322,-7.3499,-7.3944,-7.4832,-7.5033,-7.532,-7.5975,-7.609,-7.6052,-7.6062,-7.6005,-7.6015,-7.5985,-7.5895,-7.5769,-7.5633,-7.5599,-7.5566,-7.5566,-7.5535,-7.5386,-7.5501,-7.5424,-7.5424,-7.5501,-7.5424,-7.5348,-7.5389,-7.5427,-7.5427,-7.5427,-7.5427,-7.5462,-7.5501,-7.557,-7.5566,-7.5566,-7.5633,-7.5633,-7.5599,-7.5497,-7.5427,-8.7028,-8.688,-8.6052,-8.4857,-8.342,-8.2533,-8.2201,-8.2179,-8.2109,-8.1141,-7.9587,-7.876,-7.7941,-7.7173,-7.7095,-7.7101,-7.7101,-7.7023,-7.6945,-7.6828,-7.6086,-7.5657,-7.5618,-7.4798,-7.4017,-7.3426,-7.3186,-7.2704,-7.1995,-7.1858,-7.1731,-7.1645,-7.1614,-7.1547,-7.1455,-7.1396,-7.1355,-7.1313,-7.1313,-7.0866,-6.9988,-6.981,-6.8999,-6.7371,-6.7232,-6.6814,-6.6088,-6.6028,-6.5968,-6.5992,-6.5951,-6.6196,-6.6785,-6.6868,-6.7166,-6.7782,-6.7972,-6.8004,-6.7936,-6.861,-6.9011,-6.8951,-6.9645,-7.0175,-7.0243,-7.0819,-7.1204,-7.1353,-7.1384,-7.1799,-7.2711,-7.2958,-7.3437,-7.4235,-7.4474,-7.4879,-7.5571,-7.5928,-7.5985,-7.5967,-7.6062,-7.6062,-7.6005,-7.6015,-7.5985,-7.5895,-7.5731,-7.5633,-7.5599,-7.5532,-7.5535,-7.5535,-7.5501,-7.5501,-7.5501,-7.5501,-7.5501,-7.5501,-7.5501,-7.5427,-7.5392,-7.5356,-7.5281,-7.532,-7.532,-7.5356,-7.5465,-7.5535,-7.5462,-7.5497,-7.5497,-7.5535,-7.5462,-7.5392,-7.5356,-8.7181,-8.7144,-8.6323,-8.499,-8.3497,-8.2561,-8.2226,-8.2241,-8.2241,-8.1584,-8.0459,-7.9554,-7.8383,-7.7101,-7.7101,-7.7101,-7.7101,-7.7101,-7.7101,-7.7062,-7.6711,-7.6555,-7.6477,-7.5657,-7.5065,-7.4747,-7.4226,-7.3501,-7.2638,-7.1991,-7.1661,-7.1598,-7.1529,-7.1436,-7.1376,-7.1373,-7.1313,-7.1291,-7.1291,-7.1054,-7.0614,-7.0135,-6.9556,-6.8876,-6.8351,-6.7965,-6.7708,-6.7647,-6.7647,-6.7669,-6.7647,-6.7757,-6.801,-6.8,-6.809,-6.8398,-6.8751,-6.9165,-6.9604,-6.9795,-6.9922,-6.9922,-7.0686,-7.1183,-7.1357,-7.2046,-7.2767,-7.322,-7.2882,-7.2887,-7.3756,-7.3967,-7.4405,-7.5195,-7.5476,-7.5649,-7.5967,-7.6062,-7.6062,-7.6005,-7.6044,-7.6044,-7.6015,-7.5985,-7.5895,-7.5794,-7.5666,-7.5566,-7.557,-7.5535,-7.5501,-7.5501,-7.5501,-7.5465,-7.5392,-7.5465,-7.5465,-7.5392,-7.5392,-7.5356,-7.532,-7.5246,-7.5209,-7.5247,-7.5284,-7.5284,-7.5321,-7.5356,-7.5392,-7.5392,-7.5392,-7.5394,-7.5358,-7.5284,-7.5209,-8.7259,-8.7214,-8.6375,-8.5184,-8.3795,-8.2936,-8.2475,-8.2293,-8.2293,-8.1792,-8.0978,-8.0314,-7.9098,-7.757,-7.7224,-7.7073,-7.7073,-7.7073,-7.7107,-7.7101,-7.7101,-7.7101,-7.7023,-7.6471,-7.6035,-7.5709,-7.514,-7.4236,-7.3106,-7.2375,-7.1814,-7.1624,-7.1436,-7.1376,-7.1355,-7.1313,-7.1291,-7.1291,-7.1291,-7.1247,-7.1038,-7.056,-7.0135,-6.9832,-6.9268,-6.8868,-6.8722,-6.8706,-6.869,-6.869,-6.8668,-6.8737,-6.8847,-6.8822,-6.8912,-6.9064,-6.9491,-7.0047,-7.0669,-7.0547,-7.063,-7.103,-7.1567,-7.205,-7.2485,-7.3176,-7.3927,-7.4514,-7.4235,-7.432,-7.4789,-7.4994,-7.539,-7.5995,-7.6118,-7.6145,-7.6118,-7.6118,-7.609,-7.6034,-7.6101,-7.6044,-7.6015,-7.5925,-7.5794,-7.5699,-7.5633,-7.5532,-7.5535,-7.5501,-7.5501,-7.5501,-7.5501,-7.5465,-7.5356,-7.5392,-7.5392,-7.532,-7.5283,-7.532,-7.5246,-7.5171,-7.5133,-7.5133,-7.5133,-7.5171,-7.5247,-7.5246,-7.5283,-7.5283,-7.5246,-7.5246,-7.5171,-7.5095,-7.5055,-8.7312,-8.726,-8.6464,-8.5566,-8.4675,-8.3855,-8.3035,-8.2293,-8.2293,-8.1842,-8.1117,-8.0922,-7.9977,-7.8317,-7.7556,-7.7097,-7.7097,-7.7091,-7.7078,-7.7101,-7.7101,-7.7101,-7.7101,-7.7043,-7.6607,-7.5936,-7.5767,-7.4781,-7.3192,-7.2896,-7.2362,-7.1572,-7.1513,-7.1394,-7.1313,-7.1291,-7.1291,-7.1291,-7.1291,-7.1269,-7.1201,-7.1124,-7.0681,-6.999,-6.9785,-6.945,-6.8858,-6.8722,-6.8729,-6.8729,-6.8737,-6.8998,-6.9618,-6.972,-6.9948,-7.0546,-7.0671,-7.0719,-7.0699,-7.0746,-7.1083,-7.1833,-7.2169,-7.2534,-7.3443,-7.4252,-7.4807,-7.5001,-7.5594,-7.5967,-7.5952,-7.5967,-7.6096,-7.616,-7.625,-7.6276,-7.6198,-7.6198,-7.6198,-7.6172,-7.6172,-7.609,-7.5976,-7.5826,-7.5731,-7.5633,-7.5532,-7.5535,-7.5501,-7.5501,-7.5501,-7.5501,-7.5501,-7.5427,-7.5356,-7.5392,-7.543,-7.5284,-7.5209,-7.5246,-7.5133,-7.5017,-7.5017,-7.4979,-7.5017,-7.5017,-7.5171,-7.5209,-7.5171,-7.5171,-7.5133,-7.5095,-7.4977,-7.4897,-7.4854,-8.7377,-8.7315,-8.6471,-8.5573,-8.4753,-8.3933,-8.3086,-8.232,-8.2299,-8.2143,-8.1764,-8.1273,-8.0328,-7.9215,-7.8362,-7.768,-7.7184,-7.7139,-7.7087,-7.7101,-7.7101,-7.7101,-7.7101,-7.7082,-7.695,-7.6622,-7.6526,-7.5846,-7.4584,-7.3915,-7.3142,-7.2404,-7.2207,-7.1893,-7.1407,-7.1291,-7.1291,-7.1291,-7.1291,-7.1269,-7.1224,-7.1201,-7.1,-7.0734,-7.0632,-7.0527,-7.0313,-7.0274,-7.0274,-7.0313,-7.0242,-7.031,-7.0504,-7.0502,-7.0591,-7.0832,-7.0815,-7.0787,-7.0892,-7.1324,-7.1776,-7.2234,-7.3273,-7.3944,-7.4449,-7.5195,-7.5812,-7.5925,-7.6165,-7.6382,-7.6427,-7.6405,-7.6421,-7.6397,-7.6444,-7.6444,-7.6397,-7.635,-7.6326,-7.6276,-7.6198,-7.6062,-7.5985,-7.5794,-7.566,-7.5599,-7.5532,-7.5535,-7.5501,-7.5501,-7.5501,-7.5501,-7.5501,-7.5427,-7.5284,-7.5394,-7.543,-7.5209,-7.5133,-7.5133,-7.5056,-7.4937,-7.4937,-7.4857,-7.4857,-7.4816,-7.4897,-7.4897,-7.4935,-7.4897,-7.4897,-7.4857,-7.4733,-7.4691,-7.4644,-8.7393,-8.7329,-8.6783,-8.5852,-8.4804,-8.4252,-8.3359,-8.2398,-8.232,-8.232,-8.2168,-8.167,-8.0928,-8.0059,-7.9274,-7.8422,-7.7573,-7.7256,-7.7087,-7.7101,-7.7101,-7.7101,-7.7089,-7.7075,-7.7051,-7.7014,-7.6936,-7.6358,-7.5426,-7.4693,-7.3935,-7.3119,-7.2783,-7.2336,-7.1756,-7.1446,-7.1291,-7.1291,-7.1291,-7.1269,-7.1247,-7.1224,-7.1201,-7.1216,-7.1154,-7.1178,-7.1208,-7.1186,-7.1178,-7.1154,-7.1106,-7.103,-7.0979,-7.0925,-7.0898,-7.0871,-7.0843,-7.0997,-7.1321,-7.1832,-7.2454,-7.3164,-7.4192,-7.499,-7.5398,-7.6049,-7.6366,-7.651,-7.6573,-7.6633,-7.6651,-7.6671,-7.6614,-7.6573,-7.6594,-7.6594,-7.6553,-7.6488,-7.6421,-7.6326,-7.6225,-7.6062,-7.5955,-7.5756,-7.566,-7.5599,-7.5532,-7.5501,-7.5501,-7.5501,-7.5501,-7.5501,-7.5501,-7.543,-7.5321,-7.5394,-7.5321,-7.5171,-7.5171,-7.5133,-7.5055,-7.4935,-7.4854,-7.4733,-7.4649,-7.4606,-7.4606,-7.4606,-7.4606,-7.4606,-7.4649,-7.4649,-7.4519,-7.4432,-7.438,-8.7407,-8.7407,-8.7407,-8.6366,-8.498,-8.4809,-8.3855,-8.2467,-8.23,-8.2304,-8.2265,-8.2226,-8.1679,-8.0898,-7.9959,-7.9173,-7.8254,-7.7442,-7.7087,-7.7101,-7.7101,-7.7089,-7.7075,-7.7051,-7.7014,-7.6948,-7.6809,-7.6281,-7.5527,-7.5273,-7.4784,-7.3911,-7.317,-7.2839,-7.2607,-7.1872,-7.1369,-7.1369,-7.1369,-7.1291,-7.1291,-7.1291,-7.1247,-7.1216,-7.1201,-7.1201,-7.1216,-7.1201,-7.1154,-7.103,-7.1005,-7.0979,-7.0925,-7.0898,-7.0871,-7.0843,-7.0909,-7.136,-7.2041,-7.2365,-7.3343,-7.4494,-7.5082,-7.5592,-7.626,-7.6536,-7.6614,-7.6669,-7.676,-7.6809,-7.6879,-7.6894,-7.6809,-7.6743,-7.6726,-7.6669,-7.6614,-7.6614,-7.6531,-7.6397,-7.6276,-7.6145,-7.6005,-7.5826,-7.566,-7.5599,-7.5532,-7.5501,-7.5501,-7.5501,-7.5501,-7.5501,-7.5501,-7.543,-7.5394,-7.5358,-7.5171,-7.5055,-7.5133,-7.5171,-7.5015,-7.4895,-7.4812,-7.4691,-7.4563,-7.4476,-7.4432,-7.4432,-7.4476,-7.4476,-7.4476,-7.4432,-7.4342,-7.4243,-7.4151,-8.7407,-8.7407,-8.7407,-8.6431,-8.5005,-8.4909,-8.3901,-8.2383,-8.2304,-8.2304,-8.2304,-8.2304,-8.1797,-8.0937,-8.0069,-7.9239,-7.838,-7.7512,-7.7112,-7.7101,-7.7101,-7.7089,-7.7067,-7.7034,-7.6933,-7.6855,-7.676,-7.6516,-7.6245,-7.6105,-7.5653,-7.4834,-7.4463,-7.4038,-7.3458,-7.2645,-7.2181,-7.2142,-7.1562,-7.1291,-7.1291,-7.1291,-7.1308,-7.1269,-7.1269,-7.1247,-7.1201,-7.1154,-7.1106,-7.1056,-7.103,-7.0979,-7.0925,-7.0952,-7.0952,-7.1029,-7.1583,-7.2045,-7.2481,-7.3534,-7.4417,-7.5188,-7.5756,-7.6206,-7.6555,-7.6708,-7.6738,-7.677,-7.6816,-7.6897,-7.6948,-7.696,-7.6923,-7.6825,-7.6825,-7.6793,-7.6743,-7.6652,-7.651,-7.6374,-7.625,-7.6145,-7.6005,-7.5826,-7.566,-7.5633,-7.5532,-7.5535,-7.5501,-7.5501,-7.5501,-7.5501,-7.5501,-7.5465,-7.5358,-7.5358,-7.5246,-7.5133,-7.5133,-7.5133,-7.5015,-7.4895,-7.4812,-7.4649,-7.4476,-7.4387,-7.4297,-7.4297,-7.4297,-7.4252,-7.4289,-7.4197,-7.4151,-7.4056,-7.3961,-8.742,-8.7407,-8.7407,-8.6639,-8.537,-8.5076,-8.4101,-8.2851,-8.2422,-8.2304,-8.2304,-8.2304,-8.1992,-8.1367,-8.0563,-7.9689,-7.8844,-7.7966,-7.7407,-7.7134,-7.7089,-7.7082,-7.7059,-7.6994,-7.6897,-7.6777,-7.6708,-7.6633,-7.6553,-7.645,-7.6173,-7.5662,-7.5276,-7.485,-7.4309,-7.3535,-7.3071,-7.2993,-7.2568,-7.2104,-7.1872,-7.1794,-7.164,-7.1308,-7.1269,-7.1224,-7.1178,-7.113,-7.1106,-7.1106,-7.1056,-7.103,-7.0979,-7.13,-7.1519,-7.1711,-7.2379,-7.307,-7.3528,-7.4463,-7.5365,-7.5759,-7.6303,-7.663,-7.6721,-7.6825,-7.6869,-7.6871,-7.6909,-7.6944,-7.7014,-7.7004,-7.6983,-7.6923,-7.6949,-7.6908,-7.6793,-7.671,-7.657,-7.6397,-7.6276,-7.6145,-7.6034,-7.5887,-7.5724,-7.5666,-7.5566,-7.5497,-7.5535,-7.5501,-7.5539,-7.5539,-7.5501,-7.543,-7.5283,-7.5283,-7.5356,-7.5246,-7.5171,-7.5133,-7.4977,-7.4935,-7.4854,-7.4644,-7.4432,-7.438,-7.4289,-7.4243,-7.4243,-7.4151,-7.4104,-7.4056,-7.4056,-7.3826,-7.3765,-8.7397,-8.7414,-8.7414,-8.6936,-8.6054,-8.5273,-8.4375,-8.3515,-8.2656,-8.2304,-8.2304,-8.2304,-8.2304,-8.207,-8.1265,-8.0381,-7.9639,-7.8702,-7.7791,-7.7277,-7.7075,-7.7059,-7.6985,-7.6923,-7.6825,-7.6726,-7.6633,-7.6573,-7.6531,-7.6444,-7.6397,-7.6204,-7.5624,-7.5237,-7.5044,-7.4386,-7.396,-7.396,-7.3844,-7.3342,-7.2723,-7.2684,-7.2236,-7.1418,-7.1379,-7.1317,-7.1154,-7.1246,-7.1221,-7.1144,-7.1183,-7.1274,-7.1376,-7.1993,-7.2481,-7.2519,-7.3341,-7.4146,-7.485,-7.5249,-7.572,-7.6457,-7.6626,-7.6738,-7.6883,-7.6936,-7.6972,-7.7004,-7.7024,-7.7004,-7.7004,-7.7034,-7.7053,-7.7072,-7.7065,-7.6936,-7.6809,-7.6749,-7.6785,-7.6698,-7.6441,-7.6365,-7.6475,-7.6331,-7.6209,-7.6076,-7.6054,-7.6063,-7.5994,-7.6074,-7.5768,-7.5844,-7.6112,-7.6117,-7.6235,-7.6271,-7.6346,-7.6198,-7.597,-7.5627,-7.5169,-7.4973,-7.4854,-7.4644,-7.4469,-7.4335,-7.4243,-7.4243,-7.4197,-7.4151,-7.4104,-7.4056,-7.3912,-7.3765,-7.3628,-8.744,-8.7457,-8.7457,-8.699,-8.6133,-8.5273,-8.4414,-8.3554,-8.2695,-8.23,-8.2324,-8.2315,-8.2295,-8.2226,-8.1422,-8.0537,-7.9717,-7.8858,-7.7915,-7.7192,-7.7059,-7.6975,-7.6909,-7.6855,-7.676,-7.6671,-7.6652,-7.6553,-7.6471,-7.6405,-7.6397,-7.6397,-7.6165,-7.6011,-7.5933,-7.5198,-7.485,-7.4695,-7.4193,-7.3883,-7.3651,-7.3574,-7.3148,-7.2352,-7.2236,-7.1927,-7.144,-7.1866,-7.1819,-7.1221,-7.1762,-7.207,-7.2134,-7.293,-7.3418,-7.3558,-7.4286,-7.4895,-7.5249,-7.5857,-7.6399,-7.6648,-7.684,-7.691,-7.6987,-7.6994,-7.7034,-7.7051,-7.7067,-7.7075,-7.7082,-7.7106,-7.7307,-7.7712,-7.743,-7.7025,-7.7026,-7.7254,-7.756,-7.7495,-7.7755,-7.7857,-7.7841,-7.7699,-7.7553,-7.7489,-7.739,-7.7249,-7.7061,-7.7064,-7.695,-7.722,-7.7449,-7.73,-7.73,-7.7375,-7.7375,-7.734,-7.696,-7.6465,-7.5778,-7.5008,-7.485,-7.4649,-7.4557,-7.4425,-7.4335,-7.4289,-7.4243,-7.4197,-7.4104,-7.4009,-7.3864,-7.3715,-7.3578,-8.7453,-8.75,-8.75,-8.7226,-8.6601,-8.5429,-8.4609,-8.3945,-8.2846,-8.2324,-8.2299,-8.2293,-8.231,-8.2253,-8.1764,-8.1083,-8.0185,-7.9359,-7.8487,-7.7636,-7.716,-7.6948,-7.6883,-7.6825,-7.6743,-7.6633,-7.6632,-7.6531,-7.6488,-7.6421,-7.6421,-7.6427,-7.6444,-7.6444,-7.645,-7.604,-7.5692,-7.5631,-7.5205,-7.4834,-7.4463,-7.4425,-7.3922,-7.3303,-7.3148,-7.2839,-7.2529,-7.2877,-7.2677,-7.2128,-7.253,-7.3056,-7.3133,-7.3852,-7.434,-7.4378,-7.5205,-7.5774,-7.5875,-7.6399,-7.6704,-7.677,-7.691,-7.696,-7.6994,-7.7034,-7.7067,-7.7082,-7.7082,-7.7082,-7.716,-7.7379,-7.796,-7.8531,-7.826,-7.7929,-7.7882,-7.8224,-7.8357,-7.8425,-7.8553,-7.8706,-7.8745,-7.8545,-7.843,-7.8327,-7.8108,-7.808,-7.8011,-7.8129,-7.8206,-7.8285,-7.8211,-7.7984,-7.7871,-7.7946,-7.8022,-7.8026,-7.7951,-7.7456,-7.6769,-7.5731,-7.5384,-7.5225,-7.4789,-7.4551,-7.4545,-7.4455,-7.4335,-7.4243,-7.4104,-7.4009,-7.3912,-7.3765,-7.3578,-8.75,-8.75,-8.75,-8.75,-8.7187,-8.5664,-8.4883,-8.457,-8.3023,-8.2299,-8.2293,-8.2293,-8.2293,-8.2293,-8.2176,-8.1786,-8.0882,-7.9963,-7.8971,-7.8028,-7.7287,-7.6894,-7.6894,-7.6809,-7.6726,-7.6614,-7.6632,-7.6549,-7.6482,-7.6421,-7.645,-7.6493,-7.651,-7.6531,-7.6553,-7.6514,-7.6553,-7.6433,-7.6295,-7.5885,-7.5376,-7.526,-7.4811,-7.4115,-7.3767,-7.3767,-7.3728,-7.3883,-7.3651,-7.2916,-7.3612,-7.3938,-7.4115,-7.4773,-7.5198,-7.5337,-7.5924,-7.6436,-7.6575,-7.663,-7.6793,-7.6883,-7.6936,-7.6983,-7.7024,-7.7051,-7.7075,-7.7082,-7.7082,-7.7145,-7.7402,-7.796,-7.862,-7.9196,-7.9297,-7.9369,-7.9442,-7.933,-7.9248,-7.9266,-7.9056,-7.9003,-7.8921,-7.8776,-7.8737,-7.9319,-7.9139,-7.9144,-7.911,-7.9114,-7.9041,-7.8926,-7.8777,-7.8512,-7.8476,-7.8479,-7.8555,-7.8634,-7.8675,-7.8409,-7.8065,-7.726,-7.6528,-7.6062,-7.5906,-7.5485,-7.4946,-7.4821,-7.4658,-7.4335,-7.4243,-7.4151,-7.4009,-7.3826,-7.3728,-8.75,-8.75,-8.75,-8.75,-8.7226,-8.5664,-8.4878,-8.4736,-8.3041,-8.2293,-8.2293,-8.2293,-8.2293,-8.2293,-8.2254,-8.1773,-8.0922,-8.0055,-7.8867,-7.7362,-7.6986,-7.6809,-7.6793,-7.676,-7.6708,-7.6691,-7.6672,-7.663,-7.6582,-7.6527,-7.6591,-7.6573,-7.6573,-7.6553,-7.6612,-7.6632,-7.6612,-7.6591,-7.6591,-7.6454,-7.6234,-7.6118,-7.5708,-7.4889,-7.4309,-7.3999,-7.4038,-7.4502,-7.4734,-7.4695,-7.4734,-7.485,-7.5005,-7.5624,-7.5995,-7.6156,-7.6316,-7.6594,-7.669,-7.6777,-7.6855,-7.6897,-7.696,-7.7004,-7.7014,-7.7004,-7.7012,-7.702,-7.7012,-7.7346,-7.793,-7.8726,-7.9196,-7.9399,-7.9431,-7.9615,-8.0068,-8.0144,-8.0002,-8.0082,-8.0357,-8.0684,-8.0627,-8.0384,-8.0299,-8.0344,-8.0241,-8.0284,-8.0174,-8.0059,-7.991,-7.968,-7.9685,-7.9535,-7.9466,-7.943,-7.943,-7.943,-7.9435,-7.9361,-7.9057,-7.856,-7.7716,-7.7331,-7.7138,-7.6524,-7.5839,-7.5485,-7.5361,-7.4935,-7.4463,-7.4365,-7.4263,-7.4084,-7.4163,-8.75,-8.75,-8.75,-8.7265,-8.6719,-8.5503,-8.4663,-8.4095,-8.2918,-8.2293,-8.2293,-8.2293,-8.2293,-8.2254,-8.2254,-8.1922,-8.1304,-8.0144,-7.8882,-7.7676,-7.7097,-7.6777,-7.676,-7.6687,-7.6708,-7.671,-7.6691,-7.6671,-7.6609,-7.663,-7.6632,-7.6633,-7.6633,-7.6633,-7.6633,-7.6652,-7.6633,-7.6652,-7.6652,-7.6632,-7.657,-7.6488,-7.635,-7.5802,-7.5276,-7.5082,-7.5198,-7.5469,-7.5701,-7.5701,-7.5701,-7.5701,-7.574,-7.6127,-7.6382,-7.6444,-7.6531,-7.6614,-7.669,-7.6793,-7.6908,-7.691,-7.6972,-7.6994,-7.7014,-7.6995,-7.6995,-7.7063,-7.7365,-7.788,-7.8637,-7.9038,-7.9384,-7.9376,-7.9325,-7.9641,-8.0242,-8.0433,-8.0561,-8.0779,-8.1053,-8.1137,-8.1205,-8.1116,-8.1054,-8.0683,-8.0619,-8.0625,-8.0728,-8.0651,-8.0663,-8.0586,-8.063,-8.0635,-8.0566,-8.0493,-8.0417,-8.034,-8.0267,-8.0195,-8.0008,-7.9477,-7.8903,-7.8482,-7.806,-7.7488,-7.6878,-7.649,-7.6104,-7.5603,-7.5173,-7.4884,-7.4786,-7.4873,-7.5106,-8.75,-8.75,-8.75,-8.6992,-8.6133,-8.5288,-8.4447,-8.3582,-8.2684,-8.2293,-8.2293,-8.2293,-8.2248,-8.2209,-8.2202,-8.2148,-8.148,-8.0324,-7.8869,-7.803,-7.7143,-7.6799,-7.6726,-7.6687,-7.6708,-7.671,-7.6729,-7.6691,-7.6652,-7.6652,-7.669,-7.6726,-7.6708,-7.6726,-7.6743,-7.6743,-7.6726,-7.6729,-7.6729,-7.6691,-7.6632,-7.6591,-7.645,-7.6327,-7.6204,-7.6165,-7.6127,-7.6243,-7.632,-7.6397,-7.6397,-7.6397,-7.6397,-7.6397,-7.6397,-7.6421,-7.651,-7.6594,-7.669,-7.6777,-7.6855,-7.6897,-7.6948,-7.6983,-7.6983,-7.715,-7.7267,-7.7518,-7.7883,-7.8507,-7.9112,-7.9275,-7.9165,-7.9053,-7.8981,-7.9388,-7.9946,-8.0196,-8.0423,-8.1257,-8.1258,-8.1234,-8.1176,-8.1124,-8.1093,-8.1061,-8.0991,-8.0959,-8.1061,-8.1093,-8.0991,-8.0959,-8.0959,-8.0893,-8.0826,-8.0826,-8.0826,-8.0826,-8.0792,-8.072,-8.065,-8.0272,-7.9666,-7.9247,-7.8788,-7.8331,-7.7911,-7.7568,-7.703,-7.6379,-7.6066,-7.5896,-7.5796,-7.5689,-7.6009,-8.75,-8.75,-8.75,-8.6992,-8.6133,-8.5249,-8.4362,-8.3543,-8.2645,-8.2293,-8.2293,-8.2241,-8.2226,-8.2187,-8.2171,-8.18,-8.1091,-7.9968,-7.9003,-7.8115,-7.7226,-7.6726,-7.6726,-7.6726,-7.6743,-7.676,-7.6777,-7.6743,-7.6764,-7.6816,-7.6848,-7.6825,-7.6864,-7.6864,-7.6864,-7.6879,-7.6848,-7.676,-7.676,-7.6726,-7.671,-7.6652,-7.6591,-7.6466,-7.6421,-7.6397,-7.6397,-7.6397,-7.6397,-7.6397,-7.6397,-7.6397,-7.6397,-7.6397,-7.6421,-7.6466,-7.6549,-7.6594,-7.669,-7.6687,-7.6793,-7.6879,-7.6922,-7.6936,-7.7092,-7.752,-7.7754,-7.8051,-7.845,-7.887,-7.8276,-7.8764,-7.8766,-7.8437,-7.8166,-7.8455,-7.9021,-7.9361,-7.9893,-8.1091,-8.1186,-8.1214,-8.1184,-8.1124,-8.1093,-8.1093,-8.1061,-8.0991,-8.1061,-8.1093,-8.1061,-8.1061,-8.1061,-8.0991,-8.0926,-8.0893,-8.0893,-8.0893,-8.0893,-8.0893,-8.0826,-8.0792,-8.0458,-7.997,-7.9705,-7.9476,-7.9095,-7.8599,-7.8103,-7.7493,-7.722,-7.6941,-7.6884,-7.6783,-7.6806,-8.75,-8.7461,-8.7031,-8.6326,-8.5456,-8.4589,-8.3716,-8.2957,-8.2489,-8.2287,-8.2241,-8.2187,-8.2171,-8.2162,-8.2114,-8.1805,-8.1142,-7.9943,-7.9187,-7.8509,-7.7404,-7.6743,-7.676,-7.676,-7.6793,-7.6825,-7.684,-7.6825,-7.6848,-7.6864,-7.6922,-7.6897,-7.6922,-7.6894,-7.6894,-7.6894,-7.6879,-7.6825,-7.6809,-7.6777,-7.6726,-7.671,-7.6612,-7.6488,-7.6444,-7.6397,-7.6397,-7.6397,-7.6397,-7.6397,-7.6397,-7.6397,-7.6397,-7.6397,-7.6421,-7.6488,-7.657,-7.6632,-7.669,-7.6726,-7.6793,-7.6825,-7.6879,-7.7127,-7.7462,-7.789,-7.8248,-7.8565,-7.8318,-7.8437,-7.8049,-7.8321,-7.8028,-7.7426,-7.7173,-7.7728,-7.8501,-7.876,-7.9764,-8.0916,-8.1128,-8.1214,-8.1184,-8.1154,-8.1093,-8.1093,-8.1093,-8.1093,-8.1093,-8.1093,-8.1093,-8.1093,-8.1093,-8.1061,-8.0991,-8.0991,-8.0959,-8.0959,-8.0959,-8.0959,-8.0926,-8.0893,-8.0826,-8.0535,-8.0463,-8.0238,-7.9971,-7.9398,-7.9017,-7.8561,-7.8103,-7.7796,-7.7855,-7.7911,-7.7899,-8.7383,-8.7187,-8.6484,-8.5617,-8.4609,-8.3921,-8.3135,-8.2411,-8.2332,-8.2241,-8.2187,-8.2179,-8.2162,-8.2094,-8.2062,-8.1987,-8.1756,-8.0258,-7.9597,-7.8975,-7.7792,-7.7032,-7.6832,-7.6809,-7.6825,-7.6869,-7.6883,-7.6883,-7.6894,-7.6922,-7.691,-7.6923,-7.6936,-7.6922,-7.6922,-7.6936,-7.6922,-7.6894,-7.6864,-7.6848,-7.676,-7.6652,-7.6591,-7.651,-7.6444,-7.6397,-7.6397,-7.6397,-7.6397,-7.6397,-7.6397,-7.6397,-7.6397,-7.6421,-7.6444,-7.6488,-7.6612,-7.6652,-7.671,-7.6708,-7.676,-7.6777,-7.7003,-7.7369,-7.7603,-7.7843,-7.8276,-7.8748,-7.8457,-7.7796,-7.7563,-7.756,-7.7246,-7.6776,-7.6598,-7.6954,-7.8207,-7.8938,-7.9538,-8.0405,-8.0915,-8.1184,-8.1154,-8.1124,-8.1093,-8.1093,-8.1093,-8.1093,-8.1093,-8.1093,-8.1093,-8.1093,-8.1093,-8.1093,-8.1061,-8.1061,-8.1061,-8.1061,-8.1061,-8.1061,-8.0991,-8.0959,-8.0893,-8.0826,-8.072,-8.057,-8.0378,-8.0228,-7.9851,-7.9433,-7.8861,-7.8751,-7.8977,-7.9001,-7.8863,-8.707,-8.6328,-8.6211,-8.5266,-8.3861,-8.3627,-8.308,-8.2371,-8.2293,-8.2241,-8.2179,-8.2201,-8.2182,-8.2101,-8.2026,-8.1975,-8.1618,-8.0862,-8.0003,-7.9265,-7.831,-7.7431,-7.6957,-7.6894,-7.6869,-7.6897,-7.691,-7.6922,-7.6922,-7.6962,-7.6987,-7.6987,-7.6987,-7.6987,-7.6975,-7.6975,-7.6975,-7.6897,-7.6908,-7.6809,-7.6726,-7.6633,-7.6612,-7.6531,-7.6466,-7.6397,-7.6397,-7.6397,-7.6397,-7.6397,-7.6397,-7.6397,-7.6397,-7.6444,-7.6505,-7.6527,-7.6549,-7.6591,-7.6672,-7.6788,-7.6863,-7.7036,-7.7365,-7.7404,-7.7464,-7.7697,-7.8049,-7.801,-7.7853,-7.7522,-7.6958,-7.6721,-7.6544,-7.6498,-7.6436,-7.7125,-7.8177,-7.8728,-7.9404,-8.0269,-8.0885,-8.1047,-8.1093,-8.1093,-8.1093,-8.1093,-8.1093,-8.1093,-8.1093,-8.1093,-8.1093,-8.1093,-8.1093,-8.1093,-8.1093,-8.1093,-8.1093,-8.1093,-8.1093,-8.1093,-8.1061,-8.1023,-8.0991,-8.0959,-8.0888,-8.0855,-8.074,-8.0668,-8.0601,-8.0336,-7.9807,-7.9966,-8.0239,-8.0083,-7.9685,-8.6094,-8.6133,-8.5149,-8.4316,-8.3569,-8.308,-8.2684,-8.2371,-8.2293,-8.228,-8.221,-8.2201,-8.2133,-8.2038,-8.2012,-8.1952,-8.1787,-8.107,-8.0193,-7.9392,-7.8552,-7.7711,-7.7078,-7.6883,-7.691,-7.6923,-7.6936,-7.6936,-7.6975,-7.6975,-7.6999,-7.6999,-7.6999,-7.6999,-7.6999,-7.6999,-7.6975,-7.6897,-7.6855,-7.6777,-7.669,-7.6614,-7.6591,-7.6531,-7.6444,-7.6421,-7.6397,-7.6397,-7.6397,-7.6397,-7.6397,-7.6397,-7.6397,-7.6421,-7.6482,-7.6527,-7.6992,-7.7035,-7.6749,-7.7099,-7.7273,-7.7389,-7.7718,-7.7795,-7.7506,-7.7583,-7.7835,-7.7849,-7.7324,-7.6876,-7.6582,-7.6459,-7.6374,-7.635,-7.6326,-7.6919,-7.7737,-7.8392,-7.9028,-7.9931,-8.0785,-8.0939,-8.1093,-8.1093,-8.1093,-8.1093,-8.1093,-8.1093,-8.1093,-8.1093,-8.1093,-8.1093,-8.1093,-8.1093,-8.1093,-8.1093,-8.1093,-8.1093,-8.1093,-8.1093,-8.1093,-8.1093,-8.1093,-8.1116,-8.1116,-8.1085,-8.1054,-8.0953,-8.0778,-8.0783,-8.0822,-8.0685,-8.058,-8.043,-8.0161,-8.4961,-8.5424,-8.4146,-8.3482,-8.3222,-8.2578,-8.2332,-8.2293,-8.2287,-8.2265,-8.2201,-8.2182,-8.2112,-8.2026,-8.1987,-8.1998,-8.1944,-8.1306,-8.0411,-7.9477,-7.8698,-7.7909,-7.7222,-7.6923,-7.6975,-7.6999,-7.6987,-7.6987,-7.6999,-7.6999,-7.6999,-7.6999,-7.6999,-7.6999,-7.6999,-7.6987,-7.6923,-7.6869,-7.6825,-7.6799,-7.671,-7.6652,-7.6591,-7.6488,-7.6444,-7.6397,-7.6397,-7.6397,-7.6397,-7.6397,-7.6397,-7.6397,-7.6397,-7.6397,-7.6614,-7.6831,-7.7373,-7.7589,-7.7578,-7.7853,-7.801,-7.7914,-7.77,-7.7584,-7.7835,-7.7733,-7.7479,-7.7401,-7.6931,-7.656,-7.6421,-7.635,-7.6301,-7.625,-7.6198,-7.6723,-7.7285,-7.8065,-7.8883,-7.9815,-8.0554,-8.0977,-8.1093,-8.1124,-8.1124,-8.1124,-8.1124,-8.1124,-8.1124,-8.1124,-8.1093,-8.1093,-8.1093,-8.1093,-8.1093,-8.1093,-8.1093,-8.1124,-8.1124,-8.1154,-8.1184,-8.1214,-8.1214,-8.1273,-8.1263,-8.1263,-8.1205,-8.1116,-8.0991,-8.0991,-8.092,-8.0788,-8.065,-8.058,-8.0468,-8.3704,-8.3744,-8.3621,-8.3113,-8.2456,-8.2332,-8.2293,-8.2293,-8.2234,-8.2218,-8.2182,-8.214,-8.2077,-8.2026,-8.2,-8.2026,-8.1974,-8.1905,-8.0868,-7.9895,-7.9286,-7.8338,-7.7494,-7.6999,-7.6999,-7.6999,-7.6999,-7.6999,-7.6999,-7.6987,-7.6999,-7.6999,-7.6987,-7.6999,-7.6987,-7.6923,-7.6883,-7.6825,-7.6793,-7.6743,-7.6691,-7.6632,-7.657,-7.6488,-7.6444,-7.6397,-7.6397,-7.6397,-7.6397,-7.6397,-7.6397,-7.6397,-7.6397,-7.6552,-7.6885,-7.7349,-7.7891,-7.8201,-7.8479,-7.8563,-7.8512,-7.793,-7.7387,-7.7253,-7.7581,-7.7038,-7.6725,-7.6759,-7.6521,-7.6459,-7.6374,-7.6301,-7.625,-7.6225,-7.621,-7.6465,-7.7141,-7.8006,-7.8853,-7.9708,-8.0362,-8.09,-8.1154,-8.1184,-8.1184,-8.1184,-8.1214,-8.1184,-8.1154,-8.1154,-8.1124,-8.1124,-8.1124,-8.1124,-8.1124,-8.1124,-8.1154,-8.1184,-8.1214,-8.1244,-8.1273,-8.1301,-8.133,-8.1291,-8.1319,-8.1347,-8.1347,-8.1234,-8.1146,-8.1116,-8.1054,-8.0888,-8.0754,-8.0614,-8.0543,-8.2805,-8.2801,-8.2801,-8.2606,-8.2293,-8.2293,-8.2293,-8.2287,-8.2234,-8.2162,-8.2123,-8.2128,-8.2065,-8.2065,-8.2052,-8.2052,-8.2065,-8.2065,-8.0974,-8.0051,-7.9361,-7.8525,-7.755,-7.6994,-7.6983,-7.6983,-7.7011,-7.6999,-7.6999,-7.6948,-7.6923,-7.6923,-7.6923,-7.6923,-7.691,-7.6869,-7.6825,-7.6793,-7.6743,-7.6671,-7.6652,-7.6591,-7.6527,-7.6444,-7.6421,-7.6397,-7.6397,-7.6397,-7.6397,-7.6397,-7.6397,-7.6436,-7.6552,-7.6862,-7.7326,-7.7867,-7.8525,-7.8989,-7.895,-7.9021,-7.874,-7.8085,-7.7522,-7.7268,-7.7229,-7.6682,-7.6505,-7.6444,-7.6444,-7.6397,-7.6374,-7.6326,-7.6276,-7.6225,-7.6288,-7.636,-7.6871,-7.7766,-7.8507,-7.9199,-8.02,-8.1047,-8.1184,-8.1244,-8.1244,-8.1214,-8.1244,-8.1273,-8.1244,-8.1214,-8.1214,-8.1184,-8.1184,-8.1214,-8.1214,-8.1214,-8.1244,-8.1273,-8.1234,-8.1291,-8.1319,-8.1347,-8.1347,-8.1374,-8.1374,-8.14,-8.14,-8.1319,-8.1263,-8.1205,-8.1146,-8.1054,-8.0855,-8.0685,-8.0616,-8.2328,-8.2293,-8.2293,-8.2293,-8.2293,-8.2293,-8.2293,-8.2287,-8.2226,-8.2153,-8.2101,-8.2077,-8.2104,-8.2104,-8.2104,-8.2104,-8.2077,-8.1972,-8.097,-8.0163,-7.9403,-7.8525,-7.7541,-7.6985,-7.7004,-7.6994,-7.7011,-7.6999,-7.6999,-7.6923,-7.691,-7.691,-7.6883,-7.6883,-7.6869,-7.6825,-7.676,-7.6743,-7.669,-7.6652,-7.6591,-7.6549,-7.6505,-7.6421,-7.6397,-7.6397,-7.6397,-7.6397,-7.6397,-7.6397,-7.6436,-7.6552,-7.69,-7.7365,-7.7906,-7.8602,-7.9144,-7.9608,-7.9439,-7.8805,-7.8463,-7.7866,-7.7379,-7.7008,-7.6637,-7.6421,-7.6421,-7.6397,-7.6397,-7.6397,-7.6374,-7.6326,-7.6276,-7.6225,-7.6172,-7.6311,-7.6619,-7.7323,-7.7988,-7.872,-7.9759,-8.0769,-8.1205,-8.1263,-8.1291,-8.1291,-8.1291,-8.1291,-8.1301,-8.1273,-8.1263,-8.1301,-8.1263,-8.1263,-8.1291,-8.1301,-8.1301,-8.1319,-8.1319,-8.1347,-8.1374,-8.14,-8.1427,-8.1427,-8.1453,-8.1478,-8.1427,-8.1347,-8.1319,-8.1291,-8.1176,-8.1023,-8.0888,-8.072,-8.065,-8.2293,-8.2293,-8.2293,-8.2293,-8.2293,-8.2293,-8.2293,-8.2287,-8.221,-8.2162,-8.2077,-8.2104,-8.2104,-8.2104,-8.2104,-8.2104,-8.2116,-8.2023,-8.1176,-7.9939,-7.9569,-7.8525,-7.755,-7.6985,-7.7014,-7.6994,-7.7011,-7.6999,-7.6987,-7.691,-7.6897,-7.6869,-7.684,-7.6809,-7.6879,-7.6777,-7.6708,-7.6691,-7.6652,-7.6553,-7.651,-7.6488,-7.6444,-7.6421,-7.6397,-7.6397,-7.6397,-7.6397,-7.6397,-7.6397,-7.6552,-7.69,-7.7442,-7.7829,-7.8602,-7.9801,-7.9376,-7.9492,-7.9879,-7.8525,-7.7775,-7.7504,-7.7001,-7.6575,-7.6459,-7.6397,-7.6397,-7.6397,-7.6397,-7.6374,-7.635,-7.6301,-7.6276,-7.625,-7.6225,-7.6276,-7.6558,-7.7313,-7.8122,-7.8777,-7.9509,-8.028,-8.0944,-8.1347,-8.1374,-8.14,-8.14,-8.1374,-8.1319,-8.1319,-8.1347,-8.1347,-8.1347,-8.1347,-8.1347,-8.1319,-8.1319,-8.1374,-8.14,-8.14,-8.1427,-8.1453,-8.1478,-8.1478,-8.1478,-8.1478,-8.1453,-8.14,-8.1319,-8.1234,-8.1085,-8.092,-8.0855,-8.0788,-8.0685,-8.2293,-8.2293,-8.2293,-8.2293,-8.2293,-8.2293,-8.2287,-8.2226,-8.2153,-8.2101,-8.2116,-8.2104,-8.2104,-8.2104,-8.2026,-8.2026,-8.2038,-8.2062,-8.1176,-7.9725,-7.9587,-7.8558,-7.7536,-7.7004,-7.6985,-7.6975,-7.6994,-7.6987,-7.6923,-7.6897,-7.6855,-7.6825,-7.676,-7.6764,-7.6764,-7.6729,-7.6691,-7.6632,-7.6553,-7.651,-7.6488,-7.6444,-7.6421,-7.6397,-7.6397,-7.6397,-7.6397,-7.6397,-7.6436,-7.6552,-7.6823,-7.7403,-7.8022,-7.8448,-7.9531,-8.015,-7.9763,-7.9299,-7.868,-7.7442,-7.69,-7.6746,-7.663,-7.6397,-7.6397,-7.6397,-7.6397,-7.6397,-7.6397,-7.6374,-7.6374,-7.6374,-7.635,-7.635,-7.6326,-7.6276,-7.6636,-7.7703,-7.864,-7.9103,-7.9759,-8.052,-8.1192,-8.14,-8.1427,-8.1453,-8.1453,-8.1453,-8.1427,-8.1427,-8.1453,-8.1453,-8.1453,-8.1427,-8.1427,-8.14,-8.14,-8.1427,-8.1453,-8.1478,-8.1478,-8.1504,-8.1504,-8.1504,-8.1504,-8.1478,-8.1427,-8.1347,-8.1263,-8.1146,-8.1023,-8.092,-8.0855,-8.0788,-8.072,-8.2293,-8.2293,-8.2293,-8.2287,-8.2287,-8.228,-8.2234,-8.2162,-8.2123,-8.2077,-8.2052,-8.2078,-8.1844,-8.1702,-8.1624,-8.1364,-8.1247,-8.1204,-8.063,-7.9257,-7.9197,-7.8238,-7.7418,-7.7012,-7.6985,-7.6975,-7.6983,-7.6987,-7.691,-7.6908,-7.6864,-7.6799,-7.6729,-7.6691,-7.6652,-7.6632,-7.6612,-7.657,-7.6488,-7.6466,-7.6444,-7.6421,-7.6397,-7.6397,-7.6397,-7.6397,-7.6397,-7.6436,-7.6552,-7.6862,-7.7365,-7.8022,-7.868,-7.9415,-8.0188,-8.0188,-7.9453,-7.868,-7.7442,-7.69,-7.6514,-7.6436,-7.6397,-7.6397,-7.6397,-7.6397,-7.6397,-7.6397,-7.6397,-7.6397,-7.6397,-7.6397,-7.6397,-7.6374,-7.6451,-7.6403,-7.6983,-7.8091,-7.8837,-7.9339,-7.9918,-8.0744,-8.1388,-8.1453,-8.1478,-8.1478,-8.1504,-8.1504,-8.1504,-8.1504,-8.1504,-8.1504,-8.1504,-8.1478,-8.1478,-8.1478,-8.1478,-8.1504,-8.1504,-8.1528,-8.1504,-8.1504,-8.1504,-8.1504,-8.1504,-8.1478,-8.14,-8.1319,-8.1205,-8.1116,-8.1023,-8.0959,-8.0926,-8.0788,-8.0685,-8.2215,-8.2215,-8.2215,-8.2085,-8.207,-8.1906,-8.1958,-8.1995,-8.196,-8.1883,-8.1856,-8.1695,-8.1336,-8.0832,-8.074,-8.039,-7.9909,-7.9829,-7.9255,-7.8652,-7.8555,-7.7745,-7.7316,-7.6985,-7.7014,-7.6994,-7.7011,-7.6962,-7.6897,-7.6879,-7.6799,-7.6729,-7.6691,-7.6632,-7.6531,-7.651,-7.6488,-7.6505,-7.6444,-7.6421,-7.6421,-7.6397,-7.6397,-7.6397,-7.6397,-7.6397,-7.6397,-7.6397,-7.6862,-7.7326,-7.7751,-7.8757,-7.9569,-8.015,-8.0188,-7.9685,-7.8486,-7.7597,-7.6784,-7.6436,-7.6436,-7.6397,-7.6397,-7.6397,-7.6397,-7.6397,-7.6397,-7.6397,-7.6397,-7.6397,-7.6397,-7.6397,-7.6397,-7.6475,-7.6552,-7.6877,-7.7457,-7.823,-7.894,-7.952,-8.01,-8.0782,-8.1349,-8.1528,-8.1553,-8.1553,-8.1577,-8.1553,-8.1553,-8.1528,-8.1528,-8.1553,-8.1553,-8.1528,-8.1528,-8.1553,-8.1553,-8.1577,-8.1553,-8.1553,-8.1528,-8.1528,-8.1528,-8.1528,-8.1504,-8.1453,-8.1374,-8.1263,-8.1116,-8.1023,-8.0888,-8.0822,-8.0754,-8.0685,-8.0578,-8.0999,-8.0438,-8.0438,-8.0392,-8.0328,-8.029,-8.0619,-8.1064,-8.0507,-8.0153,-8.0139,-8.0139,-8.0085,-7.9827,-7.9788,-7.9608,-7.9481,-7.9351,-7.8935,-7.8492,-7.8124,-7.7648,-7.7258,-7.7014,-7.7004,-7.6983,-7.6948,-7.6949,-7.6894,-7.6832,-7.6764,-7.6691,-7.6632,-7.657,-7.6488,-7.6444,-7.6444,-7.6421,-7.6421,-7.6397,-7.6397,-7.6397,-7.6397,-7.6397,-7.6397,-7.6397,-7.6397,-7.6397,-7.6862,-7.7597,-7.8293,-7.9221,-7.9995,-8.015,-7.9956,-7.8486,-7.7829,-7.7365,-7.6591,-7.6397,-7.6397,-7.6397,-7.6397,-7.6397,-7.6397,-7.6397,-7.6397,-7.6397,-7.6397,-7.6397,-7.6475,-7.6514,-7.6552,-7.6668,-7.6939,-7.762,-7.8201,-7.8882,-7.9617,-8.0121,-8.0662,-8.1035,-8.1562,-8.1624,-8.1624,-8.1646,-8.1646,-8.1624,-8.1624,-8.16,-8.1577,-8.16,-8.16,-8.16,-8.1624,-8.1646,-8.1646,-8.1646,-8.1624,-8.16,-8.16,-8.16,-8.1577,-8.1553,-8.1478,-8.14,-8.1319,-8.1205,-8.1016,-8.0888,-8.0788,-8.0685,-8.0614,-8.0542,-8.043,-8.0165,-7.9682,-7.9682,-7.9617,-7.95,-7.9118,-7.9286,-7.9623,-7.9462,-7.9408,-7.9408,-7.9415,-7.9181,-7.8893,-7.8886,-7.8692,-7.8342,-7.827,-7.804,-7.778,-7.7767,-7.7377,-7.7089,-7.6972,-7.6948,-7.6936,-7.691,-7.6869,-7.6848,-7.6764,-7.6691,-7.6652,-7.657,-7.6527,-7.6444,-7.6421,-7.6397,-7.6397,-7.6397,-7.6397,-7.6397,-7.6397,-7.6397,-7.6397,-7.6397,-7.6397,-7.6397,-7.6397,-7.6978,-7.7945,-7.8834,-7.9376,-7.9801,-7.9608,-7.9028,-7.779,-7.7287,-7.6939,-7.6475,-7.6397,-7.6397,-7.6397,-7.6397,-7.6397,-7.6397,-7.6397,-7.6397,-7.6397,-7.6397,-7.6397,-7.6552,-7.6668,-7.6823,-7.6939,-7.7659,-7.8379,-7.906,-7.9741,-8.0306,-8.0833,-8.1181,-8.1514,-8.1691,-8.1691,-8.1691,-8.1669,-8.1691,-8.1691,-8.1691,-8.1669,-8.1646,-8.1646,-8.1669,-8.1669,-8.1691,-8.1713,-8.1691,-8.1691,-8.1669,-8.1669,-8.1669,-8.1624,-8.1577,-8.1504,-8.1453,-8.1347,-8.1234,-8.1107,-8.0984,-8.0822,-8.0685,-8.0542,-8.0506,-8.0468,-8.0354,-7.9478,-7.9344,-7.9374,-7.9188,-7.9169,-7.8333,-7.8015,-7.8076,-7.8737,-7.9165,-7.907,-7.9036,-7.8552,-7.8025,-7.7965,-7.7654,-7.7399,-7.7276,-7.7307,-7.6933,-7.7117,-7.7,-7.6961,-7.6894,-7.6922,-7.6908,-7.6879,-7.6864,-7.6777,-7.6729,-7.6652,-7.6612,-7.6549,-7.6444,-7.6421,-7.6397,-7.6397,-7.6397,-7.6397,-7.6397,-7.6397,-7.6397,-7.6397,-7.6397,-7.6397,-7.6397,-7.6397,-7.6668,-7.7171,-7.8293,-7.9067,-7.9376,-7.9299,-7.8757,-7.7983,-7.7403,-7.6862,-7.663,-7.6413,-7.6374,-7.6374,-7.6374,-7.6397,-7.6374,-7.6374,-7.6397,-7.6397,-7.6397,-7.6397,-7.6668,-7.6823,-7.7132,-7.7365,-7.7852,-7.8572,-7.9153,-7.968,-8.0368,-8.0937,-8.1325,-8.1501,-8.1755,-8.1755,-8.1755,-8.1755,-8.1734,-8.1734,-8.1755,-8.1755,-8.1734,-8.1734,-8.1734,-8.1734,-8.1794,-8.1794,-8.1794,-8.1773,-8.1713,-8.1713,-8.1713,-8.1691,-8.1646,-8.1553,-8.1478,-8.14,-8.1224,-8.1107,-8.1016,-8.0888,-8.0685,-8.0542,-8.0431,-8.0354,-8.0314,-8.0195,-7.8233,-7.7646,-7.7559,-7.7506,-7.7423,-7.7198,-7.7088,-7.7054,-7.7252,-7.7427,-7.735,-7.735,-7.7272,-7.7135,-7.7098,-7.6904,-7.6824,-7.6764,-7.6777,-7.6848,-7.6864,-7.6879,-7.6894,-7.6879,-7.6894,-7.6879,-7.6864,-7.6799,-7.6729,-7.6672,-7.6612,-7.651,-7.6466,-7.6421,-7.6397,-7.6397,-7.6397,-7.6397,-7.6397,-7.6397,-7.6397,-7.6397,-7.6397,-7.6397,-7.6397,-7.6397,-7.6397,-7.6436,-7.7016,-7.7867,-7.8641,-7.9067,-7.9221,-7.8216,-7.7403,-7.6823,-7.6552,-7.6413,-7.635,-7.6326,-7.6326,-7.6301,-7.6301,-7.6326,-7.635,-7.6374,-7.6397,-7.6436,-7.6552,-7.69,-7.7287,-7.7674,-7.8061,-7.8781,-7.9486,-7.9912,-8.0361,-8.0916,-8.1504,-8.1679,-8.1815,-8.1854,-8.1854,-8.1854,-8.1854,-8.1854,-8.1854,-8.1873,-8.1854,-8.1854,-8.1834,-8.1834,-8.1854,-8.1854,-8.1854,-8.1834,-8.1814,-8.1834,-8.1834,-8.1814,-8.1773,-8.1646,-8.1553,-8.1453,-8.1347,-8.1205,-8.1047,-8.0926,-8.0792,-8.058,-8.0468,-8.0314,-8.0195,-8.0154,-8.003,-7.7389,-7.6949,-7.6894,-7.6809,-7.6793,-7.6777,-7.6743,-7.6726,-7.6671,-7.6691,-7.6652,-7.6672,-7.6633,-7.6614,-7.6594,-7.6591,-7.6652,-7.6691,-7.6729,-7.6764,-7.676,-7.6777,-7.6793,-7.6793,-7.6793,-7.6793,-7.6799,-7.6729,-7.6672,-7.6612,-7.6549,-7.6466,-7.6421,-7.6397,-7.6397,-7.6397,-7.6397,-7.6397,-7.6397,-7.6397,-7.6397,-7.6397,-7.6397,-7.6397,-7.6397,-7.6397,-7.6397,-7.6436,-7.6939,-7.7481,-7.8138,-7.868,-7.8564,-7.779,-7.6939,-7.6591,-7.6397,-7.6374,-7.6326,-7.6276,-7.625,-7.6225,-7.6263,-7.6289,-7.6455,-7.6543,-7.707,-7.7109,-7.7132,-7.7403,-7.8216,-7.8718,-7.9067,-7.9671,-8.0361,-8.0971,-8.117,-8.1465,-8.1738,-8.1796,-8.1873,-8.1873,-8.1873,-8.1873,-8.1873,-8.1873,-8.1892,-8.1892,-8.1892,-8.1892,-8.1892,-8.1892,-8.1892,-8.1892,-8.1873,-8.1873,-8.1873,-8.1892,-8.1892,-8.1834,-8.1734,-8.1624,-8.1528,-8.14,-8.1291,-8.1176,-8.1023,-8.0893,-8.0688,-8.0506,-8.0354,-8.0235,-8.0113,-7.9988,-7.9946,-7.6922,-7.6879,-7.6809,-7.6777,-7.6777,-7.6743,-7.6687,-7.6669,-7.671,-7.6652,-7.6612,-7.6591,-7.6591,-7.6591,-7.6591,-7.6566,-7.6582,-7.6591,-7.6632,-7.6672,-7.6691,-7.669,-7.6708,-7.6669,-7.6708,-7.669,-7.6671,-7.6633,-7.6573,-7.657,-7.6527,-7.6466,-7.6444,-7.6397,-7.6397,-7.6397,-7.6397,-7.6397,-7.6397,-7.6397,-7.6397,-7.6397,-7.6397,-7.6397,-7.6397,-7.6397,-7.6397,-7.6514,-7.69,-7.7248,-7.7674,-7.8138,-7.8216,-7.7597,-7.6939,-7.6514,-7.6397,-7.6374,-7.6326,-7.6276,-7.625,-7.6198,-7.6276,-7.6456,-7.6701,-7.7112,-7.7626,-7.7959,-7.7983,-7.8216,-7.9067,-7.9569,-7.9956,-8.0406,-8.112,-8.1656,-8.1757,-8.1854,-8.1892,-8.1892,-8.1892,-8.1892,-8.1892,-8.1892,-8.1892,-8.1892,-8.1892,-8.1892,-8.1892,-8.1892,-8.1892,-8.1892,-8.1892,-8.1892,-8.1892,-8.1892,-8.1892,-8.1892,-8.1892,-8.1834,-8.1713,-8.16,-8.1478,-8.1347,-8.1234,-8.1146,-8.0991,-8.0826,-8.0616,-8.0469,-8.0314,-8.0195,-8.0072,-7.9988,-7.9903,-7.684,-7.6809,-7.676,-7.6743,-7.6743,-7.6687,-7.6687,-7.6708,-7.6633,-7.6612,-7.6553,-7.6466,-7.6444,-7.6444,-7.6444,-7.6459,-7.6498,-7.6527,-7.657,-7.6612,-7.6632,-7.6632,-7.6614,-7.6633,-7.6652,-7.6632,-7.6594,-7.6573,-7.6531,-7.6527,-7.6466,-7.6421,-7.6421,-7.6397,-7.6397,-7.6397,-7.6397,-7.6397,-7.6397,-7.6397,-7.6397,-7.6397,-7.6397,-7.6397,-7.6397,-7.6397,-7.6397,-7.6397,-7.6475,-7.6784,-7.7287,-7.7751,-7.779,-7.7597,-7.7055,-7.6475,-7.6397,-7.6374,-7.6326,-7.643,-7.6418,-7.6442,-7.6646,-7.7252,-7.7575,-7.8155,-7.8683,-7.9274,-7.9337,-7.9299,-7.984,-8.0034,-8.0382,-8.0933,-8.1585,-8.1734,-8.1815,-8.1873,-8.1892,-8.1892,-8.1892,-8.1892,-8.1892,-8.1892,-8.1892,-8.1892,-8.1892,-8.1892,-8.1892,-8.1892,-8.1892,-8.1892,-8.1892,-8.1892,-8.1892,-8.1892,-8.1892,-8.1892,-8.1873,-8.1814,-8.1691,-8.1577,-8.1453,-8.1347,-8.1263,-8.1176,-8.0991,-8.0826,-8.0652,-8.0468,-8.0314,-8.0154,-8.0072,-7.9988,-7.9988]}]]